ftp/pub/palmer/observations_modified/2019/October/original_files/AR191008_BASE.txt

Download

Sample DateTime	Unit Id	WS Avg 2min	WD Avg 2min	WGS 10min	WGD 10min	Air Temp	Rel Humidity	Dew Point	Pyranometer	Quantum	Air Pressure	Snow Level	Rainfall	PW Current	Visibility	CBase 1	CBase 2	CBase 3	Vert Vis
2019/10/08 00:00:01	BASE	5.75	310	6.38	314	-5.0	99	-5.1	0	0	987.4	NA	0.0000		9999	3840	0	0	0
2019/10/08 00:01:01	BASE	5.83	310	6.38	314	-5.0	99	-5.2	0	0	987.4	NA	0.0000		9999	3810	0	0	0
2019/10/08 00:02:01	BASE	5.98	311	6.38	314	-5.0	99	-5.2	0	0	987.4	NA	0.0000		9999	3770	0	0	0
2019/10/08 00:03:01	BASE	6.11	311	6.38	313	-5.1	98	-5.3	0	0	987.4	NA	0.0000		9999	3770	0	0	0
2019/10/08 00:04:01	BASE	6.20	312	6.48	313	-5.1	98	-5.3	0	0	987.4	NA	0.0000		9999	3770	0	0	0
2019/10/08 00:05:01	BASE	6.26	314	6.48	310	-5.1	98	-5.4	0	0	987.4	NA	0.0000		9999	1670	3810	0	0
2019/10/08 00:06:01	BASE	6.22	314	6.48	315	-5.1	98	-5.4	0	0	987.4	NA	0.0000		9999	1740	3740	0	0
2019/10/08 00:07:01	BASE	6.53	313	7.15	314	-5.1	98	-5.3	0	0	987.4	NA	0.0000		9999	1670	3740	0	0
2019/10/08 00:08:01	BASE	6.72	313	7.15	314	-5.0	98	-5.3	0	0	987.4	NA	0.0000		9999	1670	3770	0	0
2019/10/08 00:09:01	BASE	6.49	316	7.15	314	-5.0	98	-5.2	0	0	987.4	NA	0.0000		9999	1670	3810	0	0
2019/10/08 00:10:01	BASE	6.18	321	7.15	314	-5.0	98	-5.2	0	0	987.4	NA	0.0000		9999	3740	0	0	0
2019/10/08 00:11:01	BASE	6.00	323	7.15	314	-4.9	98	-5.2	0	0	987.4	NA	0.0000		9999	3740	0	0	0
2019/10/08 00:12:01	BASE	5.94	321	7.15	314	-4.8	98	-5.1	0	0	987.4	NA	0.0000		9999	3810	0	0	0
2019/10/08 00:13:01	BASE	5.79	321	7.15	314	-4.8	98	-5.0	0	0	987.4	NA	0.0000		9999	3810	0	0	0
2019/10/08 00:14:01	BASE	5.78	322	7.15	314	-4.8	98	-5.0	0	0	987.4	NA	0.0000		9999	3770	0	0	0
2019/10/08 00:15:01	BASE	5.86	322	7.15	314	-4.7	98	-5.0	0	0	987.5	NA	0.0000		9999	3740	0	0	0
2019/10/08 00:16:01	BASE	5.79	322	7.15	314	-4.7	98	-5.0	0	0	987.5	NA	0.0000		9999	3770	0	0	0
2019/10/08 00:17:01	BASE	5.77	323	6.89	311	-4.7	98	-5.0	0	0	987.5	NA	0.0000		9999	3810	0	0	0
2019/10/08 00:18:01	BASE	5.81	323	6.69	314	-4.7	98	-5.0	0	0	987.4	NA	0.0000		9999	3770	0	0	0
2019/10/08 00:19:01	BASE	5.90	323	6.38	320	-4.6	98	-5.0	0	0	987.4	NA	0.0000		9999	3740	0	0	0
2019/10/08 00:20:01	BASE	6.12	322	6.69	309	-4.6	97	-5.0	0	0	987.4	NA	0.0000		9999	3670	0	0	0
2019/10/08 00:21:01	BASE	6.20	318	6.69	309	-4.6	97	-5.0	0	0	987.4	NA	0.0000		9999	3610	0	0	0
2019/10/08 00:22:01	BASE	6.03	315	6.69	309	-4.6	97	-5.0	0	0	987.4	NA	0.0000		9999	3350	0	0	0
2019/10/08 00:23:01	BASE	6.00	315	6.69	309	-4.6	97	-5.0	0	0	987.4	NA	0.0000		9999	3380	0	0	0
2019/10/08 00:24:01	BASE	5.97	315	6.69	309	-4.6	97	-5.0	0	0	987.4	NA	0.0000		9999	3640	0	0	0
2019/10/08 00:25:01	BASE	5.78	314	6.69	309	-4.5	97	-4.9	0	0	987.4	NA	0.0000		9999	3580	0	0	0
2019/10/08 00:26:01	BASE	5.60	316	6.69	309	-4.5	97	-5.0	0	0	987.4	NA	0.0000		9999	3540	0	0	0
2019/10/08 00:27:01	BASE	5.67	314	6.69	309	-4.5	97	-5.0	0	0	987.4	NA	0.0000		9999	3150	0	0	0
2019/10/08 00:28:01	BASE	5.81	312	6.69	309	-4.5	96	-5.0	0	0	987.4	NA	0.0000		9999	3610	0	0	0
2019/10/08 00:29:01	BASE	5.64	314	6.69	309	-4.5	96	-5.0	0	0	987.4	NA	0.0000		9999	3580	0	0	0
2019/10/08 00:30:01	BASE	5.56	317	6.58	319	-4.6	96	-5.1	0	0	987.4	NA	0.0000		9999	3580	0	0	0
2019/10/08 00:31:01	BASE	5.57	320	6.38	318	-4.6	96	-5.1	0	0	987.4	NA	0.0000		9999	3480	0	0	0
2019/10/08 00:32:01	BASE	5.60	323	6.38	318	-4.5	96	-5.1	0	0	987.4	NA	0.0000		9999	3410	3940	0	0
2019/10/08 00:33:01	BASE	5.84	322	6.28	321	-4.5	96	-5.1	0	0	987.4	NA	0.0000		9999	1840	3450	0	0
2019/10/08 00:34:01	BASE	5.97	324	6.38	322	-4.5	96	-5.1	0	0	987.4	NA	0.0000		9999	1800	3350	0	0
2019/10/08 00:35:01	BASE	5.82	327	6.38	322	-4.5	96	-5.1	0	0	987.4	NA	0.0000		9999	3380	0	0	0
2019/10/08 00:36:01	BASE	5.87	329	6.38	322	-4.5	96	-5.0	0	0	987.4	NA	0.0000		9999	3480	3900	0	0
2019/10/08 00:37:01	BASE	5.95	331	6.38	322	-4.5	96	-5.0	0	0	987.4	NA	0.0000		9999	3380	3970	0	0
2019/10/08 00:38:01	BASE	5.75	330	6.69	320	-4.5	96	-5.0	0	0	987.4	NA	0.0000		9999	3350	3940	0	0
2019/10/08 00:39:01	BASE	5.85	330	6.69	320	-4.5	96	-5.0	0	0	987.4	NA	0.0000		9999	1840	3350	4000	0
2019/10/08 00:40:01	BASE	6.27	328	6.74	329	-4.5	96	-5.0	0	0	987.4	NA	0.0000		9999	1770	3410	0	0
2019/10/08 00:41:01	BASE	6.20	326	6.74	329	-4.5	96	-5.0	0	0	987.4	NA	0.0000		9999	1670	0	0	0
2019/10/08 00:42:01	BASE	6.12	325	6.84	323	-4.4	96	-5.0	0	0	987.4	NA	0.0000		9999	3350	3940	0	0
2019/10/08 00:43:01	BASE	6.17	322	6.94	314	-4.4	96	-5.0	0	0	987.4	NA	0.0000		9999	1710	3410	4040	0
2019/10/08 00:44:01	BASE	6.00	322	6.94	314	-4.4	96	-4.9	0	0	987.4	NA	0.0000		9999	1740	3410	3940	0
2019/10/08 00:45:01	BASE	5.92	320	6.94	314	-4.4	96	-4.9	0	0	987.4	NA	0.0000		9999	3410	0	0	0
2019/10/08 00:46:01	BASE	5.86	319	6.94	314	-4.4	96	-4.9	0	0	987.4	NA	0.0000		9999	3410	3940	0	0
2019/10/08 00:47:00	BASE	5.80	325	6.94	314	-4.3	96	-4.9	0	0	987.4	NA	0.0000		9999	3410	4000	0	0
2019/10/08 00:48:01	BASE	5.95	324	7.31	314	-4.3	95	-5.0	0	0	987.5	NA	0.0000		9999	3410	0	0	0
2019/10/08 00:49:00	BASE	5.94	321	7.31	314	-4.3	95	-5.0	0	0	987.5	NA	0.0000		9999	3580	4000	0	0
2019/10/08 00:50:01	BASE	5.86	321	7.31	314	-4.3	95	-5.0	0	0	987.6	NA	0.0000		9999	3870	0	0	0
2019/10/08 00:51:01	BASE	6.03	318	7.31	314	-4.3	95	-5.0	0	0	987.6	NA	0.0000		9999	3640	0	0	0
2019/10/08 00:52:01	BASE	5.91	318	7.31	314	-4.3	95	-5.0	0	0	987.6	NA	0.0000		9999	3510	0	0	0
2019/10/08 00:53:00	BASE	5.57	319	7.31	314	-4.3	95	-5.0	0	0	987.6	NA	0.0000		9999	3640	0	0	0
2019/10/08 00:54:01	BASE	5.42	318	7.31	314	-4.3	94	-5.1	0	0	987.6	NA	0.0000		9999	3740	0	0	0
2019/10/08 00:55:01	BASE	5.38	315	7.31	314	-4.3	94	-5.1	0	0	987.6	NA	0.0000		9999	3770	0	0	0
2019/10/08 00:56:01	BASE	5.29	310	7.31	314	-4.3	94	-5.2	0	0	987.6	NA	0.0000		9999	2030	3810	0	0
2019/10/08 00:57:00	BASE	5.32	304	7.31	314	-4.4	94	-5.2	0	0	987.6	NA	0.0000		9999	1970	3740	0	0
2019/10/08 00:58:00	BASE	5.11	303	6.94	315	-4.4	94	-5.2	0	0	987.6	NA	0.0000		9999	3710	0	0	0
2019/10/08 00:59:00	BASE	4.87	302	6.94	315	-4.3	94	-5.2	0	0	987.6	NA	0.0000		9999	1970	3710	0	0
2019/10/08 01:00:01	BASE	4.70	300	6.94	315	-4.3	94	-5.2	0	0	987.6	NA	0.0000		9999	3710	0	0	0
2019/10/08 01:01:00	BASE	4.53	298	6.28	313	-4.3	94	-5.2	0	0	987.6	NA	0.0000		9999	3610	0	0	0
2019/10/08 01:02:00	BASE	4.46	297	6.07	293	-4.3	94	-5.1	0	0	987.6	NA	0.0000		9999	1970	3610	0	0
2019/10/08 01:03:00	BASE	4.23	299	6.07	293	-4.3	94	-5.1	0	0	987.6	NA	0.0000		9999	2000	3670	0	0
2019/10/08 01:04:01	BASE	4.22	300	6.07	293	-4.3	94	-5.1	0	0	987.6	NA	0.0000		9999	1970	3670	0	0
2019/10/08 01:05:01	BASE	4.33	301	6.07	293	-4.3	94	-5.1	0	0	987.6	NA	0.0000		9999	1840	3670	0	0
2019/10/08 01:06:00	BASE	4.31	302	6.02	297	-4.3	94	-5.1	0	0	987.6	NA	0.0000		9999	2000	3640	0	0
2019/10/08 01:07:00	BASE	4.16	302	5.35	295	-4.3	94	-5.1	0	0	987.6	NA	0.0000		9999	1870	3480	0	0
2019/10/08 01:08:01	BASE	4.00	302	5.35	295	-4.3	94	-5.1	0	0	987.6	NA	0.0000		9999	1870	0	0	0
2019/10/08 01:09:00	BASE	4.05	301	5.04	294	-4.3	94	-5.1	0	0	987.6	NA	0.0000		9999	1800	0	0	0
2019/10/08 01:10:01	BASE	3.96	300	5.04	294	-4.3	94	-5.1	0	0	987.6	NA	0.0000		9999	1770	0	0	0
2019/10/08 01:11:00	BASE	4.03	301	4.84	296	-4.3	94	-5.1	0	0	987.6	NA	0.0000		9999	1970	0	0	0
2019/10/08 01:12:00	BASE	4.13	302	4.84	296	-4.3	94	-5.1	0	0	987.6	NA	0.0000		9999	1940	0	0	0
2019/10/08 01:13:01	BASE	3.89	304	4.84	296	-4.3	94	-5.1	0	0	987.6	NA	0.0000		9999	1970	0	0	0
2019/10/08 01:14:01	BASE	3.73	307	4.68	299	-4.3	94	-5.1	0	0	987.5	NA	0.0000		9999	1970	3610	0	0
2019/10/08 01:15:01	BASE	3.46	313	4.68	299	-4.3	94	-5.1	0	0	987.4	NA	0.0000		9999	1970	3610	0	0
2019/10/08 01:16:01	BASE	3.22	316	4.63	299	-4.3	94	-5.2	0	0	987.4	NA	0.0000		9999	1970	0	0	0
2019/10/08 01:17:01	BASE	2.98	317	4.63	299	-4.4	94	-5.2	0	0	987.5	NA	0.0000		9999	2000	0	0	0
2019/10/08 01:18:01	BASE	2.93	315	4.63	299	-4.4	94	-5.2	0	0	987.5	NA	0.0000		9999	1740	3280	0	0
2019/10/08 01:19:01	BASE	3.06	311	4.63	299	-4.4	94	-5.2	0	0	987.6	NA	0.0000		9999	1970	3220	0	0
2019/10/08 01:20:01	BASE	3.10	313	4.63	299	-4.4	94	-5.2	0	0	987.6	NA	0.0000		9999	2000	3250	0	0
2019/10/08 01:21:01	BASE	3.24	314	4.48	299	-4.5	94	-5.2	0	0	987.6	NA	0.0000		9999	1900	3250	0	0
2019/10/08 01:22:01	BASE	3.23	315	4.42	301	-4.5	95	-5.2	0	0	987.6	NA	0.0000		9999	1870	0	0	0
2019/10/08 01:23:01	BASE	3.12	315	4.42	301	-4.5	95	-5.2	0	0	987.6	NA	0.0000		9999	2030	3150	0	0
2019/10/08 01:24:01	BASE	3.15	317	4.42	301	-4.5	95	-5.1	0	0	987.6	NA	0.0000		9999	1840	3220	0	0
2019/10/08 01:25:01	BASE	3.18	317	4.42	301	-4.5	96	-5.1	0	0	987.6	NA	0.0000		9999	1800	0	0	0
2019/10/08 01:26:01	BASE	3.10	316	3.76	323	-4.5	96	-5.0	0	0	987.6	NA	0.0000		9999	2000	3120	0	0
2019/10/08 01:27:01	BASE	3.00	318	3.76	323	-4.5	96	-5.0	0	0	987.6	NA	0.0000		9999	1870	0	0	0
2019/10/08 01:28:01	BASE	2.97	317	3.76	323	-4.5	96	-5.0	0	0	987.6	NA	0.0000		9999	2000	3150	0	0
2019/10/08 01:29:01	BASE	2.88	318	3.76	323	-4.5	96	-5.0	0	0	987.6	NA	0.0000		9999	2030	3120	3670	0
2019/10/08 01:30:01	BASE	2.86	320	3.76	323	-4.4	96	-5.0	0	0	987.6	NA	0.0000		9999	2030	3150	0	0
2019/10/08 01:31:01	BASE	2.98	320	3.50	309	-4.4	96	-5.0	0	0	987.6	NA	0.0000		9999	2070	3080	0	0
2019/10/08 01:32:01	BASE	3.01	318	3.45	312	-4.4	96	-5.0	0	0	987.6	NA	0.0000		9999	2100	3180	0	0
2019/10/08 01:33:01	BASE	3.02	318	3.45	312	-4.4	96	-5.0	0	0	987.6	NA	0.0000		9999	2100	3310	0	0
2019/10/08 01:34:01	BASE	3.09	321	3.45	312	-4.4	96	-5.0	0	0	987.6	NA	0.0000		9999	2170	3380	0	0
2019/10/08 01:35:01	BASE	3.18	321	3.50	313	-4.5	96	-4.9	0	0	987.6	NA	0.0000		9999	1740	2170	3280	0
2019/10/08 01:36:01	BASE	3.09	322	3.50	313	-4.5	97	-4.9	0	0	987.6	NA	0.0000		9999	3050	0	0	0
2019/10/08 01:37:01	BASE	2.97	322	3.50	313	-4.5	97	-4.9	0	0	987.6	NA	0.0000		9999	2000	3150	0	0
2019/10/08 01:38:01	BASE	2.97	321	3.50	313	-4.4	97	-4.9	0	0	987.6	NA	0.0000		9999	1970	0	0	0
2019/10/08 01:39:01	BASE	2.98	320	3.50	313	-4.4	97	-4.8	0	0	987.6	NA	0.0000		9999	2100	0	0	0
2019/10/08 01:40:01	BASE	2.94	320	3.50	313	-4.4	97	-4.8	0	0	987.6	NA	0.0000		9999	2070	3020	3610	0
2019/10/08 01:41:01	BASE	2.86	319	3.50	313	-4.4	97	-4.8	0	0	987.6	NA	0.0000		9999	2070	3120	0	0
2019/10/08 01:42:01	BASE	2.81	319	3.50	313	-4.4	97	-4.8	0	0	987.6	NA	0.0000		9999	2030	3020	0	0
2019/10/08 01:43:01	BASE	2.76	322	3.50	313	-4.4	97	-4.8	0	0	987.6	NA	0.0000		9999	2100	3020	0	0
2019/10/08 01:44:01	BASE	2.86	324	3.50	313	-4.4	97	-4.8	0	0	987.6	NA	0.0000		9999	2950	0	0	0
2019/10/08 01:45:01	BASE	2.97	324	3.24	330	-4.4	97	-4.8	0	0	987.6	NA	0.0000		9999	2990	0	0	0
2019/10/08 01:46:01	BASE	2.99	325	3.24	330	-4.4	97	-4.8	0	0	987.5	NA	0.0000		9999	2000	2950	0	0
2019/10/08 01:47:01	BASE	2.85	328	3.24	330	-4.4	96	-4.9	0	0	987.5	NA	0.0000		9999	2990	0	0	0
2019/10/08 01:48:01	BASE	2.77	331	3.24	330	-4.4	96	-4.9	0	0	987.5	NA	0.0000		9999	2130	3050	0	0
2019/10/08 01:49:01	BASE	2.79	329	3.86	317	-4.4	96	-4.9	0	0	987.4	NA	0.0000		9999	2200	3080	0	0
2019/10/08 01:50:01	BASE	2.74	330	3.86	317	-4.3	96	-4.9	0	0	987.4	NA	0.0000		9999	2030	3080	0	0
2019/10/08 01:51:01	BASE	2.74	333	3.86	317	-4.3	96	-4.9	0	0	987.4	NA	0.0000		9999	2990	0	0	0
2019/10/08 01:52:01	BASE	2.95	328	3.86	317	-4.3	96	-4.9	0	0	987.4	NA	0.0000		9999	1970	2990	0	0
2019/10/08 01:53:01	BASE	3.01	326	3.86	317	-4.3	96	-4.9	0	0	987.4	NA	0.0000		9999	1800	3080	0	0
2019/10/08 01:54:01	BASE	2.57	329	3.86	317	-4.3	96	-4.9	0	0	987.4	NA	0.0000		9999	1640	3080	0	0
2019/10/08 01:55:01	BASE	2.46	333	3.86	317	-4.3	96	-4.9	0	0	987.4	NA	0.0000		9999	1670	0	0	0
2019/10/08 01:56:01	BASE	2.55	325	3.86	317	-4.3	96	-4.9	0	0	987.4	NA	0.0000		9999	1640	0	0	0
2019/10/08 01:57:01	BASE	2.28	316	3.86	317	-4.3	96	-4.8	0	0	987.4	NA	0.0000		9999	1740	2850	0	0
2019/10/08 01:58:01	BASE	2.40	315	3.86	317	-4.3	96	-4.9	0	0	987.4	NA	0.0000		9999	1670	2990	0	0
2019/10/08 01:59:01	BASE	2.47	312	3.55	320	-4.3	96	-4.9	0	0	987.5	NA	0.0000		9999	2990	0	0	0
2019/10/08 02:00:01	BASE	2.35	312	3.55	320	-4.3	96	-4.9	0	0	987.5	NA	0.0000		9999	1800	2950	0	0
2019/10/08 02:01:01	BASE	2.34	313	3.55	320	-4.3	96	-4.9	0	0	987.5	NA	0.0000		9999	1770	2920	0	0
2019/10/08 02:02:01	BASE	2.28	316	3.24	337	-4.3	96	-4.9	0	0	987.6	NA	0.0000		9999	2890	0	0	0
2019/10/08 02:03:01	BASE	2.33	316	3.09	305	-4.3	95	-4.9	0	0	987.6	NA	0.0000		9999	2030	2890	0	0
2019/10/08 02:04:01	BASE	2.37	313	3.09	305	-4.3	95	-5.0	0	0	987.6	NA	0.0000		9999	2890	0	0	0
2019/10/08 02:05:01	BASE	2.22	317	3.09	305	-4.3	95	-5.0	0	0	987.6	NA	0.0000		9999	2720	0	0	0
2019/10/08 02:06:01	BASE	2.11	320	3.09	305	-4.3	95	-5.0	0	0	987.4	NA	0.0000		9999	2690	0	0	0
2019/10/08 02:07:01	BASE	2.24	317	3.09	305	-4.3	95	-5.0	0	0	987.4	NA	0.0000		9999	2760	0	0	0
2019/10/08 02:08:01	BASE	2.38	314	2.68	308	-4.3	95	-5.0	0	0	987.4	NA	0.0000		9999	2030	2820	0	0
2019/10/08 02:09:01	BASE	2.43	314	2.68	308	-4.3	95	-5.0	0	0	987.4	NA	0.0000		9999	2000	2790	0	0
2019/10/08 02:10:01	BASE	2.32	317	2.68	308	-4.3	95	-5.0	0	0	987.4	NA	0.0000		9999	2820	0	0	0
2019/10/08 02:11:00	BASE	2.11	321	2.68	308	-4.3	95	-5.0	0	0	987.4	NA	0.0000		9999	2690	0	0	0
2019/10/08 02:12:01	BASE	2.15	323	2.68	308	-4.3	95	-5.0	0	0	987.4	NA	0.0000		9999	2760	0	0	0
2019/10/08 02:13:00	BASE	2.22	323	2.68	308	-4.3	95	-5.0	0	0	987.4	NA	0.0000		9999	2100	0	0	0
2019/10/08 02:14:00	BASE	2.20	325	2.68	308	-4.3	95	-5.0	0	0	987.4	NA	0.0000		9999	2030	2720	0	0
2019/10/08 02:15:01	BASE	2.22	327	2.68	308	-4.3	95	-5.0	0	0	987.4	NA	0.0000		9999	1940	2660	0	0
2019/10/08 02:16:01	BASE	2.19	329	2.68	308	-4.3	95	-5.0	0	0	987.4	NA	0.0000		9999	1970	2620	0	0
2019/10/08 02:17:00	BASE	2.02	333	2.68	308	-4.3	95	-5.0	0	0	987.4	NA	0.0000		9999	1940	2660	0	0
2019/10/08 02:18:01	BASE	1.96	341	2.52	320	-4.3	95	-5.0	0	0	987.4	NA	0.0000		9999	1970	2790	0	0
2019/10/08 02:19:00	BASE	2.18	346	2.52	320	-4.3	95	-5.0	0	0	987.4	NA	0.0000		9999	2530	0	0	0
2019/10/08 02:20:00	BASE	2.25	346	2.52	320	-4.3	95	-5.0	0	0	987.3	NA	0.0000		9999	2430	2950	0	0
2019/10/08 02:21:01	BASE	2.17	345	2.52	320	-4.3	95	-5.0	0	0	987.3	NA	0.0000		9999	2330	0	0	0
2019/10/08 02:22:01	BASE	2.17	347	2.47	338	-4.4	95	-5.0	0	0	987.3	NA	0.0000		9999	2260	2950	0	0
2019/10/08 02:23:00	BASE	2.29	347	2.52	352	-4.4	95	-5.1	0	0	987.3	NA	0.0000		9999	2000	2850	0	0
2019/10/08 02:24:01	BASE	2.38	349	2.52	354	-4.4	95	-5.0	0	0	987.3	NA	0.0000		9999	1970	0	0	0
2019/10/08 02:25:00	BASE	2.41	353	2.52	354	-4.4	95	-5.0	0	0	987.3	NA	0.0000		9999	1970	0	0	0
2019/10/08 02:26:00	BASE	2.41	355	2.57	345	-4.4	96	-5.0	0	0	987.3	NA	0.0000		9999	1970	0	0	0
2019/10/08 02:27:00	BASE	2.46	355	2.78	351	-4.4	96	-5.0	0	0	987.3	NA	0.0000		9999	1970	0	0	0
2019/10/08 02:28:00	BASE	2.54	351	3.04	352	-4.4	96	-4.9	0	0	987.3	NA	0.0000		9999	1970	0	0	0
2019/10/08 02:29:00	BASE	2.59	356	3.04	352	-4.4	96	-4.9	0	0	987.3	NA	0.0000		9999	1970	0	0	0
2019/10/08 02:30:00	BASE	2.50	0	3.04	352	-4.4	96	-4.9	0	0	987.3	NA	0.0000		9999	1970	0	0	0
2019/10/08 02:31:00	BASE	2.43	2	3.04	352	-4.4	96	-4.9	0	0	987.3	NA	0.0000		9999	2000	0	0	0
2019/10/08 02:32:00	BASE	2.39	2	3.04	352	-4.3	96	-4.9	0	0	987.3	NA	0.0000		9999	1970	0	0	0
2019/10/08 02:33:00	BASE	2.04	356	3.04	352	-4.3	96	-4.9	0	0	987.3	NA	0.0000		9999	1970	0	0	0
2019/10/08 02:34:00	BASE	1.81	350	3.04	352	-4.3	96	-4.9	0	0	987.3	NA	0.0000		9999	2000	0	0	0
2019/10/08 02:35:01	BASE	2.04	346	3.04	352	-4.3	96	-4.9	0	0	987.3	NA	0.0000		9999	2030	2820	0	0
2019/10/08 02:36:00	BASE	2.28	346	3.04	352	-4.3	96	-4.8	0	0	987.3	NA	0.0000		9999	2100	0	0	0
2019/10/08 02:37:00	BASE	2.24	345	3.04	352	-4.3	96	-4.8	0	0	987.3	NA	0.0000		9999	2030	0	0	0
2019/10/08 02:38:00	BASE	2.19	339	3.29	331	-4.3	96	-4.8	0	0	987.3	NA	0.0000		9999	2070	0	0	0
2019/10/08 02:39:00	BASE	2.25	332	3.29	331	-4.3	96	-4.9	0	0	987.3	NA	0.0000		9999	2030	2850	0	0
2019/10/08 02:40:01	BASE	2.29	323	3.29	331	-4.3	95	-4.9	0	0	987.3	NA	0.0000		9999	2030	0	0	0
2019/10/08 02:41:00	BASE	2.20	322	3.29	331	-4.3	95	-4.9	0	0	987.3	NA	0.0000		9999	2070	2890	0	0
2019/10/08 02:42:01	BASE	2.47	333	3.40	327	-4.3	95	-4.9	0	0	987.3	NA	0.0000		9999	2030	2850	0	0
2019/10/08 02:43:00	BASE	3.32	334	4.68	322	-4.2	95	-4.9	0	0	987.3	NA	0.0000		9999	1970	0	0	0
2019/10/08 02:44:00	BASE	3.50	333	4.68	322	-4.2	95	-4.9	0	0	987.3	NA	0.0000		9999	1940	0	0	0
2019/10/08 02:45:00	BASE	3.19	339	4.68	322	-4.2	95	-4.9	0	0	987.3	NA	0.0000		9999	2790	0	0	0
2019/10/08 02:46:00	BASE	3.32	344	4.68	322	-4.2	95	-4.9	0	0	987.3	NA	0.0000		9999	2720	0	0	0
2019/10/08 02:47:00	BASE	3.51	346	4.68	322	-4.2	95	-4.9	0	0	987.3	NA	0.0000		9999	2000	2890	0	0
2019/10/08 02:48:01	BASE	3.54	345	4.68	322	-4.2	95	-4.9	0	0	987.3	NA	0.0000		9999	1970	2690	0	0
2019/10/08 02:49:00	BASE	3.53	344	4.68	322	-4.2	95	-4.9	0	0	987.3	NA	0.0000		9999	2170	2690	0	0
2019/10/08 02:50:00	BASE	3.46	345	4.68	322	-4.2	95	-4.9	0	0	987.3	NA	0.0000		9999	2820	0	0	0
2019/10/08 02:51:00	BASE	3.55	344	4.68	322	-4.2	95	-4.9	0	0	987.3	NA	0.0000		9999	2030	2920	0	0
2019/10/08 02:52:00	BASE	3.68	340	4.68	322	-4.2	95	-4.9	0	0	987.3	NA	0.0000		9999	2790	0	0	0
2019/10/08 02:53:00	BASE	3.80	334	4.22	325	-4.2	95	-4.9	0	0	987.3	NA	0.0000		9999	2790	0	0	0
2019/10/08 02:54:01	BASE	4.03	331	4.53	329	-4.3	95	-4.9	0	0	987.3	NA	0.0000		9999	2620	0	0	0
2019/10/08 02:55:00	BASE	4.43	335	5.45	339	-4.3	96	-4.9	0	0	987.3	NA	0.0000		9999	2620	0	0	0
2019/10/08 02:56:00	BASE	4.82	334	5.50	325	-4.3	96	-4.9	0	0	987.3	NA	0.0000		9999	2720	0	0	0
2019/10/08 02:57:01	BASE	4.85	332	5.50	325	-4.3	96	-4.8	0	0	987.3	NA	0.0000		9999	2820	0	0	0
2019/10/08 02:58:00	BASE	4.86	335	5.50	325	-4.3	96	-4.8	0	0	987.3	NA	0.0000		9999	2720	0	0	0
2019/10/08 02:59:00	BASE	5.03	339	5.71	340	-4.2	96	-4.8	0	0	987.3	NA	0.0000		9999	2790	0	0	0
2019/10/08 03:00:00	BASE	5.32	342	6.07	342	-4.2	96	-4.8	0	0	987.3	NA	0.0000		9999	2850	0	0	0
2019/10/08 03:01:00	BASE	5.75	340	6.17	341	-4.2	96	-4.7	0	0	987.3	NA	0.0000		9999	2820	0	0	0
2019/10/08 03:02:01	BASE	5.66	340	6.17	341	-4.2	96	-4.7	0	0	987.3	NA	0.0000		9999	2720	0	0	0
2019/10/08 03:03:00	BASE	5.38	338	6.17	341	-4.2	96	-4.7	0	0	987.3	NA	0.0000		9999	2850	0	0	0
2019/10/08 03:04:00	BASE	5.25	339	6.17	341	-4.2	96	-4.7	0	0	987.3	NA	0.0000		9999	2760	0	0	0
2019/10/08 03:05:00	BASE	4.98	340	6.17	341	-4.2	96	-4.8	0	0	987.3	NA	0.0000		9999	2790	0	0	0
2019/10/08 03:06:00	BASE	5.01	338	6.17	341	-4.2	96	-4.8	0	0	987.3	NA	0.0000		9999	2920	0	0	0
2019/10/08 03:07:00	BASE	5.32	334	6.17	341	-4.3	96	-4.8	0	0	987.3	NA	0.0000		9999	2690	0	0	0
2019/10/08 03:08:01	BASE	5.57	329	6.17	341	-4.3	96	-4.8	0	0	987.2	NA	0.0000		9999	2690	0	0	0
2019/10/08 03:09:00	BASE	5.37	326	6.17	341	-4.3	96	-4.8	0	0	987.2	NA	0.0000		9999	2820	0	0	0
2019/10/08 03:10:00	BASE	5.03	327	6.17	341	-4.3	96	-4.8	0	0	987.2	NA	0.0000		9999	2720	0	0	0
2019/10/08 03:11:00	BASE	4.96	325	6.12	324	-4.3	97	-4.8	0	0	987.2	NA	0.0000		9999	2790	0	0	0
2019/10/08 03:12:00	BASE	4.79	324	6.12	324	-4.3	97	-4.7	0	0	987.2	NA	0.0000		9999	2820	0	0	0
2019/10/08 03:13:00	BASE	4.60	326	6.12	324	-4.3	97	-4.7	0	0	987.2	NA	0.0000		9999	2760	0	0	0
2019/10/08 03:14:00	BASE	4.43	327	6.12	324	-4.3	97	-4.7	0	0	987.2	NA	0.0000		9999	2890	0	0	0
2019/10/08 03:15:00	BASE	4.24	328	6.12	324	-4.3	97	-4.7	0	0	987.2	NA	0.0000		9999	2760	0	0	0
2019/10/08 03:16:00	BASE	4.08	329	6.12	324	-4.4	97	-4.8	0	0	987.2	NA	0.0000		9999	2820	0	0	0
2019/10/08 03:17:00	BASE	3.94	329	6.12	324	-4.4	97	-4.8	0	0	987.1	NA	0.0000		9999	2760	0	0	0
2019/10/08 03:18:00	BASE	3.85	329	5.35	318	-4.4	97	-4.8	0	0	987.1	NA	0.0000		9999	2790	0	0	0
2019/10/08 03:19:00	BASE	3.66	330	5.30	320	-4.4	97	-4.8	0	0	987.1	NA	0.0000		9999	2850	0	0	0
2019/10/08 03:20:00	BASE	3.45	326	5.30	320	-4.4	97	-4.8	0	0	987.1	NA	0.0000		9999	2890	0	0	0
2019/10/08 03:21:00	BASE	3.26	320	4.94	317	-4.4	97	-4.7	0	0	987.1	NA	0.0000		9999	2820	0	0	0
2019/10/08 03:22:00	BASE	3.24	313	4.78	331	-4.4	98	-4.7	0	0	987.1	NA	0.0000		9999	2720	0	0	0
2019/10/08 03:23:00	BASE	3.23	308	4.78	331	-4.4	98	-4.7	0	0	987.1	NA	0.0000		9999	2660	0	0	0
2019/10/08 03:24:00	BASE	3.26	306	4.58	328	-4.4	98	-4.7	0	0	987.1	NA	0.0000		9999	2850	0	0	0
2019/10/08 03:25:00	BASE	3.49	305	4.27	331	-4.4	98	-4.7	0	0	987.1	NA	0.0000		9999	2720	0	0	0
2019/10/08 03:26:01	BASE	3.45	305	4.27	331	-4.4	98	-4.7	0	0	987.1	NA	0.0000		9999	2720	0	0	0
2019/10/08 03:27:00	BASE	3.33	305	4.06	337	-4.4	98	-4.7	0	0	987.1	NA	0.0000		9999	2790	0	0	0
2019/10/08 03:28:01	BASE	3.38	304	3.91	303	-4.4	98	-4.7	0	0	987.1	NA	0.0000		9999	2790	0	0	0
2019/10/08 03:29:00	BASE	3.29	304	3.91	303	-4.4	98	-4.6	0	0	987.1	NA	0.0000		9999	2260	2720	0	0
2019/10/08 03:30:00	BASE	3.07	304	3.91	303	-4.4	99	-4.6	0	0	987.1	NA	0.0000		9999	2720	0	0	0
2019/10/08 03:31:00	BASE	2.90	305	3.91	303	-4.4	99	-4.6	0	0	987.1	NA	0.0000		9999	2720	0	0	0
2019/10/08 03:32:00	BASE	2.64	314	3.91	303	-4.4	99	-4.6	0	0	987.1	NA	0.0000		9999	2660	0	0	0
2019/10/08 03:33:00	BASE	2.46	321	3.91	303	-4.5	99	-4.6	0	0	987.1	NA	0.0000		9999	2690	0	0	0
2019/10/08 03:34:00	BASE	2.48	322	3.91	303	-4.5	99	-4.6	0	0	987.1	NA	0.0000		9999	2760	0	0	0
2019/10/08 03:35:00	BASE	2.66	319	3.76	303	-4.5	100	-4.5	0	0	987.1	NA	0.0000		9999	2720	0	0	0
2019/10/08 03:36:00	BASE	2.97	318	3.76	303	-4.5	100	-4.5	0	0	987.1	NA	0.0000		9999	2690	0	0	0
2019/10/08 03:37:00	BASE	3.13	319	3.76	303	-4.5	100	-4.5	0	0	987.1	NA	0.0000		9999	2720	0	0	0
2019/10/08 03:38:00	BASE	2.96	320	3.55	303	-4.5	100	-4.5	0	0	987.1	NA	0.0000		9999	2690	0	0	0
2019/10/08 03:39:00	BASE	2.76	322	3.45	316	-4.5	100	-4.5	0	0	987.0	NA	0.0000		9999	2690	0	0	0
2019/10/08 03:40:00	BASE	2.70	321	3.45	316	-4.5	100	-4.5	0	0	987.0	NA	0.0000		9999	2720	0	0	0
2019/10/08 03:41:00	BASE	2.55	319	3.45	316	-4.5	100	-4.5	0	0	987.0	NA	0.0000		9999	2690	0	0	0
2019/10/08 03:42:00	BASE	2.35	319	3.45	316	-4.5	100	-4.5	0	0	987.0	NA	0.0000		9999	2720	0	0	0
2019/10/08 03:43:00	BASE	2.14	320	3.45	316	-4.5	100	-4.5	0	0	987.0	NA	0.0000		9999	2620	0	0	0
2019/10/08 03:44:01	BASE	1.94	320	3.45	316	-4.5	100	-4.5	0	0	987.0	NA	0.0000		9999	2490	0	0	0
2019/10/08 03:45:00	BASE	1.92	318	3.45	316	-4.5	100	-4.5	0	0	987.0	NA	0.0000		9999	2460	0	0	0
2019/10/08 03:46:01	BASE	2.07	315	3.29	316	-4.5	100	-4.5	0	0	987.0	NA	0.0000		9999	2490	0	0	0
2019/10/08 03:47:00	BASE	2.31	315	3.09	316	-4.5	100	-4.5	0	0	987.0	NA	0.0000		9999	2490	0	0	0
2019/10/08 03:48:00	BASE	2.69	321	3.09	326	-4.5	100	-4.5	0	0	987.0	NA	0.0000		9999	2590	0	0	0
2019/10/08 03:49:00	BASE	3.02	323	3.29	327	-4.5	100	-4.5	0	0	987.0	NA	0.0000		9999	2620	0	0	0
2019/10/08 03:50:00	BASE	3.22	324	3.60	325	-4.5	100	-4.5	0	0	987.0	NA	0.0000		9999	2590	0	0	0
2019/10/08 03:51:00	BASE	3.24	325	3.60	325	-4.5	100	-4.5	0	0	987.0	NA	0.0000		9999	2620	0	0	0
2019/10/08 03:52:00	BASE	3.16	324	3.60	325	-4.5	100	-4.5	0	0	987.0	NA	0.0000		9999	2760	0	0	0
2019/10/08 03:53:00	BASE	2.90	326	3.60	325	-4.5	100	-4.5	0	0	987.0	NA	0.0000		9999	2620	0	0	0
2019/10/08 03:54:00	BASE	2.73	326	3.60	325	-4.5	100	-4.5	0	0	987.0	NA	0.0000		9999	2530	0	0	0
2019/10/08 03:55:00	BASE	2.83	323	3.60	325	-4.5	100	-4.5	0	0	987.1	NA	0.0000		9999	2620	0	0	0
2019/10/08 03:56:01	BASE	2.84	322	3.60	325	-4.5	100	-4.5	0	0	987.1	NA	0.0000		9999	2660	0	0	0
2019/10/08 03:57:00	BASE	2.70	327	3.60	325	-4.5	100	-4.5	0	0	987.1	NA	0.0000		9999	2460	0	0	0
2019/10/08 03:58:00	BASE	2.64	330	3.60	325	-4.5	100	-4.5	0	0	987.1	NA	0.0000		9999	2560	0	0	0
2019/10/08 03:59:00	BASE	2.73	327	3.60	325	-4.5	100	-4.5	0	0	987.1	NA	0.0000		9999	2590	0	0	0
2019/10/08 04:00:00	BASE	2.90	325	3.55	324	-4.5	100	-4.5	0	0	987.1	NA	0.0000		9999	2330	0	0	0
2019/10/08 04:01:00	BASE	3.09	322	3.40	310	-4.5	100	-4.5	0	0	987.1	NA	0.0000		9999	2330	0	0	0
2019/10/08 04:02:00	BASE	3.11	322	3.40	310	-4.5	100	-4.5	0	0	987.1	NA	0.0000		9999	2430	0	0	0
2019/10/08 04:03:00	BASE	2.95	329	3.40	310	-4.5	100	-4.5	0	0	987.1	NA	0.0000		9999	2560	0	0	0
2019/10/08 04:04:00	BASE	2.99	329	3.40	326	-4.5	100	-4.5	0	0	987.1	NA	0.0000		9999	2530	0	0	0
2019/10/08 04:05:00	BASE	3.02	326	3.40	326	-4.5	100	-4.5	0	0	987.1	NA	0.0000		9999	2460	0	0	0
2019/10/08 04:06:00	BASE	2.93	332	3.40	326	-4.5	100	-4.5	0	0	987.1	NA	0.0000		9999	2360	0	0	0
2019/10/08 04:07:00	BASE	2.81	336	3.40	326	-4.5	100	-4.5	0	0	987.0	NA	0.0000		9999	2260	0	0	0
2019/10/08 04:08:00	BASE	2.64	337	3.40	326	-4.5	100	-4.5	0	0	987.0	NA	0.0000		9999	2200	0	0	0
2019/10/08 04:09:00	BASE	2.71	339	3.40	326	-4.5	100	-4.5	0	0	987.0	NA	0.0000		9999	2100	0	0	0
2019/10/08 04:10:00	BASE	2.88	340	3.40	326	-4.5	100	-4.5	0	0	987.0	NA	0.0000		9999	2170	0	0	0
2019/10/08 04:11:00	BASE	2.80	338	3.40	326	-4.5	100	-4.5	0	0	987.0	NA	0.0000		9999	2230	0	0	0
2019/10/08 04:12:00	BASE	2.85	340	3.40	326	-4.5	100	-4.5	0	0	986.9	NA	0.0000		9999	2170	0	0	0
2019/10/08 04:13:00	BASE	3.11	340	3.40	336	-4.5	100	-4.5	0	0	986.8	NA	0.0000		9999	2330	0	0	0
2019/10/08 04:14:00	BASE	3.36	337	3.81	339	-4.5	100	-4.5	0	0	986.8	NA	0.0000		9999	2560	0	0	0
2019/10/08 04:15:00	BASE	3.62	334	3.91	335	-4.5	100	-4.5	0	0	986.8	NA	0.0000		9999	2460	0	0	0
2019/10/08 04:16:00	BASE	3.72	333	3.96	329	-4.5	100	-4.5	0	0	986.8	NA	0.0000		9999	2400	0	0	0
2019/10/08 04:17:00	BASE	3.64	332	3.96	329	-4.5	100	-4.5	0	0	986.8	NA	0.0000		9999	2430	0	0	0
2019/10/08 04:18:00	BASE	3.23	330	3.96	329	-4.5	100	-4.5	0	0	986.8	NA	0.0000		9999	2400	0	0	0
2019/10/08 04:19:00	BASE	3.14	328	3.96	329	-4.5	100	-4.5	0	0	986.8	NA	0.0000		9999	2260	0	0	0
2019/10/08 04:20:00	BASE	3.14	329	3.96	329	-4.5	100	-4.5	0	0	986.8	NA	0.0000		9999	1870	0	0	0
2019/10/08 04:21:00	BASE	2.90	331	3.96	329	-4.5	100	-4.5	0	0	986.8	NA	0.0000		9999	2330	0	0	0
2019/10/08 04:22:00	BASE	2.83	329	3.96	329	-4.4	100	-4.5	0	0	986.8	NA	0.0000		9999	2260	0	0	0
2019/10/08 04:23:00	BASE	2.73	327	3.96	329	-4.5	100	-4.5	0	0	986.8	NA	0.0000		9999	2230	0	0	0
2019/10/08 04:24:00	BASE	2.63	328	3.96	329	-4.5	100	-4.5	0	0	986.8	NA	0.0000		9999	2300	0	0	0
2019/10/08 04:25:00	BASE	2.46	332	3.96	329	-4.4	100	-4.4	0	0	986.8	NA	0.0000		9999	1640	0	0	0
2019/10/08 04:26:00	BASE	2.29	334	3.91	330	-4.4	100	-4.4	0	0	986.8	NA	0.0000		9999	1570	2070	0	0
2019/10/08 04:27:00	BASE	2.52	334	3.55	328	-4.4	100	-4.4	0	0	986.8	NA	0.0000		9999	1150	0	0	0
2019/10/08 04:28:00	BASE	2.64	333	3.55	328	-4.4	100	-4.4	0	0	986.8	NA	0.0000		9999	790	2130	0	0
2019/10/08 04:29:00	BASE	2.82	334	3.24	337	-4.4	100	-4.4	0	0	986.7	NA	0.0000		9999	620	2100	0	0
2019/10/08 04:30:00	BASE	3.25	332	3.76	328	-4.4	100	-4.4	0	0	986.7	NA	0.0000		9999	2030	0	0	0
2019/10/08 04:31:00	BASE	3.34	327	3.76	322	-4.4	100	-4.4	0	0	986.7	NA	0.0000		9999	1840	0	0	0
2019/10/08 04:32:00	BASE	3.39	325	3.76	322	-4.4	100	-4.4	0	0	986.7	NA	0.0000		9999	1610	0	0	0
2019/10/08 04:33:00	BASE	3.39	328	3.76	322	-4.4	100	-4.4	0	0	986.7	NA	0.0000		9999	850	2130	0	0
2019/10/08 04:34:00	BASE	3.15	330	3.76	322	-4.4	100	-4.4	0	0	986.7	NA	0.0000		9999	820	2230	0	0
2019/10/08 04:35:00	BASE	2.77	331	3.76	322	-4.4	100	-4.4	0	0	986.7	NA	0.0000		9999	790	0	0	0
2019/10/08 04:36:00	BASE	2.33	337	3.76	322	-4.4	100	-4.4	0	0	986.7	NA	0.0000		9999	1050	2260	0	0
2019/10/08 04:37:00	BASE	2.05	344	3.76	322	-4.4	100	-4.4	0	0	986.7	NA	0.0000		9999	1180	2200	0	0
2019/10/08 04:38:00	BASE	1.85	348	3.76	322	-4.4	100	-4.4	0	0	986.7	NA	0.0000		9999	2230	0	0	0
2019/10/08 04:39:00	BASE	1.33	352	3.76	322	-4.4	100	-4.4	0	0	986.7	NA	0.0000		9999	2030	0	0	0
2019/10/08 04:40:00	BASE	0.75	358	3.76	322	-4.4	100	-4.4	0	0	986.7	NA	0.0000		9999	2230	0	0	0
2019/10/08 04:41:00	BASE	0.29	4	3.70	330	-4.4	100	-4.4	0	0	986.7	NA	0.0000		9999	2130	0	0	0
2019/10/08 04:42:00	BASE	0.00	6	3.45	334	-4.4	100	-4.4	0	0	986.7	NA	0.0000		9999	2030	0	0	0
2019/10/08 04:43:00	BASE	0.09	13	3.14	324	-4.4	100	-4.4	0	0	986.7	NA	0.0000		9999	560	0	0	0
2019/10/08 04:44:00	BASE	0.73	19	2.88	334	-4.4	100	-4.4	0	0	986.7	NA	0.0000		9999	2400	0	0	0
2019/10/08 04:45:00	BASE	1.40	25	2.42	337	-4.4	100	-4.4	0	0	986.7	NA	0.0000		9999	2230	0	0	0
2019/10/08 04:46:00	BASE	1.62	32	2.06	348	-4.4	100	-4.4	0	0	986.7	NA	0.0000		9999	2100	0	0	0
2019/10/08 04:47:00	BASE	1.81	34	2.01	35	-4.4	100	-4.4	0	0	986.7	NA	0.0000		9999	1840	0	0	0
2019/10/08 04:48:00	BASE	2.02	35	2.26	32	-4.4	100	-4.4	0	0	986.6	NA	0.0000		9999	1710	0	0	0
2019/10/08 04:49:00	BASE	2.08	32	2.26	32	-4.4	100	-4.4	0	0	986.6	NA	0.0000		9999	1640	0	0	0
2019/10/08 04:50:00	BASE	1.93	29	2.26	32	-4.4	100	-4.4	0	0	986.6	NA	0.0000		9999	1570	0	0	0
2019/10/08 04:51:00	BASE	1.91	26	2.26	32	-4.4	100	-4.4	0	0	986.6	NA	0.0000		9999	1900	0	0	0
2019/10/08 04:52:00	BASE	1.97	20	2.26	32	-4.4	100	-4.4	0	0	986.6	NA	0.0000		9999	1440	0	0	0
2019/10/08 04:53:00	BASE	2.01	13	2.42	8	-4.4	100	-4.4	0	0	986.6	NA	0.0000		9999	2000	0	0	0
2019/10/08 04:54:00	BASE	2.05	8	2.42	8	-4.4	100	-4.4	0	0	986.6	NA	0.0000		9999	1940	0	0	0
2019/10/08 04:55:00	BASE	1.93	6	2.42	8	-4.4	100	-4.4	0	0	986.6	NA	0.0000		9999	1410	0	0	0
2019/10/08 04:56:00	BASE	1.82	2	2.42	8	-4.4	100	-4.4	0	0	986.6	NA	0.0000		9999	1970	0	0	0
2019/10/08 04:57:00	BASE	1.69	359	2.42	8	-4.4	100	-4.4	0	0	986.6	NA	0.0000		9999	2000	0	0	0
2019/10/08 04:58:00	BASE	1.57	359	2.42	8	-4.4	100	-4.4	0	0	986.6	NA	0.0000		9999	1870	0	0	0
2019/10/08 04:59:00	BASE	1.52	2	2.42	8	-4.4	100	-4.4	0	0	986.6	NA	0.0000		9999	1900	0	0	0
2019/10/08 05:00:00	BASE	1.45	3	2.42	8	-4.4	100	-4.4	0	0	986.6	NA	0.0000		9999	660	1900	0	0
2019/10/08 05:01:00	BASE	1.46	4	2.42	8	-4.4	100	-4.4	0	0	986.6	NA	0.0000		9999	660	1840	0	0
2019/10/08 05:02:00	BASE	1.61	9	2.42	8	-4.4	100	-4.4	0	0	986.6	NA	0.0000		9999	620	0	0	0
2019/10/08 05:03:00	BASE	1.69	14	2.21	2	-4.4	100	-4.4	0	0	986.6	NA	0.0000		9999	1770	0	0	0
2019/10/08 05:04:00	BASE	1.65	10	2.16	2	-4.4	100	-4.4	0	0	986.6	NA	0.0000		9999	1710	0	0	0
2019/10/08 05:05:00	BASE	1.53	7	1.90	9	-4.4	100	-4.4	0	0	986.6	NA	0.0000		9999	1800	0	0	0
2019/10/08 05:06:00	BASE	1.41	8	1.90	9	-4.4	100	-4.4	0	0	986.6	NA	0.0000		9999	1770	0	0	0
2019/10/08 05:07:00	BASE	1.39	9	1.90	9	-4.4	100	-4.4	0	0	986.6	NA	0.0000		9999	620	0	0	0
2019/10/08 05:08:00	BASE	1.32	11	1.90	9	-4.4	100	-4.4	0	0	986.6	NA	0.0000		9999	590	0	0	0
2019/10/08 05:09:00	BASE	1.36	4	1.90	9	-4.4	100	-4.4	0	0	986.6	NA	0.0000		9999	1770	0	0	0
2019/10/08 05:10:00	BASE	1.40	356	1.90	9	-4.4	100	-4.4	0	0	986.6	NA	0.0000		9999	1740	0	0	0
2019/10/08 05:11:00	BASE	1.31	354	1.90	9	-4.4	100	-4.4	0	0	986.6	NA	0.0000		9999	1740	0	0	0
2019/10/08 05:12:00	BASE	1.26	350	1.90	9	-4.4	100	-4.4	0	0	986.6	NA	0.0000		9999	1670	0	0	0
2019/10/08 05:13:00	BASE	1.21	345	1.90	9	-4.4	100	-4.4	0	0	986.5	NA	0.0000		9999	1570	0	0	0
2019/10/08 05:14:00	BASE	0.69	344	1.65	355	-4.4	100	-4.4	0	0	986.5	NA	0.0000		9999	1570	0	0	0
2019/10/08 05:15:00	BASE	0.09	347	1.65	355	-4.4	100	-4.4	0	0	986.6	NA	0.0000		9999	1570	0	0	0
2019/10/08 05:16:00	BASE	0.00	345	1.65	355	-4.4	100	-4.4	0	0	986.6	NA	0.0000		9999	1540	0	0	0
2019/10/08 05:17:00	BASE	0.00	334	1.65	355	-4.4	100	-4.4	0	0	986.5	NA	0.0000		9999	1510	0	0	0
2019/10/08 05:18:00	BASE	0.05	324	1.65	355	-4.4	100	-4.4	0	0	986.5	NA	0.0000		9999	1350	0	0	0
2019/10/08 05:19:00	BASE	0.05	323	1.54	351	-4.4	100	-4.4	0	0	986.5	NA	0.0000		9999	1180	0	0	0
2019/10/08 05:20:00	BASE	0.00	326	1.54	351	-4.4	100	-4.4	0	0	986.5	NA	0.0000		9999	1540	0	0	0
2019/10/08 05:21:00	BASE	0.00	327	1.34	351	-4.4	100	-4.4	0	0	986.5	NA	0.0000		9999	1510	0	0	0
2019/10/08 05:22:00	BASE	0.00	324	1.34	351	-4.5	100	-4.5	0	0	986.5	NA	0.0000		9999	1510	0	0	0
2019/10/08 05:23:00	BASE	0.00	321	1.13	337	-4.5	100	-4.5	0	0	986.5	NA	0.0000		9999	1440	0	0	0
2019/10/08 05:24:00	BASE	0.00	325	1.08	327	-4.5	100	-4.5	0	0	986.5	NA	0.0000		9999	1480	0	0	0
2019/10/08 05:25:00	BASE	0.00	333	1.08	327	-4.4	100	-4.4	0	0	986.5	NA	0.0000		9999	1410	0	0	0
2019/10/08 05:26:00	BASE	0.00	346	1.08	327	-4.4	100	-4.4	0	0	986.5	NA	0.0000		9999	950	0	0	0
2019/10/08 05:27:00	BASE	0.00	359	1.08	327	-4.5	100	-4.5	0	0	986.5	NA	0.0000		9999	620	0	0	0
2019/10/08 05:28:00	BASE	0.09	11	1.08	22	-4.5	100	-4.5	0	0	986.5	NA	0.0000		9999	460	1380	0	0
2019/10/08 05:29:00	BASE	0.71	23	1.39	28	-4.5	100	-4.5	0	0	986.5	NA	0.0000		9000	430	1350	0	0
2019/10/08 05:30:00	BASE	1.36	31	1.65	35	-4.5	100	-4.5	0	0	986.5	NA	0.0000		8000	430	0	0	0
2019/10/08 05:31:00	BASE	1.54	35	1.75	35	-4.5	100	-4.5	0	0	986.5	NA	0.0000	BR	8000	430	0	0	0
2019/10/08 05:32:00	BASE	1.60	36	1.75	35	-4.5	100	-4.5	0	0	986.5	NA	0.0000	BR	8000	460	0	0	0
2019/10/08 05:33:00	BASE	1.56	38	1.75	35	-4.5	100	-4.5	0	0	986.5	NA	0.0000	BR	9000	460	0	0	0
2019/10/08 05:34:00	BASE	1.59	37	1.80	40	-4.5	100	-4.5	0	0	986.5	NA	0.0000	BR	9999	460	0	0	0
2019/10/08 05:35:00	BASE	1.69	37	1.85	38	-4.5	100	-4.5	0	0	986.5	NA	0.0000	BR	9999	460	0	0	0
2019/10/08 05:36:00	BASE	1.77	41	2.06	56	-4.5	100	-4.5	0	0	986.5	NA	0.0000	BR	9000	430	0	0	0
2019/10/08 05:37:00	BASE	1.84	49	2.11	48	-4.5	100	-4.5	0	0	986.5	NA	0.0000	BR	9999	430	0	0	0
2019/10/08 05:38:00	BASE	1.96	49	2.16	47	-4.5	100	-4.5	0	0	986.4	NA	0.0000	BR	9999	430	0	0	0
2019/10/08 05:39:00	BASE	1.95	41	2.16	47	-4.5	100	-4.5	0	0	986.4	NA	0.0000	BR	9000	390	0	0	0
2019/10/08 05:40:00	BASE	1.84	37	2.16	47	-4.5	100	-4.5	0	0	986.4	NA	0.0000	BR	9000	390	1310	0	0
2019/10/08 05:41:00	BASE	1.68	31	2.16	47	-4.5	100	-4.5	0	0	986.4	NA	0.0000	BR	9000	430	1180	0	0
2019/10/08 05:42:00	BASE	1.55	20	2.16	47	-4.5	100	-4.5	0	0	986.4	NA	0.0000	BR	9000	390	0	0	0
2019/10/08 05:43:00	BASE	1.63	18	2.16	47	-4.5	100	-4.5	0	0	986.4	NA	0.0000	BR	9000	390	0	0	0
2019/10/08 05:44:00	BASE	1.53	17	2.16	47	-4.5	100	-4.5	0	0	986.4	NA	0.0000	BR	9000	390	0	0	0
2019/10/08 05:45:00	BASE	1.33	15	2.16	47	-4.5	100	-4.5	0	0	986.4	NA	0.0000	BR	9000	390	0	0	0
2019/10/08 05:46:00	BASE	1.19	11	2.16	47	-4.5	100	-4.5	0	0	986.4	NA	0.0000	BR	9999	390	0	0	0
2019/10/08 05:47:00	BASE	1.31	4	2.16	47	-4.5	100	-4.5	0	0	986.4	NA	0.0000	BR	9000	390	0	0	0
2019/10/08 05:48:00	BASE	1.52	1	2.11	41	-4.5	100	-4.5	0	0	986.3	NA	0.0000	BR	9000	390	0	0	0
2019/10/08 05:49:00	BASE	1.47	5	2.06	39	-4.5	100	-4.5	0	0	986.3	NA	0.0000	BR	8000	430	0	0	0
2019/10/08 05:50:00	BASE	1.57	11	1.90	16	-4.5	100	-4.5	0	0	986.3	NA	0.0000	BR	8000	430	0	0	0
2019/10/08 05:51:00	BASE	1.90	10	2.21	3	-4.5	100	-4.5	0	0	986.3	NA	0.0000	BR	9000	430	0	0	0
2019/10/08 05:52:00	BASE	2.15	6	2.31	5	-4.5	100	-4.5	0	0	986.3	NA	0.0000	BR	7000	360	0	0	0
2019/10/08 05:53:00	BASE	2.20	6	2.31	6	-4.5	100	-4.5	0	0	986.3	NA	0.0000	BR	5000	330	0	0	0
2019/10/08 05:54:00	BASE	2.19	5	2.31	1	-4.5	100	-4.5	0	0	986.3	NA	0.0000	BR	6000	360	0	0	0
2019/10/08 05:55:00	BASE	2.17	5	2.42	7	-4.5	100	-4.5	0	0	986.3	NA	0.0000	BR	8000	430	0	0	0
2019/10/08 05:56:00	BASE	2.14	3	2.42	7	-4.4	100	-4.4	0	0	986.2	NA	0.0000	BR	9999	620	0	0	0
2019/10/08 05:57:00	BASE	2.07	2	2.42	7	-4.4	100	-4.4	0	0	986.2	NA	0.0000	BR	9999	460	0	0	0
2019/10/08 05:58:00	BASE	1.95	3	2.42	7	-4.4	100	-4.4	0	0	986.2	NA	0.0000	BR	9999	390	0	0	0
2019/10/08 05:59:00	BASE	1.81	357	2.42	7	-4.5	100	-4.5	0	0	986.2	NA	0.0000	BR	7000	330	0	0	0
2019/10/08 06:00:00	BASE	1.62	350	2.42	7	-4.5	100	-4.5	0	0	986.2	NA	0.0000	BR	6000	300	0	0	0
2019/10/08 06:01:00	BASE	1.66	347	2.42	7	-4.5	100	-4.5	0	0	986.2	NA	0.0000	BR	5000	300	0	0	0
2019/10/08 06:02:00	BASE	1.83	344	2.42	7	-4.5	100	-4.5	0	0	986.2	NA	0.0000	BR	4500	300	0	0	0
2019/10/08 06:03:00	BASE	1.95	347	2.42	7	-4.5	100	-4.5	0	0	986.2	NA	0.0000	BR	4200	300	1080	0	0
2019/10/08 06:04:00	BASE	1.90	349	2.42	7	-4.5	100	-4.5	0	0	986.1	NA	0.0000	BR	5000	330	0	0	0
2019/10/08 06:05:00	BASE	1.65	346	2.31	1	-4.5	100	-4.5	0	0	986.0	NA	0.0000	BR	6000	390	1080	0	0
2019/10/08 06:06:00	BASE	1.59	349	2.21	355	-4.5	100	-4.5	0	0	986.0	NA	0.0000	BR	6000	390	2130	0	0
2019/10/08 06:07:00	BASE	1.56	354	2.21	355	-4.5	100	-4.5	0	0	986.0	NA	0.0000	BR	7000	1120	2330	0	0
2019/10/08 06:08:00	BASE	1.24	352	2.21	355	-4.5	100	-4.5	0	0	986.0	NA	0.0000	BR	9000	980	1640	0	0
2019/10/08 06:09:00	BASE	0.61	349	2.21	355	-4.5	100	-4.5	0	0	986.0	NA	0.0000	BR	9000	1020	0	0	0
2019/10/08 06:10:00	BASE	0.09	349	2.21	355	-4.5	100	-4.5	0	0	986.0	NA	0.0000	BR	9999	920	0	0	0
2019/10/08 06:11:00	BASE	0.00	344	2.21	355	-4.6	100	-4.6	0	0	986.0	NA	0.0000	BR	9999	720	0	0	0
2019/10/08 06:12:00	BASE	0.00	339	2.21	355	-4.6	100	-4.6	0	0	986.0	NA	0.0000	BR	9999	790	0	0	0
2019/10/08 06:13:00	BASE	0.00	338	2.01	351	-4.6	100	-4.6	0	0	986.0	NA	0.0000	BR	9999	360	920	0	0
2019/10/08 06:14:00	BASE	0.00	341	1.85	352	-4.6	100	-4.6	0	0	986.0	NA	0.0000	BR	9999	390	920	0	0
2019/10/08 06:15:00	BASE	0.00	342	1.85	352	-4.6	100	-4.6	0	0	986.0	NA	0.0000	BR	9999	390	0	0	0
2019/10/08 06:16:00	BASE	0.00	342	1.54	3	-4.6	100	-4.6	0	0	986.0	NA	0.0000		9999	890	0	0	0
2019/10/08 06:17:00	BASE	0.04	342	1.29	351	-4.6	100	-4.6	0	0	986.0	NA	0.0000		9999	890	2460	0	0
2019/10/08 06:18:00	BASE	0.22	346	1.13	349	-4.6	100	-4.6	0	0	986.0	NA	0.0000		9999	920	0	0	0
2019/10/08 06:19:00	BASE	0.18	351	1.13	349	-4.6	100	-4.6	0	0	986.0	NA	0.0000		9999	890	0	0	0
2019/10/08 06:20:00	BASE	0.00	352	1.13	349	-4.6	100	-4.6	0	0	986.0	NA	0.0000		9999	890	2170	0	0
2019/10/08 06:21:00	BASE	0.00	351	1.13	349	-4.6	100	-4.6	0	0	986.0	NA	0.0000		9999	890	0	0	0
2019/10/08 06:22:01	BASE	0.00	359	1.13	349	-4.6	100	-4.6	0	0	986.0	NA	0.0000		9999	980	0	0	0
2019/10/08 06:23:00	BASE	0.00	7	1.13	349	-4.6	100	-4.6	0	0	986.0	NA	0.0000		9999	920	0	0	0
2019/10/08 06:24:00	BASE	0.00	15	1.13	349	-4.6	100	-4.6	0	0	986.0	NA	0.0000		9999	920	0	0	0
2019/10/08 06:25:00	BASE	0.00	26	1.13	349	-4.6	100	-4.6	0	0	986.0	NA	0.0000		9999	950	0	0	0
2019/10/08 06:26:00	BASE	0.00	38	1.13	349	-4.6	100	-4.6	0	0	986.0	NA	0.0000		9999	920	0	0	0
2019/10/08 06:27:00	BASE	0.00	47	1.13	349	-4.6	100	-4.6	0	0	986.0	NA	0.0000		9999	920	2130	0	0
2019/10/08 06:28:00	BASE	0.00	48	M	M	-4.6	100	-4.6	0	0	986.0	NA	0.0000		9999	850	1540	0	0
2019/10/08 06:29:00	BASE	0.00	48	M	M	-4.6	100	-4.6	0	0	986.0	NA	0.0000		9999	890	0	0	0
2019/10/08 06:30:00	BASE	0.00	48	M	M	-4.6	100	-4.6	0	0	985.9	NA	0.0000		9999	890	0	0	0
2019/10/08 06:31:00	BASE	0.00	44	M	M	-4.6	100	-4.6	0	0	985.9	NA	0.0000		9999	890	0	0	0
2019/10/08 06:32:01	BASE	0.00	36	M	M	-4.6	100	-4.6	0	0	985.8	NA	0.0000		9999	890	0	0	0
2019/10/08 06:33:01	BASE	0.00	24	M	M	-4.6	100	-4.6	0	0	985.8	NA	0.0000		9999	920	0	0	0
2019/10/08 06:34:00	BASE	0.00	12	M	M	-4.6	100	-4.6	0	0	985.8	NA	0.0000		9999	920	0	0	0
2019/10/08 06:35:00	BASE	0.37	5	1.18	1	-4.6	100	-4.6	0	0	985.8	NA	0.0000		9999	890	0	0	0
2019/10/08 06:36:00	BASE	0.80	1	1.34	1	-4.6	100	-4.6	0	0	985.8	NA	0.0000		9999	890	0	0	0
2019/10/08 06:37:00	BASE	0.43	1	1.34	1	-4.6	100	-4.6	0	0	985.9	NA	0.0000		9999	820	0	0	0
2019/10/08 06:38:00	BASE	0.00	3	1.34	1	-4.6	100	-4.6	0	0	985.9	NA	0.0000		9999	590	0	0	0
2019/10/08 06:39:00	BASE	0.00	7	1.34	1	-4.6	100	-4.6	0	0	985.8	NA	0.0000		9999	490	0	0	0
2019/10/08 06:40:01	BASE	0.00	10	1.34	1	-4.6	100	-4.6	0	0	985.8	NA	0.0000		9999	590	0	0	0
2019/10/08 06:41:00	BASE	0.14	17	1.34	1	-4.6	100	-4.6	0	0	985.8	NA	0.0000		9999	620	2070	0	0
2019/10/08 06:42:00	BASE	0.76	23	1.39	15	-4.6	100	-4.6	0	0	985.8	NA	0.0000		9999	590	0	0	0
2019/10/08 06:43:00	BASE	1.22	23	1.39	27	-4.6	100	-4.6	0	0	985.8	NA	0.0000		9999	460	0	0	0
2019/10/08 06:44:00	BASE	1.28	20	1.49	8	-4.6	100	-4.6	0	0	985.8	NA	0.0000		9999	430	0	0	0
2019/10/08 06:45:00	BASE	1.38	13	1.54	1	-4.6	100	-4.6	0	0	985.7	NA	0.0000		9999	390	0	0	0
2019/10/08 06:46:01	BASE	1.39	8	1.54	7	-4.6	100	-4.6	0	0	985.7	NA	0.0000		9999	430	0	0	0
2019/10/08 06:47:01	BASE	1.40	5	1.59	1	-4.6	100	-4.6	0	0	985.7	NA	0.0000		9999	430	0	0	0
2019/10/08 06:48:00	BASE	1.50	2	1.80	354	-4.6	100	-4.6	0	0	985.7	NA	0.0000		9999	390	0	0	0
2019/10/08 06:49:00	BASE	1.62	2	1.85	2	-4.6	100	-4.6	0	0	985.7	NA	0.0000		9999	390	0	0	0
2019/10/08 06:50:00	BASE	1.68	358	1.95	353	-4.6	100	-4.6	0	0	985.7	NA	0.0000		9999	390	1870	0	0
2019/10/08 06:51:00	BASE	1.85	347	2.37	348	-4.6	100	-4.6	0	0	985.7	NA	0.0000		9999	390	0	0	0
2019/10/08 06:52:00	BASE	2.07	348	2.37	348	-4.6	100	-4.6	0	0	985.7	NA	0.0000		9999	360	0	0	0
2019/10/08 06:53:00	BASE	2.20	355	2.57	1	-4.6	100	-4.6	0	0	985.7	NA	0.0000		9999	360	0	0	0
2019/10/08 06:54:00	BASE	2.37	359	2.98	54	-4.6	100	-4.6	0	0	985.7	NA	0.0000		9000	360	0	0	0
2019/10/08 06:55:00	BASE	2.40	359	3.60	349	-4.5	100	-4.5	0	0	985.7	NA	0.0000		9999	330	0	0	0
2019/10/08 06:56:01	BASE	3.07	350	4.22	352	-4.5	100	-4.5	0	0	985.7	NA	0.0000		9999	360	1610	0	0
2019/10/08 06:57:00	BASE	4.07	347	4.58	346	-4.5	100	-4.5	0	0	985.7	NA	0.0000		9999	300	1540	0	0
2019/10/08 06:58:00	BASE	4.29	342	4.58	334	-4.5	100	-4.5	0	0	985.7	NA	0.0000		9999	300	1510	0	0
2019/10/08 06:59:00	BASE	4.16	336	4.58	327	-4.5	100	-4.5	0	0	985.7	NA	0.0000		9999	360	1540	0	0
2019/10/08 07:00:00	BASE	4.16	333	5.04	327	-4.5	100	-4.5	0	0	985.7	NA	0.0000		9999	390	1540	0	0
2019/10/08 07:01:00	BASE	4.45	330	5.04	327	-4.5	100	-4.5	0	0	985.7	NA	0.0000		9999	360	1510	0	0
2019/10/08 07:02:00	BASE	4.84	330	5.30	330	-4.5	100	-4.5	0	0	985.7	NA	0.0000		9999	360	1350	0	0
2019/10/08 07:03:00	BASE	5.02	330	5.35	328	-4.5	100	-4.5	0	0	985.7	NA	0.0000		9999	360	0	0	0
2019/10/08 07:04:00	BASE	4.83	325	5.35	328	-4.5	100	-4.5	0	0	985.7	NA	0.0000		9999	390	0	0	0
2019/10/08 07:05:00	BASE	4.63	323	5.35	328	-4.5	100	-4.5	0	0	985.7	NA	0.0000		9999	430	0	0	0
2019/10/08 07:06:00	BASE	4.56	323	5.35	328	-4.5	100	-4.5	0	0	985.7	NA	0.0000		9999	1120	0	0	0
2019/10/08 07:07:01	BASE	4.28	321	5.35	328	-4.5	100	-4.5	0	0	985.7	NA	0.0000		9999	1120	0	0	0
2019/10/08 07:08:01	BASE	3.99	320	5.35	328	-4.5	100	-4.5	0	0	985.7	NA	0.0000		9999	750	0	0	0
2019/10/08 07:09:00	BASE	3.79	322	5.35	328	-4.5	100	-4.5	0	0	985.7	NA	0.0000		9999	660	0	0	0
2019/10/08 07:10:01	BASE	3.85	322	5.35	328	-4.5	100	-4.5	0	0	985.7	NA	0.0000		9999	590	0	0	0
2019/10/08 07:11:00	BASE	4.11	320	5.35	328	-4.5	100	-4.5	0	0	985.7	NA	0.0000		9999	620	0	0	0
2019/10/08 07:12:00	BASE	4.17	321	5.35	328	-4.5	100	-4.5	0	0	985.7	NA	0.0000		9999	520	1380	0	0
2019/10/08 07:13:00	BASE	3.94	322	4.99	322	-4.5	100	-4.5	0	0	985.7	NA	0.0000		9999	390	0	0	0
2019/10/08 07:14:00	BASE	3.59	323	4.99	322	-4.5	100	-4.5	0	0	985.7	NA	0.0000		9999	430	0	0	0
2019/10/08 07:15:00	BASE	3.47	323	4.68	324	-4.5	100	-4.5	0	0	985.7	NA	0.0000		9999	360	820	0	0
2019/10/08 07:16:00	BASE	3.49	324	4.48	322	-4.5	100	-4.5	0	0	985.7	NA	0.0000		9999	560	0	0	0
2019/10/08 07:17:00	BASE	3.46	326	4.37	317	-4.5	100	-4.5	0	0	985.7	NA	0.0000		9999	430	0	0	0
2019/10/08 07:18:00	BASE	3.51	322	4.37	317	-4.5	100	-4.5	0	0	985.7	NA	0.0000		9999	430	0	0	0
2019/10/08 07:19:00	BASE	3.69	320	4.37	317	-4.5	100	-4.5	0	0	985.6	NA	0.0000		9999	430	0	0	0
2019/10/08 07:20:00	BASE	3.67	322	4.37	317	-4.5	100	-4.5	0	0	985.6	NA	0.0000		9999	390	0	0	0
2019/10/08 07:21:00	BASE	3.44	326	4.22	323	-4.5	100	-4.5	0	0	985.6	NA	0.0000		9999	390	0	0	0
2019/10/08 07:22:00	BASE	3.54	331	4.01	327	-4.5	100	-4.5	0	0	985.6	NA	0.0000		9999	390	0	0	0
2019/10/08 07:23:00	BASE	3.78	332	4.01	327	-4.5	100	-4.5	0	0	985.6	NA	0.0000		9999	850	0	0	0
2019/10/08 07:24:00	BASE	3.72	333	4.01	327	-4.6	100	-4.6	0	0	985.5	NA	0.0000		9999	460	0	0	0
2019/10/08 07:25:00	BASE	3.75	333	4.06	328	-4.6	100	-4.6	0	0	985.4	NA	0.0000		9999	330	920	0	0
2019/10/08 07:26:00	BASE	3.71	332	4.06	328	-4.6	100	-4.6	0	0	985.4	NA	0.0000		9999	330	0	0	0
2019/10/08 07:27:00	BASE	3.80	334	4.22	337	-4.6	100	-4.6	0	0	985.4	NA	0.0000		9999	330	0	0	0
2019/10/08 07:28:00	BASE	4.11	333	4.53	326	-4.6	100	-4.6	0	0	985.4	NA	0.0000		9999	390	0	0	0
2019/10/08 07:29:00	BASE	4.07	330	4.53	326	-4.6	100	-4.6	0	0	985.4	NA	0.0000		9999	430	0	0	0
2019/10/08 07:30:00	BASE	4.11	328	4.58	324	-4.6	100	-4.6	0	0	985.4	NA	0.0000		9999	460	0	0	0
2019/10/08 07:31:00	BASE	4.26	320	4.78	316	-4.6	100	-4.6	0	0	985.4	NA	0.0000		9999	430	0	0	0
2019/10/08 07:32:00	BASE	4.44	315	4.89	314	-4.5	100	-4.5	0	0	985.4	NA	0.0000		9999	460	0	0	0
2019/10/08 07:33:00	BASE	4.66	315	5.20	305	-4.5	100	-4.5	0	0	985.4	NA	0.0000		9999	460	0	0	0
2019/10/08 07:34:00	BASE	4.80	313	5.50	309	-4.5	100	-4.5	0	0	985.4	NA	0.0000		9999	390	0	0	0
2019/10/08 07:35:00	BASE	5.14	309	5.86	305	-4.5	100	-4.5	0	0	985.4	NA	0.0000		9999	330	0	0	0
2019/10/08 07:36:00	BASE	5.25	306	5.86	305	-4.5	100	-4.5	0	0	985.4	NA	0.0000		9999	330	0	0	0
2019/10/08 07:37:00	BASE	5.06	306	5.86	305	-4.5	100	-4.5	0	0	985.4	NA	0.0000		9999	360	0	0	0
2019/10/08 07:38:00	BASE	4.60	306	5.86	305	-4.5	100	-4.5	0	0	985.4	NA	0.0000		9999	360	0	0	0
2019/10/08 07:39:00	BASE	4.53	307	5.86	305	-4.5	100	-4.5	0	0	985.4	NA	0.0000		9999	330	0	0	0
2019/10/08 07:40:00	BASE	4.81	306	5.86	305	-4.5	100	-4.5	0	0	985.4	NA	0.0000		9999	300	0	0	0
2019/10/08 07:41:00	BASE	4.86	304	5.86	305	-4.5	100	-4.5	0	0	985.4	NA	0.0000		9999	360	0	0	0
2019/10/08 07:42:00	BASE	5.30	299	6.48	283	-4.5	100	-4.5	0	0	985.4	NA	0.0000		9999	360	0	0	0
2019/10/08 07:43:00	BASE	5.47	290	6.48	283	-4.5	100	-4.5	0	0	985.3	NA	0.0000		9999	390	0	0	0
2019/10/08 07:44:00	BASE	5.07	288	6.48	283	-4.5	100	-4.5	0	0	985.3	NA	0.0000		9999	430	0	0	0
2019/10/08 07:45:00	BASE	4.79	288	6.48	283	-4.5	100	-4.5	0	0	985.3	NA	0.0000		9999	390	0	0	0
2019/10/08 07:46:00	BASE	4.92	290	6.48	283	-4.5	100	-4.5	0	0	985.3	NA	0.0000		9999	390	1050	0	0
2019/10/08 07:47:00	BASE	5.19	290	6.48	283	-4.5	100	-4.5	0	0	985.3	NA	0.0000		9999	360	0	0	0
2019/10/08 07:48:00	BASE	5.15	289	6.48	283	-4.6	100	-4.6	0	0	985.3	NA	0.0000		9999	360	0	0	0
2019/10/08 07:49:00	BASE	5.09	291	6.48	283	-4.6	100	-4.6	0	0	985.2	NA	0.0000		9999	360	0	0	0
2019/10/08 07:50:00	BASE	4.91	292	6.48	283	-4.6	100	-4.6	0	0	985.2	NA	0.0000		9999	360	0	0	0
2019/10/08 07:51:00	BASE	4.92	291	6.48	283	-4.6	100	-4.6	0	0	985.2	NA	0.0000		9999	330	950	0	0
2019/10/08 07:52:00	BASE	5.34	292	6.58	287	-4.6	100	-4.6	0	0	985.2	NA	0.0000		9999	360	980	0	0
2019/10/08 07:53:00	BASE	5.61	290	6.58	287	-4.6	100	-4.6	0	0	985.2	NA	0.0000		9999	360	0	0	0
2019/10/08 07:54:00	BASE	5.20	290	6.58	287	-4.6	100	-4.6	0	0	985.2	NA	0.0000		9999	330	0	0	0
2019/10/08 07:55:00	BASE	4.71	293	6.58	287	-4.6	100	-4.6	0	0	985.2	NA	0.0000		9999	360	1080	0	0
2019/10/08 07:56:00	BASE	4.73	290	6.58	287	-4.6	100	-4.6	0	0	985.2	NA	0.0000		9999	330	1120	0	0
2019/10/08 07:57:00	BASE	4.53	288	6.58	287	-4.6	100	-4.6	0	0	985.2	NA	0.0000		9999	330	1150	0	0
2019/10/08 07:58:00	BASE	4.96	291	6.58	287	-4.6	100	-4.6	0	0	985.1	NA	0.0000		9999	330	0	0	0
2019/10/08 07:59:00	BASE	5.54	291	6.58	287	-4.6	100	-4.6	0	0	985.1	NA	0.0000		9999	330	0	0	0
2019/10/08 08:00:00	BASE	5.02	286	6.58	287	-4.7	100	-4.7	0	0	985.1	NA	0.0000		9999	330	0	0	0
2019/10/08 08:01:00	BASE	4.41	287	6.58	287	-4.7	100	-4.7	0	0	985.1	NA	0.0000		9999	330	1150	0	0
2019/10/08 08:02:00	BASE	4.22	289	6.33	284	-4.7	100	-4.7	0	0	985.2	NA	0.0000		9999	300	1180	0	0
2019/10/08 08:03:00	BASE	4.65	291	6.12	293	-4.7	100	-4.7	0	0	985.2	NA	0.0000		9999	300	1120	0	0
2019/10/08 08:04:00	BASE	5.34	292	6.12	293	-4.7	100	-4.7	0	0	985.2	NA	0.0000		9999	300	1250	0	0
2019/10/08 08:05:00	BASE	5.35	292	6.12	293	-4.7	100	-4.7	0	0	985.2	NA	0.0000		9999	330	0	0	0
2019/10/08 08:06:00	BASE	4.80	294	6.12	293	-4.7	100	-4.7	0	0	985.2	NA	0.0000		9999	330	0	0	0
2019/10/08 08:07:00	BASE	4.47	296	6.12	293	-4.7	100	-4.7	0	0	985.1	NA	0.0000		9999	330	0	0	0
2019/10/08 08:08:00	BASE	4.50	295	6.02	291	-4.7	100	-4.7	0	0	985.1	NA	0.0000		9999	300	0	0	0
2019/10/08 08:09:00	BASE	4.47	293	6.02	291	-4.7	100	-4.7	0	0	985.1	NA	0.0000		9999	260	0	0	0
2019/10/08 08:10:00	BASE	4.22	293	6.02	291	-4.7	100	-4.7	0	0	985.1	NA	0.0000		9999	260	0	0	0
2019/10/08 08:11:00	BASE	4.17	296	6.02	291	-4.7	100	-4.7	0	0	985.1	NA	0.0000		9999	260	0	0	0
2019/10/08 08:12:00	BASE	4.73	298	6.02	291	-4.7	100	-4.7	0	0	985.1	NA	0.0000		9999	260	0	0	0
2019/10/08 08:13:00	BASE	5.07	296	6.02	291	-4.7	100	-4.7	0	0	985.1	NA	0.0000		9999	230	0	0	0
2019/10/08 08:14:00	BASE	5.07	294	5.71	289	-4.7	100	-4.7	0	0	985.1	NA	0.0000		9999	230	0	0	0
2019/10/08 08:15:00	BASE	4.93	293	5.66	296	-4.7	100	-4.7	0	0	985.1	NA	0.0000		9999	200	0	0	0
2019/10/08 08:16:00	BASE	4.50	294	5.66	296	-4.7	100	-4.7	0	0	985.1	NA	0.0000		9999	260	0	0	0
2019/10/08 08:17:00	BASE	4.96	297	6.02	303	-4.7	100	-4.7	0	0	985.0	NA	0.0000		9999	260	0	0	0
2019/10/08 08:18:00	BASE	5.26	294	6.07	292	-4.7	100	-4.7	0	0	985.0	NA	0.0000		9999	300	980	0	0
2019/10/08 08:19:00	BASE	5.42	291	6.43	293	-4.7	100	-4.7	0	0	984.9	NA	0.0000		9999	330	0	0	0
2019/10/08 08:20:00	BASE	5.70	289	6.43	293	-4.7	100	-4.7	0	0	984.9	NA	0.0000		9999	330	0	0	0
2019/10/08 08:21:00	BASE	5.07	290	6.43	293	-4.7	100	-4.7	0	0	984.9	NA	0.0000		9999	330	0	0	0
2019/10/08 08:22:00	BASE	4.92	294	6.43	293	-4.7	100	-4.7	0	0	984.9	NA	0.0000		9999	330	0	0	0
2019/10/08 08:23:00	BASE	5.38	299	6.43	293	-4.7	100	-4.7	0	0	984.9	NA	0.0000		9999	330	0	0	0
2019/10/08 08:24:00	BASE	5.70	304	6.43	301	-4.7	100	-4.7	0	0	984.9	NA	0.0000		9999	330	0	0	0
2019/10/08 08:25:00	BASE	6.07	299	6.94	300	-4.7	100	-4.7	0	0	984.9	NA	0.0000		9999	360	0	0	0
2019/10/08 08:26:00	BASE	5.94	296	6.94	300	-4.7	100	-4.7	0	0	984.9	NA	0.0000		9999	390	0	0	0
2019/10/08 08:27:00	BASE	5.54	298	6.94	300	-4.7	100	-4.7	0	0	984.9	NA	0.0000		9999	360	0	0	0
2019/10/08 08:28:00	BASE	5.52	298	6.94	300	-4.8	100	-4.8	0	0	984.9	NA	0.0000		9999	360	0	0	0
2019/10/08 08:29:00	BASE	5.88	297	6.94	300	-4.8	100	-4.8	0	0	984.9	NA	0.0000		9999	330	0	0	0
2019/10/08 08:30:00	BASE	5.97	298	6.94	300	-4.8	100	-4.8	0	0	984.9	NA	0.0000		9999	330	0	0	0
2019/10/08 08:31:00	BASE	5.94	296	6.94	300	-4.8	100	-4.8	0	0	984.9	NA	0.0000		9999	330	0	0	0
2019/10/08 08:32:00	BASE	6.16	292	6.94	300	-4.8	100	-4.8	0	0	984.9	NA	0.0000		9999	330	1050	0	0
2019/10/08 08:33:00	BASE	6.16	289	6.94	300	-4.8	100	-4.8	0	0	984.8	NA	0.0000		9999	360	0	0	0
2019/10/08 08:34:00	BASE	5.63	290	6.94	300	-4.8	100	-4.8	0	0	984.8	NA	0.0000		9999	360	1020	0	0
2019/10/08 08:35:00	BASE	5.31	292	6.84	288	-4.8	100	-4.8	0	0	984.8	NA	0.0000		9999	360	0	0	0
2019/10/08 08:36:00	BASE	5.30	292	6.84	288	-4.8	100	-4.8	0	0	984.8	NA	0.0000		9999	360	0	0	0
2019/10/08 08:37:00	BASE	5.08	293	6.84	288	-4.7	100	-4.7	0	0	984.8	NA	0.0000		9999	360	0	0	0
2019/10/08 08:38:00	BASE	5.22	291	6.84	288	-4.7	100	-4.7	0	0	984.8	NA	0.0000		9999	390	0	0	0
2019/10/08 08:39:00	BASE	5.28	291	6.84	288	-4.7	100	-4.7	0	0	984.8	NA	0.0000		9999	390	0	0	0
2019/10/08 08:40:00	BASE	5.63	291	7.05	288	-4.7	100	-4.7	0	0	984.8	NA	0.0000		9999	430	0	0	0
2019/10/08 08:41:00	BASE	5.97	290	7.05	288	-4.7	100	-4.7	0	0	984.8	NA	0.0000		9999	430	0	0	0
2019/10/08 08:42:00	BASE	6.07	290	7.05	288	-4.7	100	-4.7	0	0	984.8	NA	0.0000		9999	520	0	0	0
2019/10/08 08:43:00	BASE	6.11	290	7.05	288	-4.7	100	-4.7	0	0	984.8	NA	0.0000		9999	520	0	0	0
2019/10/08 08:44:00	BASE	5.63	292	7.05	288	-4.7	100	-4.7	0	0	984.8	NA	0.0000		9999	490	0	0	0
2019/10/08 08:45:00	BASE	5.21	295	7.05	288	-4.7	100	-4.7	0	0	984.8	NA	0.0000		9999	560	0	0	0
2019/10/08 08:46:00	BASE	5.11	297	7.05	288	-4.7	100	-4.7	0	0	984.8	NA	0.0000		9999	490	0	0	0
2019/10/08 08:47:00	BASE	5.03	297	7.05	288	-4.7	100	-4.7	0	0	984.8	NA	0.0000		9999	460	0	0	0
2019/10/08 08:48:00	BASE	5.27	296	7.05	288	-4.7	100	-4.7	0	0	984.8	NA	0.0000		9999	720	0	0	0
2019/10/08 08:49:00	BASE	5.37	297	7.05	288	-4.7	100	-4.7	0	0	984.8	NA	0.0000		9999	720	0	0	0
2019/10/08 08:50:00	BASE	5.39	299	6.74	284	-4.7	100	-4.7	0	0	984.8	NA	0.0000		9999	750	0	0	0
2019/10/08 08:51:00	BASE	5.71	298	6.58	287	-4.7	100	-4.7	0	0	984.8	NA	0.0000		9999	790	0	0	0
2019/10/08 08:52:00	BASE	5.70	295	6.58	287	-4.7	100	-4.7	0	0	984.8	NA	0.0000		9999	750	0	0	0
2019/10/08 08:53:00	BASE	5.75	293	7.05	286	-4.7	100	-4.7	0	0	984.8	NA	0.0000		9999	690	0	0	0
2019/10/08 08:54:00	BASE	5.85	296	7.05	286	-4.7	100	-4.7	0	0	984.8	NA	0.0000		9999	750	0	0	0
2019/10/08 08:55:00	BASE	5.93	299	7.05	286	-4.7	100	-4.7	0	0	984.7	NA	0.0000		9999	950	0	0	0
2019/10/08 08:56:00	BASE	5.94	300	7.05	286	-4.7	100	-4.7	0	0	984.7	NA	0.0000		9999	1080	0	0	0
2019/10/08 08:57:00	BASE	5.88	301	7.05	286	-4.7	100	-4.7	0	0	984.7	NA	0.0000		9999	1150	0	0	0
2019/10/08 08:58:00	BASE	6.17	302	7.05	286	-4.7	100	-4.7	0	0	984.7	NA	0.0000		9999	1210	0	0	0
2019/10/08 08:59:00	BASE	6.44	303	7.25	304	-4.7	100	-4.7	0	0	984.7	NA	0.0000		9999	1250	0	0	0
2019/10/08 09:00:00	BASE	6.82	305	7.77	307	-4.7	100	-4.7	1	0	984.6	NA	0.0000		9999	1410	0	0	0
2019/10/08 09:01:00	BASE	6.94	307	7.77	307	-4.7	100	-4.7	1	0	984.6	NA	0.0000		9999	1410	0	0	0
2019/10/08 09:02:00	BASE	6.69	306	7.77	307	-4.7	100	-4.7	1	0	984.6	NA	0.0000		9999	1180	1610	0	0
2019/10/08 09:03:00	BASE	6.51	308	7.77	307	-4.7	100	-4.7	1	0	984.6	NA	0.0000		9999	1180	1640	0	0
2019/10/08 09:04:00	BASE	6.52	310	7.77	307	-4.7	100	-4.7	1	0	984.6	NA	0.0000		9999	1150	1740	0	0
2019/10/08 09:05:00	BASE	6.69	311	7.77	307	-4.7	100	-4.7	2	0	984.6	NA	0.0000		9999	1120	1770	0	0
2019/10/08 09:06:00	BASE	6.53	312	7.77	307	-4.7	100	-4.7	2	0	984.6	NA	0.0000		9999	1120	2000	0	0
2019/10/08 09:07:00	BASE	5.99	312	7.77	307	-4.7	100	-4.7	2	0	984.6	NA	0.0000		9999	1080	0	0	0
2019/10/08 09:08:00	BASE	5.65	311	7.77	307	-4.7	100	-4.7	2	0	984.6	NA	0.0000		9999	1080	0	0	0
2019/10/08 09:09:00	BASE	5.81	313	7.77	307	-4.7	100	-4.7	2	0	984.6	NA	0.0000		9999	1080	0	0	0
2019/10/08 09:10:00	BASE	6.19	313	7.46	305	-4.7	100	-4.7	2	0	984.5	NA	0.0000		9999	1120	0	0	0
2019/10/08 09:11:00	BASE	6.37	311	7.36	312	-4.7	100	-4.7	2	0	984.5	NA	0.0000		9999	1080	0	0	0
2019/10/08 09:12:00	BASE	6.19	311	7.36	312	-4.7	100	-4.7	2	0	984.5	NA	0.0000		9999	1080	0	0	0
2019/10/08 09:13:00	BASE	5.79	313	7.36	312	-4.7	100	-4.7	2	0	984.5	NA	0.0000		9999	980	0	0	0
2019/10/08 09:14:00	BASE	5.72	314	7.36	312	-4.7	100	-4.7	2	0	984.5	NA	0.0000		9999	980	0	0	0
2019/10/08 09:15:00	BASE	5.95	317	7.20	306	-4.7	100	-4.7	3	0	984.5	NA	0.0000		9999	980	0	0	0
2019/10/08 09:16:00	BASE	6.07	318	7.10	311	-4.7	100	-4.7	3	0	984.5	NA	0.0000		9999	920	0	0	0
2019/10/08 09:17:00	BASE	6.00	318	7.10	311	-4.7	100	-4.7	3	0	984.4	NA	0.0000		9999	750	0	0	0
2019/10/08 09:18:00	BASE	5.83	318	7.10	311	-4.7	100	-4.7	3	0	984.3	NA	0.0000		9999	690	0	0	0
2019/10/08 09:19:00	BASE	5.73	318	7.10	311	-4.7	100	-4.7	3	0	984.3	NA	0.0000		9999	690	0	0	0
2019/10/08 09:20:00	BASE	5.96	318	6.84	317	-4.7	100	-4.7	3	0	984.3	NA	0.0000		9999	660	0	0	0
2019/10/08 09:21:00	BASE	6.13	318	6.84	317	-4.7	100	-4.7	4	0	984.3	NA	0.0000		9999	620	0	0	0
2019/10/08 09:22:00	BASE	6.07	317	6.84	317	-4.7	100	-4.7	4	0	984.3	NA	0.0000		9999	590	0	0	0
2019/10/08 09:23:00	BASE	6.00	313	6.84	317	-4.7	100	-4.7	4	0	984.3	NA	0.0000		9999	520	0	0	0
2019/10/08 09:24:00	BASE	5.70	315	6.84	317	-4.7	100	-4.7	4	0	984.3	NA	0.0000		9999	950	0	0	0
2019/10/08 09:25:00	BASE	5.37	318	6.84	317	-4.7	100	-4.7	5	0	984.3	NA	0.0000		9999	820	0	0	0
2019/10/08 09:26:00	BASE	5.51	316	6.84	317	-4.7	100	-4.7	5	0	984.2	NA	0.0000		9999	980	0	0	0
2019/10/08 09:27:00	BASE	5.64	314	6.84	317	-4.7	100	-4.7	5	0	984.2	NA	0.0000		9999	720	0	0	0
2019/10/08 09:28:00	BASE	5.50	314	6.84	317	-4.7	100	-4.7	4	0	984.2	NA	0.0000		9999	620	1380	0	0
2019/10/08 09:29:00	BASE	5.48	313	6.84	317	-4.7	100	-4.7	4	0	984.2	NA	0.0000		9999	620	0	0	0
2019/10/08 09:30:00	BASE	5.50	313	6.74	316	-4.7	100	-4.7	4	0	984.2	NA	0.0000		9999	560	0	0	0
2019/10/08 09:31:00	BASE	5.75	314	6.74	316	-4.7	100	-4.7	5	0	984.2	NA	0.0000		9999	590	0	0	0
2019/10/08 09:32:00	BASE	5.84	313	6.38	317	-4.7	100	-4.7	5	0	984.2	NA	0.0000		9999	590	0	0	0
2019/10/08 09:33:00	BASE	5.65	309	6.38	317	-4.7	100	-4.7	5	0	984.2	NA	0.0000		9999	620	0	0	0
2019/10/08 09:34:00	BASE	5.74	308	6.48	311	-4.7	100	-4.7	5	0	984.1	NA	0.0000		9999	660	0	0	0
2019/10/08 09:35:00	BASE	5.84	312	6.48	311	-4.7	100	-4.7	5	0	984.1	NA	0.0000		9999	620	0	0	0
2019/10/08 09:36:00	BASE	5.65	320	6.48	311	-4.7	100	-4.7	5	0	984.1	NA	0.0000		9999	620	0	0	0
2019/10/08 09:37:00	BASE	5.69	325	7.15	321	-4.7	100	-4.7	6	0	984.1	NA	0.0000		9999	560	0	0	0
2019/10/08 09:38:00	BASE	6.28	326	7.20	324	-4.7	100	-4.7	6	0	984.1	NA	0.0000		9999	430	1310	0	0
2019/10/08 09:39:00	BASE	6.76	326	7.31	325	-4.7	100	-4.7	6	0	984.1	NA	0.0000		9999	430	0	0	0
2019/10/08 09:40:00	BASE	6.94	325	7.61	328	-4.7	100	-4.7	7	0	984.0	NA	0.0000		9999	390	0	0	0
2019/10/08 09:41:01	BASE	7.03	324	7.61	328	-4.7	100	-4.7	7	0	984.0	NA	0.0000		9999	430	1020	0	0
2019/10/08 09:42:00	BASE	6.53	323	7.61	328	-4.7	100	-4.7	8	0	984.0	NA	0.0000		9999	460	1050	0	0
2019/10/08 09:43:00	BASE	6.11	324	7.61	328	-4.8	100	-4.8	9	0	984.0	NA	0.0000		9999	390	0	0	0
2019/10/08 09:44:00	BASE	6.33	326	7.61	328	-4.8	100	-4.8	9	0	984.0	NA	0.0000		9999	390	0	0	0
2019/10/08 09:45:00	BASE	6.52	330	7.61	328	-4.8	100	-4.8	10	0	984.0	NA	0.0000		9999	360	0	0	0
2019/10/08 09:46:00	BASE	6.52	333	7.61	328	-4.8	100	-4.8	11	0	983.9	NA	0.0000		9999	330	0	0	0
2019/10/08 09:47:00	BASE	6.83	334	7.82	332	-4.7	100	-4.7	12	0	983.9	NA	0.0000		9999	300	0	0	0
2019/10/08 09:48:00	BASE	6.93	334	7.82	332	-4.7	100	-4.7	13	0	983.9	NA	0.0000		9999	300	0	0	0
2019/10/08 09:49:00	BASE	6.69	337	7.82	332	-4.7	100	-4.7	14	0	983.9	NA	0.0000		9999	300	0	0	0
2019/10/08 09:50:00	BASE	6.59	337	7.82	332	-4.7	100	-4.7	15	0	983.8	NA	0.0000		9999	330	0	0	0
2019/10/08 09:51:00	BASE	6.55	335	7.82	332	-4.7	100	-4.7	16	0	983.7	NA	0.0000		9999	330	0	0	0
2019/10/08 09:52:00	BASE	6.22	339	7.82	332	-4.7	100	-4.7	17	0	983.7	NA	0.0000		9999	300	0	0	0
2019/10/08 09:53:00	BASE	6.33	342	7.82	332	-4.7	100	-4.8	18	0	983.7	NA	0.0000		9999	330	0	0	0
2019/10/08 09:54:00	BASE	6.78	342	7.82	332	-4.8	100	-4.8	20	0	983.7	NA	0.0000		9999	360	0	0	0
2019/10/08 09:55:00	BASE	6.63	343	7.82	332	-4.7	100	-4.7	21	0	983.7	NA	0.0000		9999	300	1020	0	0
2019/10/08 09:56:00	BASE	6.25	346	7.82	332	-4.7	100	-4.7	22	0	983.7	NA	0.0000		9999	300	0	0	0
2019/10/08 09:57:00	BASE	5.99	348	7.51	341	-4.7	100	-4.7	23	0	983.6	NA	0.0000		9999	660	0	0	0
2019/10/08 09:58:00	BASE	6.18	351	7.51	341	-4.7	100	-4.7	24	0	983.6	NA	0.0000		9999	330	0	0	0
2019/10/08 09:59:00	BASE	6.55	350	7.51	341	-4.7	100	-4.7	23	0	983.5	NA	0.0000		9999	460	0	0	0
2019/10/08 10:00:00	BASE	6.31	346	7.51	341	-4.7	100	-4.7	23	0	983.6	NA	0.0000		9999	390	0	0	0
2019/10/08 10:01:00	BASE	5.54	347	7.51	341	-4.7	100	-4.7	22	0	983.6	NA	0.0000		9999	300	0	0	0
2019/10/08 10:02:00	BASE	5.21	349	7.51	341	-4.7	100	-4.7	21	0	983.5	NA	0.0000		9999	750	0	0	0
2019/10/08 10:03:00	BASE	5.42	351	7.51	341	-4.7	100	-4.7	21	0	983.5	NA	0.0000		9999	790	0	0	0
2019/10/08 10:04:00	BASE	5.54	351	7.20	350	-4.7	100	-4.7	21	0	983.5	NA	0.0000		9999	390	0	0	0
2019/10/08 10:05:00	BASE	5.60	350	7.20	350	-4.7	100	-4.7	21	0	983.5	NA	0.0000		9999	360	0	0	0
2019/10/08 10:06:00	BASE	5.87	348	7.20	350	-4.7	100	-4.7	22	0	983.5	NA	0.0000		9999	360	0	0	0
2019/10/08 10:07:00	BASE	5.93	345	7.20	350	-4.7	100	-4.7	22	0	983.5	NA	0.0000		9999	360	0	0	0
2019/10/08 10:08:01	BASE	5.56	346	7.05	349	-4.7	100	-4.7	22	0	983.5	NA	0.0000		9999	430	0	0	0
2019/10/08 10:09:00	BASE	4.94	350	6.69	341	-4.7	100	-4.7	22	0	983.5	NA	0.0000		9999	430	0	0	0
2019/10/08 10:10:01	BASE	5.04	350	6.58	345	-4.7	100	-4.7	21	0	983.5	NA	0.0000		9999	430	0	0	0
2019/10/08 10:11:01	BASE	5.70	347	6.58	345	-4.7	100	-4.7	21	0	983.5	NA	0.0000		9999	390	0	0	0
2019/10/08 10:12:01	BASE	5.97	350	6.58	345	-4.7	100	-4.7	21	0	983.5	NA	0.0000		9999	390	0	0	0
2019/10/08 10:13:01	BASE	5.89	354	6.58	345	-4.7	100	-4.7	22	0	983.5	NA	0.0000		9999	460	0	0	0
2019/10/08 10:14:01	BASE	5.66	352	6.58	345	-4.7	100	-4.7	25	0	983.5	NA	0.0000		9999	490	0	0	0
2019/10/08 10:15:00	BASE	5.55	352	6.58	345	-4.7	100	-4.7	27	0	983.4	NA	0.0000		9999	490	0	0	0
2019/10/08 10:16:00	BASE	5.71	350	6.48	353	-4.7	100	-4.7	30	0	983.4	NA	0.0000		9999	430	0	0	0
2019/10/08 10:17:00	BASE	5.96	344	6.58	344	-4.7	100	-4.7	31	0	983.4	NA	0.0000		9999	390	0	0	0
2019/10/08 10:18:00	BASE	5.78	347	6.58	344	-4.7	100	-4.7	33	0	983.4	NA	0.0000		9999	720	0	0	0
2019/10/08 10:19:00	BASE	5.12	348	6.58	344	-4.7	100	-4.7	34	0	983.3	NA	0.0000		9999	720	0	0	0
2019/10/08 10:20:00	BASE	4.53	350	6.58	344	-4.7	100	-4.7	36	0	983.3	NA	0.0000		9999	460	1020	0	0
2019/10/08 10:21:00	BASE	4.75	352	6.58	344	-4.7	100	-4.7	38	0	983.3	NA	0.0000		9999	1150	0	0	0
2019/10/08 10:22:00	BASE	5.13	349	6.58	344	-4.7	100	-4.7	40	0	983.3	NA	0.0000		9999	1180	0	0	0
2019/10/08 10:23:00	BASE	4.87	347	6.58	344	-4.7	100	-4.7	42	0	983.3	NA	0.0000		9999	1280	0	0	0
2019/10/08 10:24:00	BASE	4.59	353	6.58	344	-4.7	100	-4.7	43	0	983.3	NA	0.0000		9999	1020	0	0	0
2019/10/08 10:25:00	BASE	4.48	358	6.58	344	-4.7	100	-4.7	44	0	983.2	NA	0.0000		9999	1350	0	0	0
2019/10/08 10:26:00	BASE	4.47	358	6.58	344	-4.7	100	-4.7	44	0	983.2	NA	0.0000		9999	1150	0	0	0
2019/10/08 10:27:00	BASE	4.80	358	6.28	348	-4.7	100	-4.7	45	0	983.2	NA	0.0000		9999	1050	1740	0	0
2019/10/08 10:28:00	BASE	5.30	357	6.17	360	-4.7	100	-4.7	46	0	983.2	NA	0.0000		9999	1080	0	0	0
2019/10/08 10:29:00	BASE	5.20	356	6.17	360	-4.7	100	-4.7	47	0	983.2	NA	0.0000		9999	1150	0	0	0
2019/10/08 10:30:00	BASE	4.92	0	6.17	360	-4.7	100	-4.7	48	0	983.2	NA	0.0000		9999	1210	0	0	0
2019/10/08 10:31:00	BASE	4.67	4	6.17	360	-4.7	100	-4.7	49	0	983.1	NA	0.0000		9999	1410	1840	0	0
2019/10/08 10:32:00	BASE	4.36	2	6.17	360	-4.7	100	-4.7	49	0	983.1	NA	0.0000		9999	1210	0	0	0
2019/10/08 10:33:00	BASE	4.23	355	6.17	360	-4.7	100	-4.7	49	0	983.1	NA	0.0000		9999	1440	0	0	0
2019/10/08 10:34:00	BASE	4.20	349	6.17	360	-4.7	100	-4.7	49	0	983.1	NA	0.0000		9999	1210	0	0	0
2019/10/08 10:35:00	BASE	4.43	349	6.17	360	-4.7	100	-4.7	48	0	983.1	NA	0.0000		9999	1610	0	0	0
2019/10/08 10:36:00	BASE	4.60	349	6.17	360	-4.7	100	-4.7	49	0	983.0	NA	0.0000		9999	1120	1640	0	0
2019/10/08 10:37:00	BASE	4.93	350	6.17	360	-4.7	100	-4.7	50	0	982.9	NA	0.0000		9999	1080	0	0	0
2019/10/08 10:38:00	BASE	4.80	351	5.50	354	-4.7	100	-4.7	51	0	982.9	NA	0.0000		9999	1080	1640	0	0
2019/10/08 10:39:00	BASE	4.55	347	5.50	354	-4.7	100	-4.7	52	0	982.9	NA	0.0000		9999	1740	5020	0	0
2019/10/08 10:40:01	BASE	4.48	349	5.50	354	-4.7	100	-4.7	52	0	982.9	NA	0.0000		9999	1740	0	0	0
2019/10/08 10:41:00	BASE	4.28	352	5.50	354	-4.7	100	-4.7	54	0	982.9	NA	0.0000		9999	1280	0	0	0
2019/10/08 10:42:01	BASE	4.31	353	5.50	354	-4.7	100	-4.7	56	0	982.9	NA	0.0000		9999	1210	0	0	0
2019/10/08 10:43:00	BASE	4.32	356	5.50	354	-4.7	100	-4.7	59	0	982.9	NA	0.0000		9999	1180	2100	5150	0
2019/10/08 10:44:01	BASE	4.27	353	5.50	354	-4.7	100	-4.7	61	0	982.9	NA	0.0000		9999	1440	5020	0	0
2019/10/08 10:45:01	BASE	4.34	348	5.50	354	-4.7	100	-4.7	62	0	982.9	NA	0.0000		9999	2200	5020	0	0
2019/10/08 10:46:01	BASE	4.98	345	5.71	240	-4.7	100	-4.7	62	0	982.9	NA	0.0000		9999	2030	4950	0	0
2019/10/08 10:47:01	BASE	5.81	346	6.79	348	-4.7	100	-4.7	62	0	982.8	NA	0.0000		9999	1900	0	0	0
2019/10/08 10:48:01	BASE	6.18	348	6.79	348	-4.7	100	-4.7	62	0	982.8	NA	0.0000		9999	1770	0	0	0
2019/10/08 10:49:00	BASE	5.83	349	6.79	348	-4.6	100	-4.6	62	0	982.8	NA	0.0000		9999	1740	0	0	0
2019/10/08 10:50:01	BASE	5.40	349	6.79	348	-4.6	100	-4.6	63	0	982.8	NA	0.0000		9999	1670	0	0	0
2019/10/08 10:51:00	BASE	5.75	348	6.84	339	-4.6	100	-4.6	64	0	982.8	NA	0.0000		9999	1670	0	0	0
2019/10/08 10:52:01	BASE	6.09	348	6.84	339	-4.6	100	-4.6	64	0	982.8	NA	0.0000		9999	1610	0	0	0
2019/10/08 10:53:00	BASE	5.84	349	6.84	339	-4.6	100	-4.6	64	0	982.8	NA	0.0000		9999	1640	0	0	0
2019/10/08 10:54:01	BASE	5.89	351	6.84	339	-4.6	100	-4.6	65	0	982.7	NA	0.0000		9999	1540	0	0	0
2019/10/08 10:55:00	BASE	5.99	355	6.84	339	-4.6	100	-4.6	66	0	982.7	NA	0.0000		9999	1510	0	0	0
2019/10/08 10:56:00	BASE	5.90	358	6.84	339	-4.6	100	-4.6	67	0	982.7	NA	0.0000		9999	1440	0	0	0
2019/10/08 10:57:00	BASE	6.09	351	6.84	339	-4.6	100	-4.6	68	0	982.7	NA	0.0000		9999	1540	0	0	0
2019/10/08 10:58:00	BASE	6.24	347	6.94	352	-4.6	100	-4.6	69	0	982.7	NA	0.0000		9999	1540	0	0	0
2019/10/08 10:59:00	BASE	5.92	353	6.94	352	-4.6	100	-4.6	71	0	982.7	NA	0.0000		9999	1570	0	0	0
2019/10/08 11:00:00	BASE	5.71	351	6.94	352	-4.5	100	-4.5	72	0	982.7	NA	0.0000		9999	1540	0	0	0
2019/10/08 11:01:00	BASE	5.77	347	6.94	352	-4.5	100	-4.5	73	0	982.6	NA	0.0000		9999	1440	22340	0	0
2019/10/08 11:02:00	BASE	5.50	347	6.94	352	-4.5	100	-4.5	74	0	982.6	NA	0.0000		9999	1440	1870	0	0
2019/10/08 11:03:00	BASE	5.29	348	6.94	352	-4.5	100	-4.5	75	0	982.6	NA	0.0000		9999	1640	3350	5090	0
2019/10/08 11:04:00	BASE	5.54	351	6.94	352	-4.5	100	-4.5	76	0	982.6	NA	0.0000		9999	1740	3350	5120	0
2019/10/08 11:05:00	BASE	5.62	352	6.94	352	-4.5	100	-4.5	77	0	982.6	NA	0.0000		9999	1800	0	0	0
2019/10/08 11:06:00	BASE	5.21	351	6.94	352	-4.5	100	-4.5	78	0	982.6	NA	0.0000		9999	1740	3310	0	0
2019/10/08 11:07:00	BASE	5.05	351	6.94	352	-4.5	100	-4.5	79	0	982.6	NA	0.0000		9999	2030	3220	4920	0
2019/10/08 11:08:00	BASE	5.08	350	6.48	345	-4.4	100	-4.4	79	0	982.6	NA	0.0000		9999	2100	3220	4920	0
2019/10/08 11:09:00	BASE	5.55	349	6.84	350	-4.4	100	-4.4	80	0	982.6	NA	0.0000		9999	3180	4860	0	0
2019/10/08 11:10:00	BASE	6.04	350	6.84	350	-4.4	100	-4.4	81	0	982.6	NA	0.0000		9999	3150	4860	0	0
2019/10/08 11:11:00	BASE	5.84	349	6.84	350	-4.4	100	-4.4	81	0	982.5	NA	0.0000		9999	3150	4950	0	0
2019/10/08 11:12:01	BASE	5.58	348	6.84	350	-4.4	100	-4.4	82	0	982.4	NA	0.0000		9999	3150	4860	0	0
2019/10/08 11:13:01	BASE	5.52	348	6.84	350	-4.4	100	-4.4	82	0	982.4	NA	0.0000		9999	3180	4920	0	0
2019/10/08 11:14:01	BASE	5.65	346	6.84	350	-4.4	100	-4.4	82	0	982.4	NA	0.0000		9999	3120	4920	0	0
2019/10/08 11:15:01	BASE	5.74	344	6.84	350	-4.4	100	-4.4	83	0	982.4	NA	0.0000		9999	4760	0	0	0
2019/10/08 11:16:01	BASE	5.90	345	6.94	347	-4.4	100	-4.4	82	0	982.4	NA	0.0000		9999	3050	4690	0	0
2019/10/08 11:17:01	BASE	6.24	347	7.25	345	-4.4	100	-4.4	82	0	982.4	NA	0.0000		9999	3020	4690	0	0
2019/10/08 11:18:01	BASE	6.59	347	7.25	345	-4.4	100	-4.4	81	0	982.3	NA	0.0000		9999	2920	4660	22510	0
2019/10/08 11:19:01	BASE	6.83	347	7.31	350	-4.4	100	-4.4	81	0	982.3	NA	0.0000		9999	2070	2850	4720	0
2019/10/08 11:20:01	BASE	6.71	348	7.31	350	-4.4	100	-4.4	80	0	982.3	NA	0.0000		9999	2760	4720	0	0
2019/10/08 11:21:01	BASE	6.20	345	7.31	350	-4.4	100	-4.4	80	0	982.3	NA	0.0000		9999	2660	0	0	0
2019/10/08 11:22:01	BASE	6.06	344	7.31	350	-4.3	100	-4.3	80	0	982.3	NA	0.0000		9999	2620	0	0	0
2019/10/08 11:23:01	BASE	6.28	350	7.31	350	-4.3	100	-4.3	79	0	982.3	NA	0.0000		9999	1840	2330	0	0
2019/10/08 11:24:01	BASE	6.56	351	7.77	344	-4.3	100	-4.3	79	0	982.3	NA	0.0000		9999	1570	0	0	0
2019/10/08 11:25:01	BASE	6.50	353	7.77	344	-4.3	100	-4.3	79	0	982.3	NA	0.0000		9999	1570	0	0	0
2019/10/08 11:26:01	BASE	6.38	358	7.77	344	-4.3	100	-4.3	80	0	982.3	NA	0.0000		9999	1480	0	0	0
2019/10/08 11:27:01	BASE	6.76	355	7.77	344	-4.3	100	-4.3	81	0	982.3	NA	0.0000		9999	1610	0	0	0
2019/10/08 11:28:01	BASE	7.18	354	7.82	360	-4.3	100	-4.3	83	0	982.2	NA	0.0000		9999	1480	0	0	0
2019/10/08 11:29:00	BASE	7.43	359	7.97	360	-4.3	100	-4.3	85	0	982.2	NA	0.0000		9999	1640	0	0	0
2019/10/08 11:30:00	BASE	7.25	360	7.97	360	-4.3	100	-4.3	87	0	982.2	NA	0.0000		9999	1710	0	0	0
2019/10/08 11:31:00	BASE	7.28	1	8.39	3	-4.3	100	-4.3	89	0	982.2	NA	0.0000		9999	1670	0	0	0
2019/10/08 11:32:00	BASE	7.51	4	8.39	3	-4.2	100	-4.2	90	0	982.2	NA	0.0000		9999	1670	0	0	0
2019/10/08 11:33:01	BASE	7.63	5	8.39	3	-4.2	100	-4.2	92	0	982.1	NA	0.0000		9999	1670	0	0	0
2019/10/08 11:34:01	BASE	8.12	7	8.85	5	-4.2	100	-4.2	93	0	982.1	NA	0.0000		9999	1640	0	0	0
2019/10/08 11:35:00	BASE	8.33	8	8.85	5	-4.2	100	-4.2	94	0	982.1	NA	0.0000		9999	1540	0	0	0
2019/10/08 11:36:00	BASE	7.95	9	8.85	5	-4.2	100	-4.2	95	0	982.1	NA	0.0000		9999	1570	0	0	0
2019/10/08 11:37:00	BASE	7.65	9	8.85	5	-4.2	100	-4.2	96	0	982.1	NA	0.0000		9999	1570	0	0	0
2019/10/08 11:38:00	BASE	7.74	9	8.85	5	-4.2	100	-4.2	96	0	982.1	NA	0.0000		9999	1540	0	0	0
2019/10/08 11:39:00	BASE	7.93	9	8.85	5	-4.2	99	-4.2	96	0	982.1	NA	0.0000		9999	1540	0	0	0
2019/10/08 11:40:00	BASE	7.96	8	8.85	5	-4.2	99	-4.3	96	0	982.1	NA	0.0000		9999	1510	0	0	0
2019/10/08 11:41:00	BASE	7.91	6	8.85	5	-4.1	99	-4.3	97	0	982.1	NA	0.0000		9999	1540	0	0	0
2019/10/08 11:42:00	BASE	7.74	6	8.85	5	-4.1	98	-4.3	97	0	982.1	NA	0.0000		9999	1540	0	0	0
2019/10/08 11:43:01	BASE	7.59	9	8.85	5	-4.1	98	-4.4	98	0	982.1	NA	0.0000		9999	1540	0	0	0
2019/10/08 11:44:00	BASE	7.49	12	8.49	8	-4.1	98	-4.4	100	0	982.1	NA	0.0000		9999	1570	0	0	0
2019/10/08 11:45:00	BASE	7.32	13	8.49	8	-4.1	98	-4.4	101	0	982.0	NA	0.0000		9999	1540	0	0	0
2019/10/08 11:46:00	BASE	7.34	13	8.49	8	-4.1	98	-4.4	103	0	982.0	NA	0.0000		9999	1570	0	0	0
2019/10/08 11:47:00	BASE	7.65	13	8.54	21	-4.1	98	-4.4	105	0	982.0	NA	0.0000		9999	1540	0	0	0
2019/10/08 11:48:00	BASE	8.18	15	9.21	13	-4.1	98	-4.4	107	0	982.0	NA	0.0000		9999	1610	0	0	0
2019/10/08 11:49:00	BASE	8.58	17	9.31	18	-4.1	98	-4.4	109	0	981.9	NA	0.0000		9999	1670	0	0	0
2019/10/08 11:50:00	BASE	8.84	17	9.31	16	-4.1	98	-4.4	110	0	981.8	NA	0.0000		9999	1610	0	0	0
2019/10/08 11:51:00	BASE	8.76	17	9.31	16	-4.1	98	-4.4	110	0	981.8	NA	0.0000		9999	1640	0	0	0
2019/10/08 11:52:00	BASE	8.47	17	9.31	16	-4.1	98	-4.4	111	0	981.8	NA	0.0000		9999	1540	0	0	0
2019/10/08 11:53:00	BASE	8.25	17	9.31	16	-4.1	98	-4.4	112	0	981.8	NA	0.0000		9999	1510	0	0	0
2019/10/08 11:54:00	BASE	8.19	19	9.31	16	-4.1	98	-4.4	114	0	981.8	NA	0.0000		9999	1540	0	0	0
2019/10/08 11:55:00	BASE	8.50	21	9.31	20	-4.1	97	-4.5	115	0	981.8	NA	0.0000		9999	1570	0	0	0
2019/10/08 11:56:00	BASE	8.54	22	9.31	20	-4.1	97	-4.5	117	0	981.7	NA	0.0000		9999	1570	0	0	0
2019/10/08 11:57:00	BASE	8.30	23	9.31	20	-4.1	97	-4.5	119	0	981.7	NA	0.0000		9999	1570	0	0	0
2019/10/08 11:58:00	BASE	7.89	24	9.31	20	-4.1	97	-4.5	122	0	981.7	NA	0.0000		9999	1570	0	0	0
2019/10/08 11:59:00	BASE	7.49	25	9.31	20	-4.1	97	-4.5	125	0	981.7	NA	0.0000		9999	1510	0	0	0
2019/10/08 12:00:00	BASE	7.80	26	9.31	20	-4.1	97	-4.5	127	0	981.7	NA	0.0000		9999	1510	0	0	0
2019/10/08 12:01:00	BASE	8.18	26	9.31	20	-4.1	97	-4.5	128	0	981.6	NA	0.0000		9999	1540	0	0	0
2019/10/08 12:02:00	BASE	8.05	25	9.31	20	-4.1	97	-4.5	129	0	981.7	NA	0.0000		9999	1670	0	0	0
2019/10/08 12:03:00	BASE	8.44	24	9.31	22	-4.0	97	-4.4	130	0	981.6	NA	0.0000		9999	1670	0	0	0
2019/10/08 12:04:00	BASE	8.78	23	9.52	20	-4.0	97	-4.4	133	0	981.6	NA	0.0000		9999	1740	0	0	0
2019/10/08 12:05:00	BASE	8.46	20	9.98	12	-4.0	97	-4.4	136	0	981.6	NA	0.0000		9999	1740	0	0	0
2019/10/08 12:06:00	BASE	8.24	21	9.98	12	-4.0	97	-4.4	140	0	981.6	NA	0.0000		9999	1740	0	0	0
2019/10/08 12:07:00	BASE	8.50	24	9.98	12	-4.0	97	-4.4	145	0	981.6	NA	0.0000		9999	1740	3740	0	0
2019/10/08 12:08:00	BASE	8.89	24	9.98	12	-4.0	97	-4.4	148	0	981.6	NA	0.0000		9999	1710	3740	0	0
2019/10/08 12:09:00	BASE	8.77	25	9.98	12	-3.9	96	-4.4	150	0	981.5	NA	0.0000		9999	3710	4690	0	0
2019/10/08 12:10:00	BASE	8.39	25	9.98	12	-3.9	96	-4.4	151	0	981.5	NA	0.0000		9999	1740	2300	3640	0
2019/10/08 12:11:00	BASE	8.59	23	9.98	12	-3.9	96	-4.4	152	0	981.5	NA	0.0000		9999	1740	2300	3670	0
2019/10/08 12:12:00	BASE	8.57	21	9.98	12	-3.9	96	-4.4	154	0	981.4	NA	0.0000		9999	2130	3670	4690	0
2019/10/08 12:13:00	BASE	8.48	20	9.98	12	-3.9	96	-4.4	155	0	981.4	NA	0.0000		9999	1640	0	0	0
2019/10/08 12:14:00	BASE	8.72	22	9.98	12	-3.9	96	-4.4	156	0	981.4	NA	0.0000		9999	1710	0	0	0
2019/10/08 12:15:00	BASE	8.93	24	9.77	25	-3.8	95	-4.5	157	0	981.3	NA	0.0000		9999	1840	0	0	0
2019/10/08 12:16:00	BASE	9.52	24	10.60	21	-3.8	95	-4.5	159	0	981.3	NA	0.0000		9999	1970	4330	0	0
2019/10/08 12:17:00	BASE	9.45	24	10.60	21	-3.8	95	-4.5	161	0	981.2	NA	0.0000		9999	2130	4270	0	0
2019/10/08 12:18:00	BASE	8.89	25	10.60	21	-3.8	95	-4.5	162	0	981.2	NA	0.0000		9999	4330	0	0	0
2019/10/08 12:19:00	BASE	9.04	23	11.37	14	-3.8	95	-4.5	164	0	981.2	NA	0.0000		9999	4360	0	0	0
2019/10/08 12:20:00	BASE	9.16	25	11.37	14	-3.8	94	-4.6	166	0	981.2	NA	0.0000		9999	4330	0	0	0
2019/10/08 12:21:00	BASE	8.95	30	11.37	14	-3.8	94	-4.6	168	0	981.2	NA	0.0000		9999	4360	0	0	0
2019/10/08 12:22:00	BASE	8.34	30	11.37	14	-3.8	94	-4.7	169	0	981.2	NA	0.0000		9999	4360	5220	0	0
2019/10/08 12:23:00	BASE	7.79	27	11.37	14	-3.8	93	-4.7	170	0	981.2	NA	0.0000		9999	1940	2920	3450	0
2019/10/08 12:24:00	BASE	7.85	26	11.37	14	-3.8	93	-4.7	171	0	981.1	NA	0.0000		9999	2920	4720	5220	0
2019/10/08 12:25:00	BASE	7.85	27	11.37	14	-3.8	93	-4.7	173	0	981.0	NA	0.0000		9999	2890	5150	0	0
2019/10/08 12:26:01	BASE	7.93	26	11.37	14	-3.8	93	-4.7	174	0	981.0	NA	0.0000		9999	1800	4720	0	0
2019/10/08 12:27:00	BASE	8.16	25	11.37	14	-3.7	93	-4.8	175	0	981.0	NA	0.0000		9999	4690	0	0	0
2019/10/08 12:28:01	BASE	8.55	24	11.37	14	-3.7	92	-4.8	176	0	981.0	NA	0.0000		9999	4590	5020	0	0
2019/10/08 12:29:00	BASE	8.48	23	9.77	29	-3.7	92	-4.8	176	0	981.0	NA	0.0000		9999	4530	5150	0	0
2019/10/08 12:30:01	BASE	7.89	23	9.77	29	-3.7	92	-4.8	176	0	981.0	NA	0.0000		9999	4490	0	0	0
2019/10/08 12:31:00	BASE	7.41	24	9.05	27	-3.7	92	-4.8	176	0	981.0	NA	0.0000		9999	4630	0	0	0
2019/10/08 12:32:01	BASE	7.39	25	9.05	27	-3.7	91	-4.9	176	0	981.0	NA	0.0000		9999	3050	4530	0	0
2019/10/08 12:33:01	BASE	7.39	25	9.05	27	-3.6	91	-4.9	177	0	981.0	NA	0.0000		9999	3050	4590	0	0
2019/10/08 12:34:00	BASE	7.09	27	9.05	27	-3.6	91	-4.9	177	0	981.0	NA	0.0000		9999	3020	4630	0	0
2019/10/08 12:35:01	BASE	7.19	25	9.05	27	-3.6	91	-4.9	176	0	981.0	NA	0.0000		9999	2950	5450	0	0
2019/10/08 12:36:01	BASE	7.76	23	9.05	27	-3.6	91	-4.9	176	0	981.0	NA	0.0000		9999	2920	4630	0	0
2019/10/08 12:37:00	BASE	8.05	23	9.05	27	-3.6	90	-4.9	175	0	981.0	NA	0.0000		9999	2890	3410	4690	0
2019/10/08 12:38:01	BASE	7.83	24	8.75	23	-3.6	90	-5.0	175	0	981.0	NA	0.0000		9999	2820	0	0	0
2019/10/08 12:39:00	BASE	7.53	25	8.75	23	-3.6	90	-5.0	176	0	980.9	NA	0.0000		9999	2820	0	0	0
2019/10/08 12:40:00	BASE	7.82	23	9.31	26	-3.6	90	-5.0	177	0	980.9	NA	0.0000		9999	2790	4630	0	0
2019/10/08 12:41:00	BASE	8.22	22	9.31	26	-3.6	90	-5.0	178	0	980.9	NA	0.0000		9999	2720	4530	0	0
2019/10/08 12:42:01	BASE	8.32	22	9.31	26	-3.5	89	-5.0	178	0	980.9	NA	0.0000		9999	2920	0	0	0
2019/10/08 12:43:00	BASE	8.32	20	9.31	26	-3.5	89	-5.0	178	0	980.9	NA	0.0000		9999	2950	4460	0	0
2019/10/08 12:44:01	BASE	8.07	18	9.31	26	-3.5	89	-5.1	178	0	980.8	NA	0.0000		9999	3020	4530	0	0
2019/10/08 12:45:00	BASE	7.75	17	9.31	26	-3.5	89	-5.1	177	0	980.8	NA	0.0000		9999	4590	0	0	0
2019/10/08 12:46:00	BASE	7.28	15	9.31	26	-3.5	88	-5.1	177	0	980.8	NA	0.0000		9999	4560	0	0	0
2019/10/08 12:47:00	BASE	6.75	12	9.31	26	-3.5	88	-5.2	176	0	980.8	NA	0.0000		9999	4660	0	0	0
2019/10/08 12:48:00	BASE	6.83	11	9.31	26	-3.5	88	-5.2	176	0	980.8	NA	0.0000		9999	2820	4660	0	0
2019/10/08 12:49:00	BASE	7.20	12	9.31	26	-3.5	88	-5.2	175	0	980.8	NA	0.0000		9999	2720	0	0	0
2019/10/08 12:50:00	BASE	7.19	14	9.21	18	-3.5	88	-5.2	174	0	980.8	NA	0.0000		9999	2690	0	0	0
2019/10/08 12:51:00	BASE	7.45	16	9.21	18	-3.5	88	-5.2	175	0	980.7	NA	0.0000		9999	2620	0	0	0
2019/10/08 12:52:00	BASE	7.70	17	9.00	19	-3.5	88	-5.2	176	0	980.7	NA	0.0000		9999	2590	0	0	0
2019/10/08 12:53:00	BASE	7.52	16	8.64	22	-3.5	88	-5.2	178	0	980.7	NA	0.0000		9999	2590	0	0	0
2019/10/08 12:54:00	BASE	7.46	15	8.39	16	-3.5	88	-5.2	181	0	980.7	NA	0.0000		9999	2560	0	0	0
2019/10/08 12:55:00	BASE	7.21	16	8.39	16	-3.5	88	-5.2	184	0	980.7	NA	0.0000		9999	2530	0	0	0
2019/10/08 12:56:00	BASE	7.06	17	8.39	16	-3.5	88	-5.2	186	0	980.6	NA	0.0000		9999	2530	0	0	0
2019/10/08 12:57:00	BASE	6.94	14	8.39	16	-3.4	88	-5.2	188	0	980.6	NA	0.0000		9999	2530	4950	0	0
2019/10/08 12:58:00	BASE	6.84	14	8.39	16	-3.4	87	-5.2	191	0	980.6	NA	0.0000		9999	2560	5020	0	0
2019/10/08 12:59:00	BASE	6.98	18	8.39	16	-3.4	87	-5.2	192	0	980.6	NA	0.0000		9999	2620	4860	0	0
2019/10/08 13:00:00	BASE	7.50	20	8.39	22	-3.4	87	-5.3	193	0	980.5	NA	0.0000		9999	2760	4860	0	0
2019/10/08 13:01:00	BASE	8.19	20	9.05	17	-3.4	87	-5.2	193	0	980.5	NA	0.0000		9999	2720	4790	0	0
2019/10/08 13:02:00	BASE	8.16	20	9.05	17	-3.4	87	-5.2	194	0	980.4	NA	0.0000		9999	2560	4860	0	0
2019/10/08 13:03:00	BASE	8.04	22	9.11	23	-3.4	87	-5.2	194	0	980.4	NA	0.0000		9999	2560	4820	0	0
2019/10/08 13:04:00	BASE	8.59	22	9.88	27	-3.4	87	-5.2	196	0	980.4	NA	0.0000		9999	2560	4860	0	0
2019/10/08 13:05:00	BASE	9.05	19	10.34	22	-3.3	87	-5.2	197	0	980.4	NA	0.0000		9999	2490	0	0	0
2019/10/08 13:06:00	BASE	7.81	17	10.34	22	-3.3	87	-5.2	199	0	980.4	NA	0.0000		9999	2530	0	0	0
2019/10/08 13:07:00	BASE	6.76	15	10.34	22	-3.3	87	-5.2	202	0	980.3	NA	0.0000		9999	2560	0	0	0
2019/10/08 13:08:00	BASE	7.54	14	10.34	22	-3.3	87	-5.2	204	0	980.3	NA	0.0000		9999	2590	0	0	0
2019/10/08 13:09:00	BASE	8.21	15	10.34	22	-3.3	87	-5.2	207	0	980.3	NA	0.0000		9999	2530	0	0	0
2019/10/08 13:10:00	BASE	8.19	18	10.34	22	-3.3	87	-5.2	209	0	980.2	NA	0.0000		9999	2560	0	0	0
2019/10/08 13:11:00	BASE	8.57	17	10.34	22	-3.3	87	-5.1	210	0	980.2	NA	0.0000		9999	2530	0	0	0
2019/10/08 13:12:00	BASE	9.08	15	10.44	17	-3.3	87	-5.2	211	0	980.2	NA	0.0000		9999	2620	0	0	0
2019/10/08 13:13:00	BASE	9.29	17	10.49	18	-3.3	87	-5.2	211	0	980.2	NA	0.0000		9999	2530	0	0	0
2019/10/08 13:14:00	BASE	9.41	17	10.80	14	-3.2	86	-5.2	211	0	980.2	NA	0.0000		9999	2530	0	0	0
2019/10/08 13:15:00	BASE	9.83	14	11.47	12	-3.2	86	-5.2	212	0	980.1	NA	0.0000		9999	2530	0	0	0
2019/10/08 13:16:00	BASE	9.69	14	11.47	12	-3.2	86	-5.2	213	0	980.1	NA	0.0000		9999	2530	0	0	0
2019/10/08 13:17:00	BASE	9.31	18	11.47	12	-3.2	86	-5.2	214	0	980.1	NA	0.0000		9999	2560	0	0	0
2019/10/08 13:18:00	BASE	9.78	20	11.47	12	-3.2	86	-5.3	215	0	980.0	NA	0.0000		9999	2490	0	0	0
2019/10/08 13:19:00	BASE	10.06	20	11.47	12	-3.2	85	-5.3	216	0	980.0	NA	0.0000		9999	2460	0	0	0
2019/10/08 13:20:00	BASE	10.43	20	11.47	12	-3.2	85	-5.4	217	0	980.0	NA	0.0000		9999	2560	0	0	0
2019/10/08 13:21:00	BASE	10.51	20	11.47	12	-3.2	84	-5.4	217	0	980.0	NA	0.0000		9999	2430	0	0	0
2019/10/08 13:22:00	BASE	10.29	20	11.52	14	-3.1	84	-5.5	216	0	980.0	NA	0.0000		9999	2460	0	0	0
2019/10/08 13:23:00	BASE	10.33	19	11.52	14	-3.1	84	-5.5	216	0	979.9	NA	0.0000		9999	2490	0	0	0
2019/10/08 13:24:00	BASE	10.27	18	11.52	14	-3.1	83	-5.5	217	0	979.9	NA	0.0000		9999	2430	0	0	0
2019/10/08 13:25:00	BASE	10.30	19	11.52	14	-3.1	83	-5.6	218	0	979.9	NA	0.0000		9999	2490	0	0	0
2019/10/08 13:26:00	BASE	10.06	19	11.52	14	-3.1	83	-5.6	220	0	979.9	NA	0.0000		9999	2560	0	0	0
2019/10/08 13:27:00	BASE	10.27	18	11.52	14	-3.1	83	-5.6	221	0	979.9	NA	0.0000		9999	2490	0	0	0
2019/10/08 13:28:00	BASE	10.38	18	11.52	14	-3.1	82	-5.7	220	0	979.9	NA	0.0000		9999	2560	4990	0	0
2019/10/08 13:29:00	BASE	9.76	16	11.52	14	-3.1	82	-5.7	218	0	979.9	NA	0.0000		9999	2460	0	0	0
2019/10/08 13:30:00	BASE	9.79	13	11.52	14	-3.1	82	-5.7	215	0	979.9	NA	0.0000		9999	2460	0	0	0
2019/10/08 13:31:00	BASE	9.84	12	11.52	14	-3.1	82	-5.7	213	0	979.9	NA	0.0000		9999	2460	0	0	0
2019/10/08 13:32:00	BASE	9.50	12	11.42	18	-3.1	82	-5.8	211	0	979.9	NA	0.0000		9999	2430	0	0	0
2019/10/08 13:33:00	BASE	9.31	12	11.42	18	-3.1	82	-5.8	210	0	979.9	NA	0.0000		9999	2400	0	0	0
2019/10/08 13:34:00	BASE	9.15	11	11.32	19	-3.1	81	-5.8	209	0	979.9	NA	0.0000		9999	2430	0	0	0
2019/10/08 13:35:00	BASE	9.24	10	11.32	19	-3.1	81	-5.9	209	0	979.9	NA	0.0000		9999	2430	0	0	0
2019/10/08 13:36:00	BASE	9.34	12	11.32	19	-3.1	81	-5.9	209	0	979.9	NA	0.0000		9999	2460	0	0	0
2019/10/08 13:37:00	BASE	9.66	12	11.27	10	-3.1	81	-5.9	209	0	979.8	NA	0.0000		9999	2430	0	0	0
2019/10/08 13:38:00	BASE	10.08	9	11.27	10	-3.1	81	-5.9	207	0	979.8	NA	0.0000		9999	2360	0	0	0
2019/10/08 13:39:00	BASE	9.88	7	11.27	10	-3.1	81	-5.9	205	0	979.8	NA	0.0000		9999	2360	0	0	0
2019/10/08 13:40:00	BASE	10.15	8	11.99	12	-3.1	81	-6.0	202	0	979.8	NA	0.0000		9999	2360	0	0	0
2019/10/08 13:41:00	BASE	10.35	6	11.99	12	-3.1	80	-6.0	202	0	979.8	NA	0.0000		9999	2300	0	0	0
2019/10/08 13:42:00	BASE	9.37	5	11.99	12	-3.1	80	-6.0	203	0	979.8	NA	0.0000		9999	2300	0	0	0
2019/10/08 13:43:00	BASE	9.30	7	11.99	12	-3.1	80	-6.1	205	0	979.8	NA	0.0000		9999	2330	0	0	0
2019/10/08 13:44:00	BASE	9.23	5	11.99	12	-3.1	80	-6.1	209	0	979.8	NA	0.0000		9999	2330	0	0	0
2019/10/08 13:45:00	BASE	8.35	4	11.99	12	-3.1	80	-6.1	212	0	979.8	NA	0.0000		9999	2360	0	0	0
2019/10/08 13:46:00	BASE	8.44	7	11.99	12	-3.1	80	-6.1	213	0	979.8	NA	0.0000		9999	2360	3940	18640	0
2019/10/08 13:47:00	BASE	8.80	11	11.99	12	-3.1	80	-6.0	215	0	979.7	NA	0.0000		9999	2490	4000	0	0
2019/10/08 13:48:00	BASE	8.87	10	11.99	12	-3.1	80	-6.0	219	0	979.7	NA	0.0000		9999	2530	3870	0	0
2019/10/08 13:49:00	BASE	8.50	10	11.99	12	-3.1	81	-6.0	225	0	979.7	NA	0.0000		9999	2360	0	0	0
2019/10/08 13:50:00	BASE	8.81	11	11.11	1	-3.1	81	-5.9	231	0	979.6	NA	0.0000		9999	2430	23030	0	0
2019/10/08 13:51:01	BASE	9.36	13	11.11	1	-3.1	81	-5.9	237	0	979.6	NA	0.0000		9999	2660	3900	0	0
2019/10/08 13:52:00	BASE	9.60	10	11.11	1	-3.1	81	-5.9	243	0	979.6	NA	0.0000		9999	2820	3900	0	0
2019/10/08 13:53:00	BASE	9.18	9	10.44	6	-3.1	81	-5.9	248	0	979.6	NA	0.0000		9999	2760	3940	0	0
2019/10/08 13:54:01	BASE	8.32	11	10.44	6	-3.1	81	-5.9	252	0	979.6	NA	0.0000		9999	2660	3940	0	0
2019/10/08 13:55:00	BASE	8.69	12	10.75	9	-3.1	81	-5.9	254	0	979.5	NA	0.0000		9999	3810	5320	0	0
2019/10/08 13:56:00	BASE	8.84	13	10.75	9	-3.1	81	-5.9	256	0	979.5	NA	0.0000		9999	2590	3940	5480	0
2019/10/08 13:57:00	BASE	8.59	14	10.75	9	-3.1	81	-5.9	257	0	979.5	NA	0.0000		9999	3840	5410	0	0
2019/10/08 13:58:00	BASE	8.67	16	10.75	9	-3.1	81	-5.9	258	0	979.4	NA	0.0000		9999	3840	5320	0	0
2019/10/08 13:59:00	BASE	8.99	16	10.80	14	-3.1	81	-5.9	259	0	979.4	NA	0.0000		9999	3810	0	0	0
2019/10/08 14:00:00	BASE	9.03	18	10.80	14	-3.1	81	-5.9	261	0	979.4	NA	0.0000		9999	3840	0	0	0
2019/10/08 14:01:00	BASE	9.04	19	11.37	13	-3.1	81	-5.9	261	0	979.3	NA	0.0000		9999	3770	5150	0	0
2019/10/08 14:02:00	BASE	9.96	16	11.57	18	-3.1	81	-5.9	260	0	979.3	NA	0.0000		9999	3810	5180	0	0
2019/10/08 14:03:00	BASE	11.10	17	12.24	16	-3.1	81	-5.9	258	0	979.3	NA	0.0000		9999	3770	0	0	0
2019/10/08 14:04:00	BASE	11.29	17	12.24	16	-3.1	81	-5.9	257	0	979.2	NA	0.0000		9999	3810	5150	0	0
2019/10/08 14:05:00	BASE	10.61	14	12.24	16	-3.1	81	-5.9	256	0	979.2	NA	0.0000		9999	3870	5020	0	0
2019/10/08 14:06:00	BASE	10.19	14	12.24	16	-3.1	81	-5.9	255	0	979.2	NA	0.0000		9999	3840	4950	0	0
2019/10/08 14:07:00	BASE	10.12	17	12.24	16	-3.1	81	-5.9	254	0	979.2	NA	0.0000		9999	3940	0	0	0
2019/10/08 14:08:00	BASE	11.03	19	12.96	23	-3.1	81	-5.9	252	0	979.1	NA	0.0000		9999	3940	4860	0	0
2019/10/08 14:09:00	BASE	11.80	18	12.96	23	-3.1	81	-5.9	251	0	979.1	NA	0.0000		9999	4720	17980	21490	0
2019/10/08 14:10:00	BASE	11.26	18	12.96	23	-3.1	81	-5.9	249	0	979.1	NA	0.0000		9999	4760	0	0	0
2019/10/08 14:11:00	BASE	10.96	21	12.96	23	-3.1	81	-5.9	248	0	979.1	NA	0.0000		9999	4400	0	0	0
2019/10/08 14:12:00	BASE	10.84	23	12.96	23	-3.1	81	-5.9	246	0	979.1	NA	0.0000		9999	4790	0	0	0
2019/10/08 14:13:00	BASE	10.91	22	12.96	23	-3.1	81	-5.9	244	0	979.0	NA	0.0000		9999	3900	4630	0	0
2019/10/08 14:14:00	BASE	11.44	22	12.96	23	-3.2	82	-5.9	242	0	979.0	NA	0.0000		9999	3900	4720	0	0
2019/10/08 14:15:00	BASE	11.35	20	12.96	23	-3.2	82	-5.9	239	0	979.0	NA	0.0000		9999	3940	4760	0	0
2019/10/08 14:16:00	BASE	11.17	21	12.96	23	-3.2	82	-5.8	236	0	979.0	NA	0.0000		9999	3840	4920	0	0
2019/10/08 14:17:00	BASE	10.93	22	12.96	23	-3.2	82	-5.8	231	0	979.0	NA	0.0000		9999	3900	4990	0	0
2019/10/08 14:18:00	BASE	10.28	21	12.71	15	-3.2	82	-5.8	228	0	979.0	NA	0.0000		9999	3020	3840	5090	0
2019/10/08 14:19:00	BASE	10.02	24	12.45	23	-3.2	82	-5.8	226	0	979.0	NA	0.0000		9999	2790	0	0	0
2019/10/08 14:20:00	BASE	9.72	25	12.45	23	-3.2	82	-5.9	225	0	979.0	NA	0.0000		9999	2820	3840	0	0
2019/10/08 14:21:00	BASE	9.60	24	12.45	23	-3.2	82	-5.9	225	0	979.0	NA	0.0000		9999	2920	3810	0	0
2019/10/08 14:22:00	BASE	9.43	23	12.45	23	-3.2	81	-5.9	226	0	979.0	NA	0.0000		9999	2820	3770	0	0
2019/10/08 14:23:00	BASE	9.32	22	12.45	23	-3.1	81	-5.9	228	0	978.9	NA	0.0000		9999	3740	0	0	0
2019/10/08 14:24:00	BASE	9.88	21	12.45	23	-3.1	81	-5.9	230	0	978.9	NA	0.0000		9999	3740	0	0	0
2019/10/08 14:25:00	BASE	10.46	22	12.45	23	-3.1	81	-5.9	233	0	978.8	NA	0.0000		9999	2760	3810	0	0
2019/10/08 14:26:00	BASE	10.92	23	12.45	23	-3.1	81	-5.9	236	0	978.8	NA	0.0000		9999	2850	3710	0	0
2019/10/08 14:27:00	BASE	11.26	22	12.35	24	-3.1	81	-5.9	240	0	978.7	NA	0.0000		9999	3080	3670	0	0
2019/10/08 14:28:00	BASE	12.04	22	14.10	24	-3.1	81	-5.9	243	0	978.7	NA	0.0000		9999	3710	0	0	0
2019/10/08 14:29:00	BASE	12.62	24	14.10	24	-3.1	81	-5.9	246	0	978.7	NA	0.0000		9999	2890	3740	22770	0
2019/10/08 14:30:00	BASE	11.94	23	14.10	24	-3.1	81	-5.9	248	0	978.7	NA	0.0000		9999	2820	0	0	0
2019/10/08 14:31:00	BASE	11.07	23	14.10	24	-3.1	81	-5.9	251	0	978.7	NA	0.0000		9999	2590	0	0	0
2019/10/08 14:32:00	BASE	10.87	24	14.10	24	-3.1	81	-5.9	254	0	978.6	NA	0.0000		9999	2790	0	0	0
2019/10/08 14:33:00	BASE	11.37	21	14.10	24	-3.1	81	-5.9	256	0	978.6	NA	0.0000		9999	2820	0	0	0
2019/10/08 14:34:00	BASE	11.19	22	14.10	24	-3.1	81	-5.9	257	0	978.6	NA	0.0000		9999	2890	3740	0	0
2019/10/08 14:35:00	BASE	11.13	23	14.10	24	-3.1	81	-5.9	256	0	978.6	NA	0.0000		9999	3020	3740	0	0
2019/10/08 14:36:00	BASE	11.83	22	14.10	24	-3.1	81	-5.9	255	0	978.5	NA	0.0000		9999	3640	0	0	0
2019/10/08 14:37:00	BASE	12.30	23	14.10	24	-3.1	81	-5.9	254	0	978.5	NA	0.0000		9999	3610	0	0	0
2019/10/08 14:38:00	BASE	12.52	23	13.48	24	-3.1	81	-5.9	254	0	978.5	NA	0.0000		9999	3610	0	0	0
2019/10/08 14:39:00	BASE	12.10	23	13.38	24	-3.1	81	-5.9	256	0	978.5	NA	0.0000		9999	3580	0	0	0
2019/10/08 14:40:00	BASE	11.63	23	13.38	24	-3.1	81	-5.9	259	0	978.5	NA	0.0000		9999	3580	0	0	0
2019/10/08 14:41:00	BASE	11.45	22	13.38	24	-3.1	81	-5.9	263	0	978.4	NA	0.0000		9999	3640	0	0	0
2019/10/08 14:42:01	BASE	11.45	22	13.38	24	-3.1	81	-5.9	267	0	978.4	NA	0.0000		9999	3580	0	0	0
2019/10/08 14:43:00	BASE	11.56	24	13.38	24	-3.1	81	-5.9	272	0	978.4	NA	0.0000		9999	3580	0	0	0
2019/10/08 14:44:00	BASE	11.86	22	13.79	17	-3.1	81	-5.9	276	0	978.3	NA	0.0000		9999	3580	0	0	0
2019/10/08 14:45:00	BASE	12.03	21	13.79	17	-3.1	81	-5.9	280	0	978.3	NA	0.0000		9999	3580	0	0	0
2019/10/08 14:46:00	BASE	12.10	22	13.79	17	-3.1	81	-5.9	284	0	978.4	NA	0.0000		9999	3710	0	0	0
2019/10/08 14:47:00	BASE	11.95	21	13.84	12	-3.1	81	-5.9	287	0	978.3	NA	0.0000		9999	3640	0	0	0
2019/10/08 14:48:00	BASE	11.30	22	13.84	12	-3.1	81	-5.9	290	0	978.3	NA	0.0000		9999	3710	0	0	0
2019/10/08 14:49:00	BASE	11.83	23	14.04	23	-3.0	81	-5.8	293	0	978.3	NA	0.0000		9999	3050	3670	0	0
2019/10/08 14:50:00	BASE	12.78	22	14.20	18	-3.0	81	-5.8	294	0	978.2	NA	0.0000		9999	3510	0	0	0
2019/10/08 14:51:00	BASE	12.84	23	14.40	19	-3.0	81	-5.8	294	0	978.2	NA	0.0000		9999	3380	0	0	0
2019/10/08 14:52:01	BASE	13.19	21	14.92	22	-3.0	81	-5.8	294	0	978.2	NA	0.0000		9999	3480	0	0	0
2019/10/08 14:53:00	BASE	12.60	20	14.92	22	-3.0	81	-5.8	293	0	978.2	NA	0.0000		9999	3580	0	0	0
2019/10/08 14:54:00	BASE	12.52	21	14.92	22	-3.0	81	-5.8	290	0	978.2	NA	0.0000		9999	3670	0	0	0
2019/10/08 14:55:00	BASE	13.38	21	14.92	22	-3.0	81	-5.9	286	0	978.2	NA	0.0000		9999	3580	0	0	0
2019/10/08 14:56:00	BASE	13.45	22	14.92	22	-3.0	80	-5.9	282	0	978.2	NA	0.0000		9999	3150	0	0	0
2019/10/08 14:57:00	BASE	13.70	23	14.92	22	-3.0	80	-5.9	278	0	978.2	NA	0.0000		9999	3220	0	0	0
2019/10/08 14:58:00	BASE	13.76	22	15.07	20	-3.0	80	-6.0	274	0	978.2	NA	0.0000		9999	3710	0	0	0
2019/10/08 14:59:00	BASE	13.34	22	15.07	20	-3.0	80	-6.0	271	0	978.1	NA	0.0000		9999	3120	3670	0	0
2019/10/08 15:00:00	BASE	13.32	20	15.07	20	-3.0	80	-6.0	270	0	978.1	NA	0.0000		9999	3120	0	0	0
2019/10/08 15:01:00	BASE	13.08	23	15.07	20	-3.0	80	-6.0	268	0	978.1	NA	0.0000		9999	3020	3740	0	0
2019/10/08 15:02:00	BASE	12.37	25	15.07	20	-3.0	80	-6.0	266	0	978.1	NA	0.0000		9999	3710	0	0	0
2019/10/08 15:03:00	BASE	12.04	23	15.07	20	-3.0	80	-6.0	264	0	978.1	NA	0.0000		9999	3740	0	0	0
2019/10/08 15:04:00	BASE	11.97	24	15.07	20	-3.0	80	-6.0	262	0	978.1	NA	0.0000		9999	3670	0	0	0
2019/10/08 15:05:00	BASE	11.92	25	15.07	20	-3.0	80	-5.9	260	0	978.1	NA	0.0000		9999	3710	0	0	0
2019/10/08 15:06:00	BASE	11.10	27	15.07	20	-3.0	80	-5.9	258	0	978.1	NA	0.0000		9999	3640	0	0	0
2019/10/08 15:07:00	BASE	10.91	24	15.07	20	-3.0	81	-5.9	255	0	978.0	NA	0.0000		9999	3710	0	0	0
2019/10/08 15:08:00	BASE	12.13	20	14.56	16	-3.0	81	-5.8	253	0	978.0	NA	0.0000		9999	3050	3610	0	0
2019/10/08 15:09:00	BASE	12.70	21	14.46	19	-3.0	81	-5.8	252	0	978.0	NA	0.0000		9999	3640	0	0	0
2019/10/08 15:10:00	BASE	12.87	23	14.61	33	-3.0	81	-5.9	251	0	978.0	NA	0.0000		9999	3150	3710	0	0
2019/10/08 15:11:00	BASE	12.62	24	14.61	33	-3.0	80	-5.9	250	0	977.9	NA	0.0000		9999	3050	0	0	0
2019/10/08 15:12:00	BASE	12.31	23	14.61	33	-3.0	80	-5.9	250	0	977.9	NA	0.0000		9999	3450	0	0	0
2019/10/08 15:13:00	BASE	12.89	22	14.61	33	-3.0	80	-6.0	251	0	977.9	NA	0.0000		9999	3310	0	0	0
2019/10/08 15:14:00	BASE	13.26	23	14.61	33	-3.0	80	-6.0	252	0	977.9	NA	0.0000		9999	3120	3670	21420	0
2019/10/08 15:15:00	BASE	13.57	23	14.61	33	-3.0	80	-6.0	254	0	977.9	NA	0.0000		9999	3120	20110	0	0
2019/10/08 15:16:00	BASE	13.94	22	14.92	25	-3.0	80	-6.0	254	0	977.8	NA	0.0000		9999	3740	0	0	0
2019/10/08 15:17:00	BASE	13.45	23	14.92	25	-3.0	80	-6.0	254	0	977.8	NA	0.0000		9999	3710	0	0	0
2019/10/08 15:18:00	BASE	12.96	21	14.92	17	-3.0	80	-6.0	255	0	977.8	NA	0.0000		9999	3080	0	0	0
2019/10/08 15:19:00	BASE	12.81	19	14.92	17	-3.0	80	-6.0	255	0	977.8	NA	0.0000		9999	3670	0	0	0
2019/10/08 15:20:00	BASE	11.99	19	14.92	17	-3.0	80	-6.0	252	0	977.7	NA	0.0000		9999	3770	0	0	0
2019/10/08 15:21:00	BASE	12.51	20	15.48	19	-3.0	80	-6.0	247	0	977.7	NA	0.0000		9999	3770	0	0	0
2019/10/08 15:22:00	BASE	13.22	21	15.48	19	-3.0	80	-6.0	243	0	977.7	NA	0.0000		9999	3770	5480	0	0
2019/10/08 15:23:00	BASE	12.77	20	15.48	19	-3.1	80	-6.0	239	0	977.7	NA	0.0000		9999	3770	0	0	0
2019/10/08 15:24:00	BASE	13.28	19	15.48	19	-3.1	80	-6.0	237	0	977.6	NA	0.0000		9999	3840	0	0	0
2019/10/08 15:25:00	BASE	13.78	20	15.64	21	-3.1	80	-6.0	237	0	977.6	NA	0.0000		9999	3810	5580	0	0
2019/10/08 15:26:00	BASE	13.63	19	15.64	21	-3.1	81	-6.0	237	0	977.5	NA	0.0000		9999	3810	0	0	0
2019/10/08 15:27:00	BASE	13.41	20	15.64	21	-3.1	81	-5.9	237	0	977.5	NA	0.0000		9999	3770	5540	0	0
2019/10/08 15:28:00	BASE	13.08	19	15.64	21	-3.1	81	-5.9	238	0	977.4	NA	0.0000		9999	3810	5540	0	0
2019/10/08 15:29:00	BASE	13.39	18	15.64	21	-3.1	81	-5.9	238	0	977.4	NA	0.0000		9999	3840	5770	0	0
2019/10/08 15:30:00	BASE	13.80	21	15.64	21	-3.1	81	-5.9	239	0	977.4	NA	0.0000		9999	3810	5680	0	0
2019/10/08 15:31:00	BASE	14.30	22	16.00	25	-3.1	81	-5.9	241	0	977.3	NA	0.0000		9999	3810	5510	0	0
2019/10/08 15:32:00	BASE	14.37	20	16.00	25	-3.1	81	-5.9	242	0	977.3	NA	0.0000		9999	3840	5540	0	0
2019/10/08 15:33:00	BASE	14.28	21	16.00	25	-3.1	81	-5.9	244	0	977.2	NA	0.0000		9999	3810	5640	0	0
2019/10/08 15:34:00	BASE	14.94	21	17.44	20	-3.1	81	-5.9	246	0	977.2	NA	0.0000		9999	3840	5810	0	0
2019/10/08 15:35:00	BASE	14.83	22	17.59	23	-3.1	81	-5.9	248	0	977.1	NA	0.0000		9999	3840	5810	0	0
2019/10/08 15:36:00	BASE	15.39	23	17.59	23	-3.2	81	-6.0	249	0	977.1	NA	0.0000		9999	3870	5680	0	0
2019/10/08 15:37:00	BASE	15.59	21	17.59	23	-3.2	81	-5.9	251	0	977.1	NA	0.0000		9999	3900	5740	0	0
2019/10/08 15:38:00	BASE	14.87	21	17.59	23	-3.2	81	-5.9	252	0	977.1	NA	0.0000		9999	3940	5680	0	0
2019/10/08 15:39:00	BASE	14.36	21	17.59	23	-3.2	81	-5.9	251	0	977.1	NA	0.0000		9999	4000	5770	0	0
2019/10/08 15:40:00	BASE	14.44	21	17.59	23	-3.2	81	-5.9	251	0	977.0	NA	0.0000		9999	3970	5810	0	0
2019/10/08 15:41:00	BASE	15.02	20	17.59	23	-3.1	81	-5.9	250	0	976.9	NA	0.0000		9999	5740	0	0	0
2019/10/08 15:42:00	BASE	14.83	19	17.59	23	-3.1	81	-5.9	248	0	976.9	NA	0.0000		9999	5680	0	0	0
2019/10/08 15:43:00	BASE	15.29	20	17.59	23	-3.1	81	-5.9	247	0	976.9	NA	0.0000		9999	5610	21230	0	0
2019/10/08 15:44:00	BASE	14.81	20	17.59	23	-3.1	81	-5.9	246	0	976.9	NA	0.0000		9999	5710	0	0	0
2019/10/08 15:45:00	BASE	13.90	20	17.44	20	-3.1	81	-5.9	245	0	976.9	NA	0.0000		9999	5810	0	0	0
2019/10/08 15:46:00	BASE	14.85	20	17.44	20	-3.1	81	-5.9	244	0	976.8	NA	0.0000		9999	5710	0	0	0
2019/10/08 15:47:00	BASE	15.60	21	18.01	19	-3.1	81	-5.9	243	0	976.8	NA	0.0000		9999	5640	18640	0	0
2019/10/08 15:48:00	BASE	15.82	24	18.67	16	-3.1	81	-5.9	242	0	976.7	NA	0.0000		9999	5680	0	0	0
2019/10/08 15:49:00	BASE	16.76	24	19.29	27	-3.1	81	-5.9	242	0	976.7	NA	0.0000		9999	5640	19290	22700	0
2019/10/08 15:50:00	BASE	17.74	24	19.50	26	-3.1	81	-5.9	242	0	976.6	NA	0.0000		9999	5680	0	0	0
2019/10/08 15:51:00	BASE	17.30	25	19.50	26	-3.1	81	-6.0	243	0	976.6	NA	0.0000		9999	5610	0	0	0
2019/10/08 15:52:00	BASE	17.34	25	20.06	27	-3.1	80	-6.0	244	0	976.5	NA	0.0000		9999	5610	0	0	0
2019/10/08 15:53:00	BASE	18.08	26	20.42	24	-3.1	80	-6.0	245	0	976.5	NA	0.0000		9999	5680	0	0	0
2019/10/08 15:54:00	BASE	18.74	25	21.50	28	-3.1	80	-6.1	246	0	976.4	NA	0.0000		9999	5640	0	0	0
2019/10/08 15:55:00	BASE	19.49	25	21.50	15	-3.1	80	-6.1	246	0	976.4	NA	0.0000		9999	5680	0	0	0
2019/10/08 15:56:00	BASE	18.18	26	21.50	15	-3.1	80	-6.1	245	0	976.5	NA	0.0000		9999	5710	0	0	0
2019/10/08 15:57:00	BASE	16.27	29	21.50	15	-3.1	80	-6.1	243	0	976.5	NA	0.0000		9999	5640	0	0	0
2019/10/08 15:58:00	BASE	15.44	32	21.50	15	-3.1	80	-6.1	242	0	976.5	NA	0.0000		9999	5640	0	0	0
2019/10/08 15:59:00	BASE	15.60	30	21.50	15	-3.1	80	-6.1	241	0	976.4	NA	0.0000		9999	5610	0	0	0
2019/10/08 16:00:00	BASE	16.09	31	21.50	15	-3.1	80	-6.1	240	0	976.4	NA	0.0000		9999	5610	0	0	0
2019/10/08 16:01:00	BASE	14.98	31	21.50	15	-3.1	80	-6.1	240	0	976.4	NA	0.0000		9999	5580	0	0	0
2019/10/08 16:02:00	BASE	13.54	30	21.50	15	-3.1	79	-6.2	240	0	976.5	NA	0.0000		9999	5580	0	0	0
2019/10/08 16:03:00	BASE	12.91	34	21.50	15	-3.1	79	-6.2	240	0	976.4	NA	0.0000		9999	5510	0	0	0
2019/10/08 16:04:00	BASE	12.02	36	21.50	15	-3.1	79	-6.2	241	0	976.5	NA	0.0000		9999	5510	0	0	0
2019/10/08 16:05:00	BASE	12.99	35	20.78	27	-3.1	79	-6.2	242	0	976.4	NA	0.0000		9999	5540	0	0	0
2019/10/08 16:06:00	BASE	14.00	34	18.73	23	-3.1	79	-6.2	244	0	976.4	NA	0.0000		9999	5480	0	0	0
2019/10/08 16:07:00	BASE	13.98	36	18.73	23	-3.1	79	-6.2	245	0	976.4	NA	0.0000		9999	5450	0	0	0
2019/10/08 16:08:00	BASE	13.96	37	18.73	23	-3.0	79	-6.1	247	0	976.4	NA	0.0000		9999	5450	0	0	0
2019/10/08 16:09:00	BASE	13.08	39	18.01	33	-3.0	79	-6.1	249	0	976.5	NA	0.0000		9999	5450	0	0	0
2019/10/08 16:10:00	BASE	12.74	36	17.75	45	-3.0	79	-6.2	251	0	976.4	NA	0.0000		9999	5450	0	0	0
2019/10/08 16:11:00	BASE	12.06	30	17.75	45	-3.0	79	-6.2	253	0	976.4	NA	0.0000		9999	5480	0	0	0
2019/10/08 16:12:00	BASE	11.29	30	17.75	45	-3.0	78	-6.2	255	0	976.4	NA	0.0000		9999	5450	0	0	0
2019/10/08 16:13:00	BASE	11.16	36	17.75	45	-3.0	78	-6.3	257	0	976.4	NA	0.0000		9999	5320	0	0	0
2019/10/08 16:14:00	BASE	10.88	36	17.75	45	-3.0	78	-6.3	261	0	976.4	NA	0.0000		9999	5380	0	0	0
2019/10/08 16:15:00	BASE	12.00	34	17.18	43	-3.0	78	-6.3	266	0	976.3	NA	0.0000		9999	5410	0	0	0
2019/10/08 16:16:00	BASE	13.62	34	17.18	43	-3.0	78	-6.3	272	0	976.2	NA	0.0000		9999	5350	0	0	0
2019/10/08 16:17:00	BASE	12.44	35	17.18	43	-3.0	78	-6.3	277	0	976.2	NA	0.0000		9999	5380	0	0	0
2019/10/08 16:18:00	BASE	11.60	35	15.48	43	-2.9	78	-6.3	278	0	976.2	NA	0.0000		9999	5280	0	0	0
2019/10/08 16:19:00	BASE	12.93	37	16.77	42	-2.9	77	-6.3	278	0	976.2	NA	0.0000		9999	5320	0	0	0
2019/10/08 16:20:00	BASE	14.06	37	19.55	26	-2.9	77	-6.3	277	0	976.1	NA	0.0000		9999	5320	0	0	0
2019/10/08 16:21:00	BASE	15.60	35	19.55	26	-2.9	77	-6.4	275	0	976.0	NA	0.0000		9999	5280	0	0	0
2019/10/08 16:22:00	BASE	17.04	35	20.27	43	-2.9	77	-6.4	272	0	976.0	NA	0.0000		9999	5250	0	0	0
2019/10/08 16:23:00	BASE	16.12	37	20.27	43	-2.9	76	-6.5	268	0	976.0	NA	0.0000		9999	5220	0	0	0
2019/10/08 16:24:00	BASE	14.08	40	20.27	43	-2.9	76	-6.5	265	0	976.0	NA	0.0000		9999	5250	0	0	0
2019/10/08 16:25:00	BASE	13.21	38	20.27	43	-2.9	76	-6.5	262	0	976.0	NA	0.0000		9999	5150	0	0	0
2019/10/08 16:26:00	BASE	14.08	37	20.27	43	-2.8	76	-6.6	261	0	975.9	NA	0.0000		9999	5150	0	0	0
2019/10/08 16:27:00	BASE	14.07	37	20.27	43	-2.8	75	-6.6	261	0	975.9	NA	0.0000		9999	5120	0	0	0
2019/10/08 16:28:00	BASE	13.49	33	20.27	43	-2.8	75	-6.6	262	0	975.9	NA	0.0000		9999	4660	0	0	0
2019/10/08 16:29:00	BASE	14.45	30	20.27	43	-2.8	75	-6.6	264	0	975.8	NA	0.0000		9999	4530	5180	0	0
2019/10/08 16:30:00	BASE	15.34	29	20.27	43	-2.8	75	-6.6	267	0	975.8	NA	0.0000		9999	4590	5250	22510	0
2019/10/08 16:31:00	BASE	14.91	31	20.27	43	-2.8	75	-6.6	270	0	975.8	NA	0.0000		9999	4660	5380	0	0
2019/10/08 16:32:00	BASE	13.75	34	19.24	22	-2.8	75	-6.6	275	0	975.8	NA	0.0000		9999	4660	0	0	0
2019/10/08 16:33:00	BASE	13.68	29	19.24	22	-2.8	75	-6.6	279	0	975.7	NA	0.0000		9999	4660	5510	0	0
2019/10/08 16:34:00	BASE	14.44	29	19.24	22	-2.8	75	-6.6	282	0	975.8	NA	0.0000		9999	4630	0	0	0
2019/10/08 16:35:00	BASE	14.94	33	19.24	22	-2.8	75	-6.6	284	0	975.7	NA	0.0000		9999	4660	5710	0	0
2019/10/08 16:36:00	BASE	17.51	28	24.18	30	-2.8	75	-6.7	287	0	975.6	NA	0.0000		9999	4790	0	0	0
2019/10/08 16:37:00	BASE	18.06	28	24.18	30	-2.8	74	-6.7	289	0	975.7	NA	0.0000		9999	4660	5840	0	0
2019/10/08 16:38:00	BASE	15.82	31	24.18	30	-2.8	74	-6.8	293	0	975.7	NA	0.0000		9999	4690	0	0	0
2019/10/08 16:39:00	BASE	15.23	30	24.18	30	-2.8	73	-6.9	298	0	975.6	NA	0.0000		9999	4820	5870	0	0
2019/10/08 16:40:00	BASE	15.19	29	24.18	30	-2.8	73	-7.0	303	0	975.6	NA	0.0000		9999	4820	5910	0	0
2019/10/08 16:41:00	BASE	15.04	32	24.18	30	-2.8	72	-7.1	310	0	975.6	NA	0.0000		9999	4760	5910	0	0
2019/10/08 16:42:00	BASE	15.51	36	24.18	30	-2.8	72	-7.1	320	0	975.6	NA	0.0000		9999	4790	0	0	0
2019/10/08 16:43:00	BASE	16.76	40	24.18	30	-2.8	72	-7.1	329	0	975.5	NA	0.0000	UP	9999	4720	6070	17950	0
2019/10/08 16:44:00	BASE	17.00	39	24.18	30	-2.8	72	-7.1	332	0	975.5	NA	0.0000	UP	9999	4990	0	0	0
2019/10/08 16:45:00	BASE	15.74	36	24.18	30	-2.8	72	-7.1	336	0	975.6	NA	0.0000	UP	9999	4860	0	0	0
2019/10/08 16:46:00	BASE	14.99	36	20.17	35	-2.8	72	-7.1	340	0	975.5	NA	0.0000	UP	9999	4820	5740	23030	0
2019/10/08 16:47:00	BASE	14.48	33	20.17	35	-2.8	73	-7.0	325	0	975.5	NA	0.0000	UP	9999	5120	5810	0	0
2019/10/08 16:48:00	BASE	13.42	27	20.17	35	-2.8	73	-7.0	319	0	975.5	NA	0.0000	UP	9999	4790	6000	0	0
2019/10/08 16:49:00	BASE	12.74	28	20.17	35	-2.8	73	-7.0	316	0	975.5	NA	0.0000	UP	9999	4890	5840	0	0
2019/10/08 16:50:00	BASE	13.36	32	20.17	35	-2.8	73	-6.9	315	0	975.4	NA	0.0000	UP	9999	4950	6040	0	0
2019/10/08 16:51:00	BASE	15.00	32	20.17	35	-2.8	74	-6.9	315	0	975.4	NA	0.0000		9999	4920	6040	22610	0
2019/10/08 16:52:00	BASE	14.52	32	20.17	35	-2.8	74	-6.8	314	0	975.4	NA	0.0000		9999	5050	6000	0	0
2019/10/08 16:53:00	BASE	14.12	35	19.39	24	-2.8	74	-6.8	311	0	975.3	NA	0.0000		9999	5090	5910	0	0
2019/10/08 16:54:00	BASE	15.53	36	21.30	32	-2.8	74	-6.8	309	0	975.3	NA	0.0000		9999	5320	0	0	0
2019/10/08 16:55:00	BASE	16.01	37	21.30	32	-2.9	74	-6.9	306	0	975.3	NA	0.0000		9999	6040	0	0	0
2019/10/08 16:56:00	BASE	14.75	38	21.30	32	-2.9	74	-6.9	302	0	975.3	NA	0.0000		9999	5580	0	0	0
2019/10/08 16:57:00	BASE	14.37	36	21.30	32	-2.9	74	-6.9	298	0	975.3	NA	0.0000		9999	6040	0	0	0
2019/10/08 16:58:00	BASE	14.91	34	21.30	32	-2.9	74	-6.9	295	0	975.3	NA	0.0000		9999	6170	0	0	0
2019/10/08 16:59:00	BASE	15.12	35	21.30	32	-2.9	74	-6.9	293	0	975.2	NA	0.0000		9999	6170	0	0	0
2019/10/08 17:00:00	BASE	15.39	36	21.30	32	-2.9	74	-6.8	290	0	975.1	NA	0.0000		9999	5870	23950	0	0
2019/10/08 17:01:00	BASE	15.15	36	21.66	30	-2.9	75	-6.8	287	0	975.1	NA	0.0000		9999	6100	0	0	0
2019/10/08 17:02:00	BASE	16.01	37	21.66	30	-2.9	75	-6.8	284	0	975.1	NA	0.0000		9999	6230	0	0	0
2019/10/08 17:03:00	BASE	17.08	38	21.66	30	-2.9	75	-6.7	282	0	975.1	NA	0.0000		9999	6230	0	0	0
2019/10/08 17:04:00	BASE	16.09	36	21.66	30	-2.9	75	-6.7	280	0	975.1	NA	0.0000		9999	6300	0	0	0
2019/10/08 17:05:00	BASE	15.34	34	21.66	30	-2.9	75	-6.8	277	0	975.1	NA	0.0000		9999	6170	12630	19950	0
2019/10/08 17:06:00	BASE	15.50	37	21.66	30	-3.0	75	-6.7	275	0	975.0	NA	0.0000		9999	6170	0	0	0
2019/10/08 17:07:00	BASE	15.35	39	21.66	30	-3.0	75	-6.7	273	0	975.0	NA	0.0000		9999	6300	0	0	0
2019/10/08 17:08:00	BASE	14.38	41	21.66	30	-3.0	76	-6.7	271	0	975.0	NA	0.0000		9999	6230	0	0	0
2019/10/08 17:09:00	BASE	13.29	40	21.66	30	-3.0	76	-6.6	269	0	975.0	NA	0.0000		9999	6070	0	0	0
2019/10/08 17:10:00	BASE	13.18	38	21.66	30	-3.0	76	-6.6	267	0	974.9	NA	0.0000	UP	9999	6140	0	0	0
2019/10/08 17:11:00	BASE	12.89	40	20.11	36	-3.0	76	-6.6	264	0	974.9	NA	0.0000	UP	9999	6070	0	0	0
2019/10/08 17:12:00	BASE	12.96	42	18.98	39	-3.0	76	-6.6	261	0	974.8	NA	0.0000	UP	9999	6230	0	0	0
2019/10/08 17:13:00	BASE	13.76	40	18.73	36	-3.0	76	-6.6	259	0	974.8	NA	0.0000	UP	9999	6230	0	0	0
2019/10/08 17:14:00	BASE	13.42	40	18.73	36	-3.0	76	-6.6	257	0	974.8	NA	0.0000	UP	9999	6170	0	0	0
2019/10/08 17:15:00	BASE	13.27	40	18.73	36	-3.0	76	-6.6	257	0	974.8	NA	0.0000	UP	9999	4990	6140	0	0
2019/10/08 17:16:00	BASE	15.61	37	21.25	28	-3.0	76	-6.6	256	0	974.7	NA	0.0000	UP	9999	6170	0	0	0
2019/10/08 17:17:00	BASE	16.73	35	21.25	28	-3.0	76	-6.6	256	0	974.7	NA	0.0000	UP	9999	5710	23520	0	0
2019/10/08 17:18:00	BASE	16.16	34	21.25	28	-3.0	76	-6.6	255	0	974.7	NA	0.0000	UP	9999	4820	0	0	0
2019/10/08 17:19:00	BASE	15.05	38	21.25	28	-3.0	76	-6.6	254	0	974.8	NA	0.0000		9999	4920	5770	0	0
2019/10/08 17:20:00	BASE	13.78	39	21.25	28	-3.0	76	-6.6	254	0	974.8	NA	0.0000		9999	6960	0	0	0
2019/10/08 17:21:00	BASE	14.04	38	21.25	28	-3.0	76	-6.6	254	0	974.7	NA	0.0000		9999	4660	0	0	0
2019/10/08 17:22:00	BASE	14.87	38	21.25	28	-3.0	76	-6.6	253	0	974.7	NA	0.0000		9999	6660	0	0	0
2019/10/08 17:23:00	BASE	14.46	37	21.25	28	-3.0	76	-6.7	253	0	974.7	NA	0.0000		9999	6370	0	0	0
2019/10/08 17:24:00	BASE	14.03	37	21.25	28	-3.0	76	-6.7	252	0	974.7	NA	0.0000		9999	4230	18010	0	0
2019/10/08 17:25:00	BASE	13.94	43	21.25	28	-3.0	75	-6.7	251	0	974.7	NA	0.0000		9999	4330	0	0	0
2019/10/08 17:26:00	BASE	12.74	45	20.01	35	-3.0	75	-6.8	249	0	974.7	NA	0.0000		9999	4460	0	0	0
2019/10/08 17:27:00	BASE	10.98	44	20.01	35	-3.0	75	-6.8	249	0	974.7	NA	0.0000		9999	4660	0	0	0
2019/10/08 17:28:00	BASE	11.00	40	20.01	35	-3.0	75	-6.7	248	0	974.7	NA	0.0000		9999	4430	0	0	0
2019/10/08 17:29:00	BASE	12.61	41	20.01	35	-3.0	76	-6.7	248	0	974.6	NA	0.0000		9999	4460	0	0	0
2019/10/08 17:30:00	BASE	12.22	44	20.01	35	-3.0	76	-6.7	248	0	974.7	NA	0.0000		9999	4490	0	0	0
2019/10/08 17:31:00	BASE	11.92	42	20.01	35	-3.0	76	-6.7	249	0	974.6	NA	0.0000		9999	4560	0	0	0
2019/10/08 17:32:00	BASE	12.89	42	19.24	33	-3.0	76	-6.7	250	0	974.6	NA	0.0000		9999	5120	0	0	0
2019/10/08 17:33:00	BASE	13.24	39	16.77	24	-3.0	75	-6.7	252	0	974.6	NA	0.0000		9999	4590	0	0	0
2019/10/08 17:34:00	BASE	11.12	38	16.77	24	-3.0	75	-6.8	253	0	974.6	NA	0.0000		9999	4560	0	0	0
2019/10/08 17:35:00	BASE	9.49	42	16.77	24	-3.0	75	-6.9	253	0	974.6	NA	0.0000		9999	4820	0	0	0
2019/10/08 17:36:00	BASE	9.23	50	16.77	24	-3.0	75	-6.9	252	0	974.7	NA	0.0000		9999	4720	0	0	0
2019/10/08 17:37:00	BASE	9.30	47	16.77	24	-3.0	74	-6.9	251	0	974.6	NA	0.0000		9999	4820	0	0	0
2019/10/08 17:38:00	BASE	8.31	48	15.95	44	-3.0	74	-6.9	252	0	974.6	NA	0.0000		9999	4950	0	0	0
2019/10/08 17:39:00	BASE	6.22	64	15.95	44	-3.0	74	-6.9	255	0	974.6	NA	0.0000		9999	4950	0	0	0
2019/10/08 17:40:00	BASE	5.64	50	15.95	44	-3.0	74	-6.9	259	0	974.6	NA	0.0000		9999	4920	0	0	0
2019/10/08 17:41:00	BASE	4.99	39	15.95	44	-3.0	74	-7.0	262	0	974.5	NA	0.0000		9999	4860	0	0	0
2019/10/08 17:42:00	BASE	6.22	37	15.38	39	-3.0	74	-7.0	265	0	974.5	NA	0.0000		9999	4760	0	0	0
2019/10/08 17:43:00	BASE	6.39	56	13.07	29	-3.0	74	-7.0	268	0	974.5	NA	0.0000		9999	4950	0	0	0
2019/10/08 17:44:00	BASE	4.92	73	12.60	31	-3.0	74	-7.0	269	0	974.4	NA	0.0000		9999	4950	0	0	0
2019/10/08 17:45:00	BASE	4.95	43	12.60	31	-3.0	74	-7.0	270	0	974.4	NA	0.0000		9999	5020	0	0	0
2019/10/08 17:46:00	BASE	5.50	38	12.60	31	-3.0	74	-7.0	271	0	974.4	NA	0.0000		9999	4950	0	0	0
2019/10/08 17:47:00	BASE	5.47	51	10.65	37	-3.0	74	-7.0	273	0	974.3	NA	0.0000		9999	4890	0	0	0
2019/10/08 17:48:00	BASE	3.74	87	10.60	26	-3.0	73	-7.0	273	0	974.3	NA	0.0000		9999	4890	0	0	0
2019/10/08 17:49:00	BASE	3.01	111	10.60	26	-2.9	73	-7.1	272	0	974.3	NA	0.0000		9999	5090	0	0	0
2019/10/08 17:50:00	BASE	4.43	67	11.83	51	-2.9	73	-7.1	270	0	974.3	NA	0.0000		9999	5180	0	0	0
2019/10/08 17:51:00	BASE	4.81	35	11.83	51	-2.9	73	-7.1	267	0	974.2	NA	0.0000		9999	5120	0	0	0
2019/10/08 17:52:00	BASE	5.35	32	11.83	51	-2.9	73	-7.1	264	0	974.2	NA	0.0000		9999	4920	0	0	0
2019/10/08 17:53:00	BASE	5.66	33	11.83	51	-2.9	72	-7.2	263	0	974.2	NA	0.0000		9999	4950	0	0	0
2019/10/08 17:54:00	BASE	4.50	42	11.83	51	-2.9	72	-7.3	261	0	974.2	NA	0.0000		9999	4990	0	0	0
2019/10/08 17:55:00	BASE	3.71	39	11.83	51	-2.9	71	-7.4	260	0	974.2	NA	0.0000		9999	5050	0	0	0
2019/10/08 17:56:00	BASE	3.91	39	11.83	51	-2.9	71	-7.4	260	0	974.2	NA	0.0000		9999	5050	0	0	0
2019/10/08 17:57:00	BASE	6.56	46	11.83	51	-2.9	71	-7.4	258	0	974.2	NA	0.0000		9999	5090	0	0	0
2019/10/08 17:58:00	BASE	7.86	52	11.83	51	-2.9	71	-7.4	256	0	974.2	NA	0.0000		9999	5120	0	0	0
2019/10/08 17:59:00	BASE	6.32	54	11.83	51	-2.9	71	-7.4	254	0	974.2	NA	0.0000		9999	5320	0	0	0
2019/10/08 18:00:00	BASE	6.49	49	11.11	40	-2.8	71	-7.4	252	0	974.1	NA	0.0000		9999	5350	0	0	0
2019/10/08 18:01:00	BASE	6.72	51	11.11	40	-2.8	71	-7.4	252	0	974.1	NA	0.0000		9999	5050	0	0	0
2019/10/08 18:02:00	BASE	6.60	47	11.11	40	-2.8	71	-7.4	252	0	974.1	NA	0.0000		9999	4860	0	0	0
2019/10/08 18:03:00	BASE	6.88	52	11.11	40	-2.8	71	-7.4	254	0	974.1	NA	0.0000		9999	4690	0	0	0
2019/10/08 18:04:00	BASE	7.11	57	11.11	40	-2.9	71	-7.4	256	0	974.1	NA	0.0000		9999	4950	0	0	0
2019/10/08 18:05:00	BASE	5.68	50	11.11	40	-2.9	71	-7.4	258	0	974.2	NA	0.0000		9999	4760	0	0	0
2019/10/08 18:06:00	BASE	4.72	49	11.11	40	-2.9	71	-7.4	259	0	974.1	NA	0.0000		9999	4890	0	0	0
2019/10/08 18:07:00	BASE	6.51	51	10.80	53	-2.9	71	-7.4	261	0	974.1	NA	0.0000		9999	4790	0	0	0
2019/10/08 18:08:00	BASE	5.77	69	10.80	53	-2.9	71	-7.4	262	0	974.1	NA	0.0000		9999	5020	0	0	0
2019/10/08 18:09:00	BASE	3.76	69	10.80	53	-2.9	71	-7.4	262	0	974.0	NA	0.0000		9999	4820	0	0	0
2019/10/08 18:10:00	BASE	2.74	34	10.80	53	-2.9	71	-7.4	261	0	974.0	NA	0.0000		9999	4990	0	0	0
2019/10/08 18:11:00	BASE	2.02	16	10.80	53	-2.9	71	-7.4	261	0	974.0	NA	0.0000		9999	5020	0	0	0
2019/10/08 18:12:00	BASE	4.36	16	9.62	25	-2.9	71	-7.4	262	0	973.9	NA	0.0000		9999	4860	0	0	0
2019/10/08 18:13:00	BASE	8.27	21	11.57	19	-2.9	71	-7.4	264	0	973.8	NA	0.0000		9999	4790	0	0	0
2019/10/08 18:14:00	BASE	9.36	33	11.99	19	-2.9	72	-7.3	267	0	973.8	NA	0.0000		9999	4690	0	0	0
2019/10/08 18:15:00	BASE	9.61	39	12.35	16	-2.9	72	-7.3	271	0	973.7	NA	0.0000		9999	4590	0	0	0
2019/10/08 18:16:00	BASE	10.08	39	13.48	31	-2.9	72	-7.3	275	0	973.7	NA	0.0000		9999	4760	0	0	0
2019/10/08 18:17:00	BASE	11.42	34	16.41	39	-2.9	72	-7.3	280	0	973.5	NA	0.0000		9999	4590	0	0	0
2019/10/08 18:18:00	BASE	12.26	32	16.41	39	-2.9	72	-7.2	286	0	973.5	NA	0.0000		9999	4560	0	0	0
2019/10/08 18:19:00	BASE	11.91	35	16.41	39	-2.9	72	-7.2	293	0	973.4	NA	0.0000		9999	4660	0	0	0
2019/10/08 18:20:00	BASE	13.17	38	16.41	41	-2.9	72	-7.2	301	0	973.3	NA	0.0000		9999	4690	0	0	0
2019/10/08 18:21:00	BASE	14.33	38	17.08	19	-2.9	72	-7.2	310	0	973.2	NA	0.0000		9999	4820	0	0	0
2019/10/08 18:22:00	BASE	14.12	38	17.08	19	-2.9	72	-7.2	316	0	973.2	NA	0.0000		9999	4890	0	0	0
2019/10/08 18:23:00	BASE	16.36	37	21.81	26	-2.9	72	-7.2	316	0	973.0	NA	0.0000		9999	4920	0	0	0
2019/10/08 18:24:00	BASE	18.00	36	21.81	26	-2.9	72	-7.2	316	0	973.0	NA	0.0000		9999	4760	0	0	0
2019/10/08 18:25:00	BASE	17.13	38	21.81	26	-2.9	72	-7.1	316	0	973.0	NA	0.0000		9999	4530	0	0	0
2019/10/08 18:26:00	BASE	16.86	37	21.81	26	-2.8	72	-7.1	317	0	973.0	NA	0.0000		9999	4430	0	0	0
2019/10/08 18:27:00	BASE	17.70	39	21.81	26	-2.8	72	-7.1	318	0	972.9	NA	0.0000		9999	4490	0	0	0
2019/10/08 18:28:00	BASE	17.72	39	21.81	26	-2.8	72	-7.2	318	0	972.9	NA	0.0000		9999	4530	0	0	0
2019/10/08 18:29:00	BASE	16.49	38	21.81	26	-2.8	72	-7.2	317	0	972.9	NA	0.0000		9999	4760	0	0	0
2019/10/08 18:30:00	BASE	16.78	41	21.81	26	-2.8	71	-7.2	316	0	973.0	NA	0.0000		9999	4820	0	0	0
2019/10/08 18:31:00	BASE	17.12	43	21.81	26	-2.8	71	-7.2	315	0	973.0	NA	0.0000		9999	4920	0	0	0
2019/10/08 18:32:00	BASE	17.03	42	21.81	26	-2.7	71	-7.3	314	0	972.9	NA	0.0000		9999	5120	0	0	0
2019/10/08 18:33:00	BASE	17.18	43	21.25	39	-2.7	71	-7.3	312	0	972.9	NA	0.0000		9999	5120	0	0	0
2019/10/08 18:34:00	BASE	16.28	46	21.25	39	-2.7	71	-7.2	309	0	972.9	NA	0.0000		9999	5150	0	0	0
2019/10/08 18:35:00	BASE	15.89	46	21.25	39	-2.7	71	-7.2	306	0	972.9	NA	0.0000		9999	5090	0	0	0
2019/10/08 18:36:00	BASE	16.37	45	21.25	39	-2.7	71	-7.2	303	0	972.9	NA	0.0000		9999	5220	0	0	0
2019/10/08 18:37:00	BASE	16.10	46	20.32	36	-2.7	71	-7.2	299	0	972.9	NA	0.0000		9999	5280	0	0	0
2019/10/08 18:38:00	BASE	15.96	48	20.32	36	-2.7	71	-7.2	297	0	972.9	NA	0.0000		9999	5220	0	0	0
2019/10/08 18:39:00	BASE	15.64	48	20.32	36	-2.7	71	-7.2	294	0	972.9	NA	0.0000		9999	5350	0	0	0
2019/10/08 18:40:00	BASE	14.62	49	20.32	36	-2.8	72	-7.2	292	0	972.9	NA	0.0000		9999	5450	0	0	0
2019/10/08 18:41:00	BASE	14.37	50	19.70	38	-2.8	72	-7.2	289	0	972.9	NA	0.0000		9999	5540	0	0	0
2019/10/08 18:42:00	BASE	14.15	48	19.70	38	-2.8	72	-7.1	286	0	972.9	NA	0.0000		9999	5680	0	0	0
2019/10/08 18:43:00	BASE	13.62	46	19.70	38	-2.8	72	-7.1	283	0	972.9	NA	0.0000		9999	5710	0	0	0
2019/10/08 18:44:00	BASE	14.07	51	19.70	38	-2.8	73	-7.0	280	0	972.9	NA	0.0000		9999	5580	0	0	0
2019/10/08 18:45:00	BASE	13.91	56	19.70	38	-2.8	73	-7.0	276	0	972.9	NA	0.0000		9999	5680	0	0	0
2019/10/08 18:46:00	BASE	13.40	57	17.95	50	-2.9	74	-6.9	273	0	972.9	NA	0.0000		9999	5770	20340	0	0
2019/10/08 18:47:00	BASE	13.70	57	17.95	50	-2.9	74	-6.9	272	0	972.8	NA	0.0000		9999	5810	0	0	0
2019/10/08 18:48:00	BASE	14.45	55	17.95	50	-2.9	74	-6.9	272	0	972.8	NA	0.0000		9999	5770	0	0	0
2019/10/08 18:49:00	BASE	14.16	55	16.93	40	-2.9	74	-6.9	272	0	972.8	NA	0.0000		9999	5640	0	0	0
2019/10/08 18:50:00	BASE	12.67	56	16.93	40	-2.9	74	-6.9	271	0	972.8	NA	0.0000		9999	5770	0	0	0
2019/10/08 18:51:00	BASE	12.05	56	16.93	40	-2.9	74	-6.9	270	0	972.8	NA	0.0000		9999	5710	0	0	0
2019/10/08 18:52:00	BASE	12.13	55	16.93	40	-2.9	74	-6.9	268	0	972.8	NA	0.0000		9999	5870	0	0	0
2019/10/08 18:53:00	BASE	12.45	58	16.93	40	-2.9	74	-6.9	266	0	972.7	NA	0.0000		9999	5710	0	0	0
2019/10/08 18:54:00	BASE	13.11	60	16.93	40	-2.9	74	-6.8	265	0	972.7	NA	0.0000		9999	5680	0	0	0
2019/10/08 18:55:00	BASE	13.01	58	16.93	40	-2.9	75	-6.8	264	0	972.7	NA	0.0000		9999	5680	0	0	0
2019/10/08 18:56:00	BASE	13.35	56	16.93	40	-2.9	75	-6.8	264	0	972.7	NA	0.0000		9999	5640	0	0	0
2019/10/08 18:57:00	BASE	13.46	58	16.93	40	-2.9	75	-6.7	264	0	972.7	NA	0.0000		9999	5510	0	0	0
2019/10/08 18:58:00	BASE	13.14	60	15.95	54	-2.9	75	-6.7	263	0	972.6	NA	0.0000		9999	5410	0	0	0
2019/10/08 18:59:00	BASE	12.24	62	15.95	54	-2.9	75	-6.7	263	0	972.7	NA	0.0000		9999	5510	0	0	0
2019/10/08 19:00:00	BASE	10.28	61	15.95	54	-2.9	75	-6.7	262	0	972.7	NA	0.0000		9999	5770	0	0	0
2019/10/08 19:01:00	BASE	8.91	62	15.95	54	-2.9	75	-6.7	263	0	972.7	NA	0.0000		9999	5540	20970	0	0
2019/10/08 19:02:00	BASE	8.28	66	15.95	54	-2.9	76	-6.6	263	0	972.7	NA	0.0000		9999	5610	18010	0	0
2019/10/08 19:03:00	BASE	9.07	72	15.95	54	-2.9	76	-6.6	263	0	972.7	NA	0.0000		9999	5680	0	0	0
2019/10/08 19:04:00	BASE	10.04	74	15.95	54	-2.9	76	-6.5	262	0	972.7	NA	0.0000		9999	5680	0	0	0
2019/10/08 19:05:00	BASE	9.32	74	15.95	54	-2.8	75	-6.6	263	0	972.7	NA	0.0000		9999	5540	0	0	0
2019/10/08 19:06:00	BASE	7.54	79	15.02	55	-2.7	74	-6.7	264	0	972.6	NA	0.0000		9999	5380	0	0	0
2019/10/08 19:07:00	BASE	7.41	79	14.66	57	-2.6	73	-6.9	266	0	972.6	NA	0.0000		9999	5480	0	0	0
2019/10/08 19:08:00	BASE	8.48	64	12.71	56	-2.6	71	-7.1	266	0	972.6	NA	0.0000		9999	5640	0	0	0
2019/10/08 19:09:00	BASE	7.06	49	11.57	60	-2.5	70	-7.3	266	0	972.6	NA	0.0000		9999	5680	0	0	0
2019/10/08 19:10:00	BASE	6.46	43	11.57	60	-2.5	69	-7.4	266	0	972.5	NA	0.0000		9999	5680	0	0	0
2019/10/08 19:11:00	BASE	6.44	60	11.57	60	-2.5	68	-7.5	266	0	972.4	NA	0.0000		9999	5540	0	0	0
2019/10/08 19:12:00	BASE	6.73	67	11.57	60	-2.4	67	-7.6	265	0	972.4	NA	0.0000		9999	5540	0	0	0
2019/10/08 19:13:00	BASE	10.31	44	14.82	34	-2.4	67	-7.7	264	0	972.2	NA	0.0000		9999	5380	0	0	0
2019/10/08 19:14:00	BASE	13.47	36	15.74	40	-2.3	66	-7.8	261	0	972.3	NA	0.0000		9999	5350	0	0	0
2019/10/08 19:15:00	BASE	15.74	34	20.89	36	-2.3	65	-8.0	259	0	972.1	NA	0.0000		9999	5350	0	0	0
2019/10/08 19:16:00	BASE	17.57	42	22.53	33	-2.2	64	-8.0	256	0	972.1	NA	0.0000		9999	5320	0	0	0
2019/10/08 19:17:00	BASE	14.58	79	22.53	33	-2.2	64	-8.1	253	0	972.3	NA	0.0000		9999	5320	0	0	0
2019/10/08 19:18:00	BASE	10.79	108	22.53	33	-2.3	64	-8.1	251	0	972.3	NA	0.0000		9999	5280	0	0	0
2019/10/08 19:19:00	BASE	9.42	91	22.53	33	-2.3	65	-8.0	249	0	972.4	NA	0.0000		9999	5480	0	0	0
2019/10/08 19:20:00	BASE	9.09	89	22.53	33	-2.4	66	-7.9	247	0	972.4	NA	0.0000		9999	5510	0	0	0
2019/10/08 19:21:00	BASE	7.39	92	22.53	33	-2.5	67	-7.8	245	0	972.4	NA	0.0000		9999	5380	0	0	0
2019/10/08 19:22:00	BASE	6.35	5	22.53	33	-2.6	68	-7.7	243	0	972.2	NA	0.0000		9999	5410	0	0	0
2019/10/08 19:23:00	BASE	8.32	7	22.53	33	-2.6	68	-7.6	241	0	972.3	NA	0.0000		9999	5380	0	0	0
2019/10/08 19:24:00	BASE	10.45	46	22.53	33	-2.5	68	-7.7	238	0	972.2	NA	0.0000		9999	5350	0	0	0
2019/10/08 19:25:00	BASE	11.16	29	22.53	33	-2.4	67	-7.8	236	0	972.1	NA	0.0000		9999	5090	0	0	0
2019/10/08 19:26:00	BASE	9.49	7	15.43	102	-2.3	65	-8.0	235	0	972.0	NA	0.0000		9999	5250	23100	0	0
2019/10/08 19:27:00	BASE	11.11	40	17.65	59	-2.3	64	-8.3	234	0	972.1	NA	0.0000		9999	5350	0	0	0
2019/10/08 19:28:00	BASE	12.73	71	17.65	59	-2.3	63	-8.4	232	0	972.0	NA	0.0000		9999	5280	0	0	0
2019/10/08 19:29:00	BASE	12.53	62	17.65	59	-2.3	62	-8.5	231	0	972.0	NA	0.0000		9999	5250	0	0	0
2019/10/08 19:30:00	BASE	13.86	47	18.67	48	-2.3	62	-8.6	232	0	972.0	NA	0.0000		9999	5150	0	0	0
2019/10/08 19:31:00	BASE	12.72	48	18.67	48	-2.3	62	-8.6	232	0	972.0	NA	0.0000		9999	5280	0	0	0
2019/10/08 19:32:00	BASE	13.43	62	24.02	54	-2.2	62	-8.6	233	0	971.9	NA	0.0000		9999	5320	0	0	0
2019/10/08 19:33:00	BASE	12.91	61	24.02	54	-2.2	62	-8.6	233	0	971.9	NA	0.0000		9999	5220	0	0	0
2019/10/08 19:34:00	BASE	8.08	56	24.02	54	-2.2	61	-8.7	233	0	971.9	NA	0.0000		9999	5380	0	0	0
2019/10/08 19:35:00	BASE	8.45	55	24.02	54	-2.2	61	-8.8	233	0	971.9	NA	0.0000		9999	5380	0	0	0
2019/10/08 19:36:00	BASE	11.88	38	24.02	54	-2.2	61	-8.8	234	0	971.8	NA	0.0000		9999	5350	0	0	0
2019/10/08 19:37:00	BASE	10.46	35	24.02	54	-2.2	61	-8.8	234	0	971.7	NA	0.0000		9999	5480	0	0	0
2019/10/08 19:38:00	BASE	9.44	34	24.02	54	-2.3	61	-8.8	234	0	971.6	NA	0.0000		9999	5480	0	0	0
2019/10/08 19:39:00	BASE	13.21	21	24.02	54	-2.3	62	-8.7	233	0	971.5	NA	0.0000		9999	5480	0	0	0
2019/10/08 19:40:00	BASE	14.92	27	24.02	54	-2.4	62	-8.6	232	0	971.7	NA	0.0000		9999	5540	0	0	0
2019/10/08 19:41:00	BASE	13.66	35	24.02	54	-2.4	63	-8.6	231	0	971.7	NA	0.0000		9999	5510	0	0	0
2019/10/08 19:42:00	BASE	13.91	53	19.03	20	-2.4	62	-8.6	231	0	971.7	NA	0.0000		9999	5540	0	0	0
2019/10/08 19:43:00	BASE	12.95	76	19.03	20	-2.4	62	-8.6	230	0	971.7	NA	0.0000		9999	5580	0	0	0
2019/10/08 19:44:00	BASE	11.88	79	19.03	20	-2.3	62	-8.6	228	0	971.6	NA	0.0000		9999	5580	0	0	0
2019/10/08 19:45:00	BASE	13.68	75	19.39	68	-2.3	62	-8.7	226	0	971.5	NA	0.0000		9999	5510	0	0	0
2019/10/08 19:46:00	BASE	13.84	61	19.39	68	-2.3	61	-8.8	225	0	971.5	NA	0.0000		9999	5510	0	0	0
2019/10/08 19:47:00	BASE	12.50	43	19.39	68	-2.3	61	-8.7	223	0	971.5	NA	0.0000		9999	5580	0	0	0
2019/10/08 19:48:00	BASE	11.26	34	19.39	68	-2.3	61	-8.7	222	0	971.6	NA	0.0000		9999	5480	0	0	0
2019/10/08 19:49:00	BASE	11.36	32	19.39	68	-2.3	62	-8.7	222	0	971.5	NA	0.0000		9999	5510	0	0	0
2019/10/08 19:50:00	BASE	14.67	22	19.39	68	-2.3	62	-8.6	220	0	971.1	NA	0.0000		9999	5640	0	0	0
2019/10/08 19:51:00	BASE	15.72	23	19.96	53	-2.4	63	-8.5	218	0	971.3	NA	0.0000		9999	5610	0	0	0
2019/10/08 19:52:00	BASE	11.95	44	19.96	53	-2.4	63	-8.5	216	0	971.5	NA	0.0000		9999	5580	0	0	0
2019/10/08 19:53:00	BASE	9.22	47	19.96	53	-2.4	63	-8.5	214	0	971.5	NA	0.0000		9999	5640	0	0	0
2019/10/08 19:54:00	BASE	7.72	52	19.96	53	-2.4	63	-8.5	211	0	971.5	NA	0.0000		9999	5610	0	0	0
2019/10/08 19:55:00	BASE	7.05	65	19.96	53	-2.4	63	-8.5	208	0	971.5	NA	0.0000		9999	5710	0	0	0
2019/10/08 19:56:00	BASE	7.89	79	19.96	53	-2.4	63	-8.5	205	0	971.4	NA	0.0000		9999	5540	0	0	0
2019/10/08 19:57:00	BASE	9.54	87	19.96	53	-2.4	63	-8.5	202	0	971.3	NA	0.0000		9999	5680	22340	0	0
2019/10/08 19:58:00	BASE	10.13	74	19.96	53	-2.4	62	-8.6	199	0	971.4	NA	0.0000		9999	5710	0	0	0
2019/10/08 19:59:00	BASE	8.60	58	19.96	53	-2.4	62	-8.6	197	0	971.3	NA	0.0000		9999	5710	0	0	0
2019/10/08 20:00:00	BASE	6.90	60	19.96	53	-2.4	63	-8.6	194	0	971.4	NA	0.0000		9999	5770	23200	0	0
2019/10/08 20:01:00	BASE	8.70	66	16.41	75	-2.5	63	-8.5	192	0	971.2	NA	0.0000		9999	5870	0	0	0
2019/10/08 20:02:00	BASE	12.51	50	17.65	36	-2.5	63	-8.5	190	0	971.2	NA	0.0000		9999	5840	0	0	0
2019/10/08 20:03:00	BASE	12.92	43	17.65	36	-2.5	64	-8.4	187	0	971.2	NA	0.0000		9999	5840	0	0	0
2019/10/08 20:04:00	BASE	8.90	58	17.65	36	-2.5	64	-8.4	184	0	971.2	NA	0.0000		9999	5910	0	0	0
2019/10/08 20:05:00	BASE	6.60	57	17.65	36	-2.4	64	-8.4	181	0	971.2	NA	0.0000		9999	5840	0	0	0
2019/10/08 20:06:00	BASE	8.21	59	17.65	36	-2.4	63	-8.4	177	0	971.2	NA	0.0000		9999	5810	0	0	0
2019/10/08 20:07:00	BASE	8.62	97	17.65	36	-2.4	63	-8.5	173	0	971.1	NA	0.0000		9999	5840	19620	0	0
2019/10/08 20:08:00	BASE	10.10	137	17.65	36	-2.4	63	-8.5	170	0	970.9	NA	0.0000		9999	5970	0	0	0
2019/10/08 20:09:00	BASE	11.37	133	17.65	36	-2.4	63	-8.5	167	0	971.0	NA	0.0000		9999	5970	0	0	0
2019/10/08 20:10:00	BASE	10.08	120	17.65	36	-2.4	63	-8.4	164	0	970.9	NA	0.0000		9999	6140	0	0	0
2019/10/08 20:11:00	BASE	12.16	118	18.31	98	-2.5	63	-8.5	162	0	970.7	NA	0.0000		9999	6230	0	0	0
2019/10/08 20:12:00	BASE	15.89	101	18.78	100	-2.5	64	-8.4	159	0	970.7	NA	0.0000		9999	6200	0	0	0
2019/10/08 20:13:00	BASE	13.04	78	18.78	100	-2.5	64	-8.4	156	0	970.9	NA	0.0000		9999	6300	0	0	0
2019/10/08 20:14:00	BASE	9.78	91	18.78	100	-2.4	63	-8.5	153	0	970.7	NA	0.0000		9999	6330	0	0	0
2019/10/08 20:15:00	BASE	11.78	123	18.78	100	-2.5	63	-8.5	150	0	970.6	NA	0.0000		9999	2760	6330	0	0
2019/10/08 20:16:00	BASE	13.91	112	18.78	100	-2.5	63	-8.6	147	0	970.7	NA	0.0000		9999	6300	0	0	0
2019/10/08 20:17:00	BASE	12.81	112	18.78	100	-2.5	63	-8.5	144	0	970.7	NA	0.0000		9999	6270	0	0	0
2019/10/08 20:18:00	BASE	8.81	127	18.78	100	-2.5	63	-8.5	140	0	970.7	NA	0.0000		9999	6300	0	0	0
2019/10/08 20:19:00	BASE	5.20	132	18.78	100	-2.5	64	-8.5	137	0	970.8	NA	0.0000		9999	2590	6300	0	0
2019/10/08 20:20:00	BASE	3.43	133	18.78	100	-2.6	64	-8.4	134	0	970.7	NA	0.0000		9999	6270	0	0	0
2019/10/08 20:21:00	BASE	3.02	135	18.78	100	-2.6	65	-8.3	131	0	970.6	NA	0.0000		9999	6300	0	0	0
2019/10/08 20:22:00	BASE	3.27	126	17.34	125	-2.7	65	-8.3	128	0	970.6	NA	0.0000		9999	6330	0	0	0
2019/10/08 20:23:00	BASE	3.51	108	17.34	125	-2.7	66	-8.2	123	0	970.6	NA	0.0000		9999	6330	0	0	0
2019/10/08 20:24:00	BASE	3.66	106	17.34	125	-2.7	66	-8.2	121	0	970.6	NA	0.0000		9999	2620	20150	0	0
2019/10/08 20:25:00	BASE	3.01	104	16.41	93	-2.7	66	-8.1	119	0	970.6	NA	0.0000		9999	5380	0	0	0
2019/10/08 20:26:00	BASE	3.29	98	13.12	105	-2.7	66	-8.1	116	0	970.6	NA	0.0000		9999	6330	0	0	0
2019/10/08 20:27:00	BASE	6.20	91	11.16	134	-2.7	66	-8.1	114	0	970.5	NA	0.0000		9999	6400	0	0	0
2019/10/08 20:28:00	BASE	7.87	83	9.11	81	-2.7	66	-8.1	112	0	970.5	NA	0.0000		9999	6500	0	0	0
2019/10/08 20:29:00	BASE	7.86	83	9.11	84	-2.7	67	-8.1	110	0	970.5	NA	0.0000		9999	6200	0	0	0
2019/10/08 20:30:00	BASE	7.40	80	9.11	84	-2.7	67	-8.0	107	0	970.5	NA	0.0000		9999	6100	0	0	0
2019/10/08 20:31:00	BASE	7.11	79	9.11	84	-2.8	67	-8.0	105	0	970.5	NA	0.0000		9999	5810	0	0	0
2019/10/08 20:32:00	BASE	7.49	77	9.11	84	-2.8	68	-7.9	103	0	970.5	NA	0.0000		9999	6170	0	0	0
2019/10/08 20:33:00	BASE	6.94	71	9.47	66	-2.8	68	-7.8	101	0	970.4	NA	0.0000		9999	5810	0	0	0
2019/10/08 20:34:00	BASE	5.67	63	9.47	66	-2.8	68	-7.8	100	0	970.4	NA	0.0000		9999	6170	0	0	0
2019/10/08 20:35:00	BASE	5.58	58	9.47	66	-2.8	68	-7.8	98	0	970.4	NA	0.0000		9999	5870	0	0	0
2019/10/08 20:36:00	BASE	5.38	68	9.47	66	-2.8	68	-7.9	96	0	970.3	NA	0.0000		9999	6170	0	0	0
2019/10/08 20:37:00	BASE	5.37	76	9.47	66	-2.8	68	-7.8	94	0	970.3	NA	0.0000		9999	5910	0	0	0
2019/10/08 20:38:00	BASE	6.30	79	9.47	66	-2.8	68	-7.9	92	0	970.3	NA	0.0000		9999	5840	0	0	0
2019/10/08 20:39:00	BASE	6.33	87	9.47	66	-2.9	68	-7.9	90	0	970.3	NA	0.0000		9999	6230	0	0	0
2019/10/08 20:40:00	BASE	6.37	78	9.47	66	-2.9	68	-7.9	88	0	970.3	NA	0.0000		9999	5840	0	0	0
2019/10/08 20:41:00	BASE	7.14	66	9.47	66	-2.9	69	-7.9	87	0	970.3	NA	0.0000		9999	5910	0	0	0
2019/10/08 20:42:00	BASE	7.13	70	9.47	66	-3.0	69	-7.9	85	0	970.2	NA	0.0000		9999	6270	0	0	0
2019/10/08 20:43:00	BASE	7.38	80	9.31	101	-3.0	69	-7.8	84	0	970.2	NA	0.0000		9999	6270	0	0	0
2019/10/08 20:44:00	BASE	9.16	101	12.55	104	-3.1	70	-7.8	82	0	970.1	NA	0.0000		9999	6300	0	0	0
2019/10/08 20:45:00	BASE	9.56	112	12.55	104	-3.1	70	-7.7	81	0	970.1	NA	0.0000		9999	6330	0	0	0
2019/10/08 20:46:00	BASE	9.13	101	12.55	104	-3.1	70	-7.7	80	0	970.2	NA	0.0000		9999	6070	0	0	0
2019/10/08 20:47:00	BASE	9.23	96	12.55	104	-3.1	70	-7.7	78	0	970.2	NA	0.0000		9999	6140	0	0	0
2019/10/08 20:48:00	BASE	9.39	101	12.55	104	-3.1	70	-7.8	77	0	970.1	NA	0.0000		9999	6000	0	0	0
2019/10/08 20:49:00	BASE	10.54	100	12.86	91	-3.1	70	-7.8	76	0	970.1	NA	0.0000		9999	6070	0	0	0
2019/10/08 20:50:00	BASE	11.00	86	12.86	91	-3.2	70	-7.9	75	0	970.1	NA	0.0000		9999	6170	0	0	0
2019/10/08 20:51:00	BASE	10.37	73	12.86	91	-3.2	70	-7.9	75	0	970.1	NA	0.0000		9999	6170	0	0	0
2019/10/08 20:52:00	BASE	9.85	75	12.86	91	-3.2	70	-7.8	74	0	970.1	NA	0.0000		9999	6370	0	0	0
2019/10/08 20:53:00	BASE	8.48	84	12.86	91	-3.2	71	-7.8	73	0	970.1	NA	0.0000		9999	6370	0	0	0
2019/10/08 20:54:00	BASE	7.54	94	12.86	91	-3.2	71	-7.8	72	0	970.1	NA	0.0000		9999	6370	0	0	0
2019/10/08 20:55:00	BASE	8.54	106	12.86	91	-3.3	71	-7.7	71	0	970.0	NA	0.0000		9999	6400	0	0	0
2019/10/08 20:56:00	BASE	10.47	114	13.02	121	-3.3	72	-7.6	70	0	969.9	NA	0.0000		9999	6400	0	0	0
2019/10/08 20:57:00	BASE	10.78	113	13.02	121	-3.2	72	-7.6	70	0	969.9	NA	0.0000		9999	6370	0	0	0
2019/10/08 20:58:00	BASE	9.55	109	13.02	121	-3.2	72	-7.5	69	0	969.9	NA	0.0000		9999	6300	0	0	0
2019/10/08 20:59:00	BASE	8.85	106	13.02	121	-3.2	72	-7.5	68	0	969.9	NA	0.0000		9999	6300	0	0	0
2019/10/08 21:00:00	BASE	8.80	104	13.02	121	-3.2	73	-7.4	68	0	969.9	NA	0.0000		9999	6230	0	0	0
2019/10/08 21:01:00	BASE	9.01	104	13.02	121	-3.3	73	-7.4	67	0	969.9	NA	0.0000		9999	6000	0	0	0
2019/10/08 21:02:00	BASE	9.09	103	13.02	121	-3.3	73	-7.4	66	0	969.9	NA	0.0000		9999	6040	0	0	0
2019/10/08 21:03:00	BASE	9.24	105	13.02	121	-3.4	74	-7.4	65	0	969.9	NA	0.0000		9999	5970	0	0	0
2019/10/08 21:04:00	BASE	9.14	110	13.02	121	-3.4	74	-7.4	64	0	969.8	NA	0.0000		9999	5970	0	0	0
2019/10/08 21:05:00	BASE	8.66	123	13.02	121	-3.5	74	-7.4	64	0	969.7	NA	0.0000		9999	5940	0	0	0
2019/10/08 21:06:00	BASE	8.41	124	11.01	109	-3.5	75	-7.4	63	0	969.7	NA	0.0000		9999	5910	0	0	0
2019/10/08 21:07:00	BASE	8.12	114	9.98	101	-3.5	75	-7.3	62	0	969.7	NA	0.0000		9999	5870	0	0	0
2019/10/08 21:08:00	BASE	8.66	113	10.24	126	-3.5	75	-7.3	61	0	969.6	NA	0.0000		9999	5810	0	0	0
2019/10/08 21:09:00	BASE	8.86	116	10.24	126	-3.4	75	-7.2	60	0	969.6	NA	0.0000		9999	5740	0	0	0
2019/10/08 21:10:00	BASE	7.58	116	10.24	126	-3.4	75	-7.2	59	0	969.6	NA	0.0000		9999	5710	0	0	0
2019/10/08 21:11:00	BASE	7.22	122	10.24	126	-3.4	75	-7.2	58	0	969.5	NA	0.0000		9999	5710	0	0	0
2019/10/08 21:12:00	BASE	6.83	129	10.24	126	-3.4	75	-7.1	57	0	969.5	NA	0.0000		9999	5710	0	0	0
2019/10/08 21:13:00	BASE	5.81	127	10.24	126	-3.4	76	-7.1	55	0	969.5	NA	0.0000		9999	5640	0	0	0
2019/10/08 21:14:00	BASE	6.37	124	10.24	126	-3.4	76	-7.1	54	0	969.5	NA	0.0000		9999	5680	0	0	0
2019/10/08 21:15:00	BASE	7.51	127	10.24	126	-3.4	76	-7.0	54	0	969.5	NA	0.0000		9999	5770	0	0	0
2019/10/08 21:16:00	BASE	7.79	133	10.24	126	-3.4	76	-7.1	53	0	969.4	NA	0.0000		9999	5940	0	0	0
2019/10/08 21:17:00	BASE	7.97	136	10.24	126	-3.5	76	-7.1	52	0	969.3	NA	0.0000		9999	6230	0	0	0
2019/10/08 21:18:00	BASE	7.99	136	10.24	126	-3.5	76	-7.1	51	0	969.3	NA	0.0000		9999	6230	0	0	0
2019/10/08 21:19:00	BASE	9.09	133	11.78	121	-3.5	76	-7.0	50	0	969.3	NA	0.0000		9999	6070	0	0	0
2019/10/08 21:20:00	BASE	10.93	126	12.09	125	-3.5	77	-7.0	49	0	969.3	NA	0.0000		9999	6040	0	0	0
2019/10/08 21:21:00	BASE	11.37	123	12.09	125	-3.5	77	-6.9	48	0	969.2	NA	0.0000		9999	5940	0	0	0
2019/10/08 21:22:00	BASE	10.14	127	12.09	125	-3.5	78	-6.8	47	0	969.2	NA	0.0000		9999	5940	0	0	0
2019/10/08 21:23:00	BASE	8.46	129	12.09	125	-3.5	78	-6.7	46	0	969.2	NA	0.0000		9999	5970	0	0	0
2019/10/08 21:24:00	BASE	7.01	130	12.09	125	-3.5	79	-6.6	46	0	969.2	NA	0.0000		9999	5910	0	0	0
2019/10/08 21:25:00	BASE	6.02	130	12.09	125	-3.5	79	-6.5	45	0	969.2	NA	0.0000		9999	5910	0	0	0
2019/10/08 21:26:00	BASE	6.26	130	12.09	125	-3.5	80	-6.4	44	0	969.2	NA	0.0000		9999	5840	0	0	0
2019/10/08 21:27:00	BASE	7.16	131	12.09	125	-3.5	80	-6.4	44	0	969.2	NA	0.0000		9999	5770	0	0	0
2019/10/08 21:28:00	BASE	6.92	130	12.09	125	-3.5	81	-6.4	43	0	969.2	NA	0.0000		9999	5710	0	0	0
2019/10/08 21:29:00	BASE	5.69	125	12.09	125	-3.6	81	-6.3	43	0	969.2	NA	0.0000		9999	5770	0	0	0
2019/10/08 21:30:00	BASE	4.87	121	11.88	125	-3.6	82	-6.2	42	0	969.2	NA	0.0000		9999	5740	0	0	0
2019/10/08 21:31:00	BASE	4.52	131	10.19	130	-3.6	82	-6.2	42	0	969.1	NA	0.0000		9999	5640	0	0	0
2019/10/08 21:32:00	BASE	4.60	142	8.39	131	-3.6	83	-6.1	42	0	969.1	NA	0.0000		9999	5580	0	0	0
2019/10/08 21:33:00	BASE	4.97	143	7.77	133	-3.6	84	-6.0	42	0	969.1	NA	0.0000		9999	5480	0	0	0
2019/10/08 21:34:00	BASE	4.84	142	7.77	133	-3.7	85	-5.8	42	0	969.1	NA	0.0000		9999	5540	0	0	0
2019/10/08 21:35:00	BASE	3.79	136	7.77	133	-3.7	86	-5.7	41	0	969.1	NA	0.0000		9999	5540	0	0	0
2019/10/08 21:36:00	BASE	2.90	124	7.77	133	-3.7	87	-5.6	41	0	969.2	NA	0.0000		9999	5610	0	0	0
2019/10/08 21:37:00	BASE	2.43	118	7.61	128	-3.7	87	-5.5	40	0	969.1	NA	0.0000		9999	5710	0	0	0
2019/10/08 21:38:00	BASE	2.04	123	5.92	125	-3.7	88	-5.4	40	0	969.1	NA	0.0000		9999	5740	0	0	0
2019/10/08 21:39:00	BASE	1.85	122	5.71	138	-3.8	89	-5.3	39	0	969.1	NA	0.0000		9999	5710	0	0	0
2019/10/08 21:40:00	BASE	1.21	111	5.71	138	-3.8	90	-5.2	38	0	969.1	NA	0.0000		9999	5710	0	0	0
2019/10/08 21:41:00	BASE	0.35	97	5.71	138	-3.8	90	-5.1	38	0	969.1	NA	0.0000		9999	5770	0	0	0
2019/10/08 21:42:00	BASE	0.70	287	5.71	138	-3.8	91	-5.1	37	0	969.1	NA	0.0000		9999	5680	0	0	0
2019/10/08 21:43:00	BASE	2.02	274	5.71	138	-3.8	91	-5.0	37	0	969.0	NA	0.0000		9999	5580	0	0	0
2019/10/08 21:44:00	BASE	2.71	267	3.55	134	-3.8	92	-5.0	36	0	969.0	NA	0.0000		9999	5540	0	0	0
2019/10/08 21:45:00	BASE	3.21	264	4.94	265	-3.8	92	-4.9	36	0	969.0	NA	0.0000		9999	5640	0	0	0
2019/10/08 21:46:00	BASE	3.93	265	5.30	253	-3.8	93	-4.8	35	0	969.0	NA	0.0000		9999	5680	0	0	0
2019/10/08 21:47:00	BASE	4.56	266	5.56	270	-3.8	93	-4.7	34	0	968.9	NA	0.0000		9999	5610	0	0	0
2019/10/08 21:48:00	BASE	4.51	274	5.56	270	-3.8	94	-4.6	34	0	969.0	NA	0.0000		9999	5610	0	0	0
2019/10/08 21:49:00	BASE	3.89	279	5.56	270	-3.8	94	-4.6	33	0	969.0	NA	0.0000		9999	5610	0	0	0
2019/10/08 21:50:00	BASE	3.62	272	5.56	270	-3.7	95	-4.5	33	0	969.0	NA	0.0000		9999	5610	0	0	0
2019/10/08 21:51:00	BASE	3.53	262	5.56	270	-3.7	95	-4.4	32	0	969.0	NA	0.0000		9999	5050	0	0	0
2019/10/08 21:52:00	BASE	3.30	257	5.56	270	-3.7	95	-4.4	32	0	969.0	NA	0.0000		9999	5090	5680	0	0
2019/10/08 21:53:00	BASE	3.10	249	5.56	270	-3.7	95	-4.4	32	0	968.9	NA	0.0000		9999	5510	0	0	0
2019/10/08 21:54:00	BASE	2.87	239	5.56	270	-3.7	95	-4.4	32	0	968.9	NA	0.0000		9999	5280	0	0	0
2019/10/08 21:55:00	BASE	2.57	233	5.56	270	-3.7	95	-4.4	32	0	968.9	NA	0.0000		9999	5250	0	0	0
2019/10/08 21:56:00	BASE	2.54	230	5.56	270	-3.7	95	-4.4	32	0	968.9	NA	0.0000		9999	5120	0	0	0
2019/10/08 21:57:00	BASE	2.24	231	4.99	271	-3.7	95	-4.4	31	0	968.9	NA	0.0000		9999	5020	0	0	0
2019/10/08 21:58:00	BASE	1.31	226	4.22	280	-3.7	95	-4.4	31	0	968.9	NA	0.0000		9999	4990	0	0	0
2019/10/08 21:59:00	BASE	0.67	217	4.06	264	-3.7	95	-4.4	30	0	968.9	NA	0.0000		9999	5050	0	0	0
2019/10/08 22:00:00	BASE	0.36	220	3.91	269	-3.7	95	-4.4	30	0	968.9	NA	0.0000		9999	4990	0	0	0
2019/10/08 22:01:00	BASE	0.04	242	3.91	269	-3.7	95	-4.4	29	0	968.9	NA	0.0000		9999	4990	0	0	0
2019/10/08 22:02:00	BASE	0.00	263	3.34	239	-3.7	95	-4.4	29	0	968.9	NA	0.0000		9999	4890	0	0	0
2019/10/08 22:03:00	BASE	0.40	269	3.04	243	-3.7	95	-4.4	28	0	968.9	NA	0.0000		9999	4950	0	0	0
2019/10/08 22:04:00	BASE	1.01	274	2.73	230	-3.7	95	-4.4	28	0	968.8	NA	0.0000		9999	4820	0	0	0
2019/10/08 22:05:00	BASE	1.15	286	2.68	229	-3.7	95	-4.4	27	0	968.7	NA	0.0000		9999	5410	0	0	0
2019/10/08 22:06:00	BASE	1.07	305	2.37	231	-3.7	94	-4.4	27	0	968.7	NA	0.0000		9999	4760	0	0	0
2019/10/08 22:07:00	BASE	0.63	321	1.44	289	-3.7	94	-4.5	26	0	968.7	NA	0.0000		9999	4820	0	0	0
2019/10/08 22:08:00	BASE	0.10	313	1.44	289	-3.7	94	-4.5	25	0	968.7	NA	0.0000		9999	5770	0	0	0
2019/10/08 22:09:00	BASE	0.73	266	1.85	237	-3.8	94	-4.5	25	0	968.6	NA	0.0000		9999	5680	0	0	0
2019/10/08 22:10:00	BASE	1.41	226	1.95	228	-3.8	94	-4.5	24	0	968.6	NA	0.0000		9999	5610	0	0	0
2019/10/08 22:11:00	BASE	0.86	229	1.95	228	-3.8	95	-4.5	24	0	968.6	NA	0.0000		9999	4660	0	0	0
2019/10/08 22:12:00	BASE	0.54	250	3.19	104	-3.8	95	-4.4	23	0	968.6	NA	0.0000		9999	4490	0	0	0
2019/10/08 22:13:00	BASE	2.19	34	4.68	47	-3.7	95	-4.4	23	0	968.6	NA	0.0000		9999	4660	0	0	0
2019/10/08 22:14:00	BASE	3.58	48	5.35	48	-3.7	95	-4.5	22	0	968.6	NA	0.0000		9999	4660	0	0	0
2019/10/08 22:15:00	BASE	2.76	43	5.35	48	-3.8	95	-4.5	21	0	968.5	NA	0.0000		9999	4460	0	0	0
2019/10/08 22:16:00	BASE	1.16	35	5.35	48	-3.8	94	-4.6	21	0	968.5	NA	0.0000		9999	4590	0	0	0
2019/10/08 22:17:00	BASE	0.16	26	5.35	48	-3.9	94	-4.7	20	0	968.5	NA	0.0000		9999	4690	0	0	0
2019/10/08 22:18:00	BASE	0.00	22	5.35	48	-3.9	95	-4.6	19	0	968.5	NA	0.0000		9999	4690	0	0	0
2019/10/08 22:19:00	BASE	0.00	22	5.35	48	-4.0	95	-4.6	18	0	968.5	NA	0.0000		9999	4790	0	0	0
2019/10/08 22:20:00	BASE	0.14	1	5.35	48	-4.0	96	-4.6	17	0	968.4	NA	0.0000		9999	4760	0	0	0
2019/10/08 22:21:00	BASE	0.61	220	5.35	48	-4.0	96	-4.5	17	0	968.4	NA	0.0000		9999	4690	0	0	0
2019/10/08 22:22:00	BASE	0.47	215	5.35	48	-4.0	97	-4.4	16	0	968.4	NA	0.0000		9999	4720	0	0	0
2019/10/08 22:23:00	BASE	0.00	190	5.35	48	-3.9	97	-4.3	16	0	968.4	NA	0.0000		9999	4760	0	0	0
2019/10/08 22:24:00	BASE	0.49	61	2.42	48	-3.9	97	-4.3	15	0	968.5	NA	0.0000		9999	4760	0	0	0
2019/10/08 22:25:00	BASE	0.59	42	1.54	208	-3.9	97	-4.3	15	0	968.4	NA	0.0000		9999	4890	0	0	0
2019/10/08 22:26:00	BASE	0.19	317	1.54	208	-4.0	97	-4.3	14	0	968.4	NA	0.0000		9999	4860	0	0	0
2019/10/08 22:27:00	BASE	0.17	230	1.54	208	-4.0	97	-4.3	14	0	968.4	NA	0.0000		9999	4920	0	0	0
2019/10/08 22:28:00	BASE	0.09	221	1.54	208	-4.0	97	-4.3	13	0	968.4	NA	0.0000		9999	5970	0	0	0
2019/10/08 22:29:00	BASE	0.19	163	1.54	208	-3.9	97	-4.3	13	0	968.4	NA	0.0000		9999	5840	0	0	0
2019/10/08 22:30:00	BASE	0.19	66	1.54	208	-3.9	97	-4.3	12	0	968.3	NA	0.0000		9999	5910	0	0	0
2019/10/08 22:31:00	BASE	0.00	32	1.34	61	-3.9	97	-4.3	12	0	968.3	NA	0.0000		9999	4990	0	0	0
2019/10/08 22:32:00	BASE	0.22	319	1.34	61	-3.9	97	-4.3	11	0	968.3	NA	0.0000		9999	5910	0	0	0
2019/10/08 22:33:00	BASE	0.90	252	1.70	228	-3.9	97	-4.3	10	0	968.2	NA	0.0000		9999	4630	0	0	0
2019/10/08 22:34:00	BASE	1.54	231	2.01	221	-3.9	97	-4.3	10	0	968.2	NA	0.0000		9999	4760	0	0	0
2019/10/08 22:35:00	BASE	1.74	221	2.37	220	-3.8	97	-4.3	10	0	968.2	NA	0.0000		9999	4760	0	0	0
2019/10/08 22:36:00	BASE	2.24	219	3.14	221	-3.8	97	-4.3	9	0	968.1	NA	0.0000		9999	4860	0	0	0
2019/10/08 22:37:00	BASE	2.77	219	3.14	222	-3.8	96	-4.3	9	0	968.0	NA	0.0000		9999	4760	0	0	0
2019/10/08 22:38:00	BASE	3.04	221	3.60	226	-3.8	96	-4.4	8	0	968.0	NA	0.0000		9999	4760	0	0	0
2019/10/08 22:39:00	BASE	3.32	223	3.76	226	-3.8	95	-4.4	8	0	968.1	NA	0.0000		9999	4690	0	0	0
2019/10/08 22:40:00	BASE	3.09	221	3.76	226	-3.8	95	-4.5	7	0	968.1	NA	0.0000		9999	4660	0	0	0
2019/10/08 22:41:00	BASE	2.61	219	3.76	226	-3.8	94	-4.6	7	0	968.0	NA	0.0000		9999	4760	0	0	0
2019/10/08 22:42:00	BASE	2.55	217	3.76	226	-3.8	94	-4.7	6	0	967.9	NA	0.0000		9999	4720	0	0	0
2019/10/08 22:43:00	BASE	2.71	215	3.76	226	-3.9	94	-4.7	6	0	967.9	NA	0.0000		9999	4430	0	0	0
2019/10/08 22:44:00	BASE	2.65	211	3.76	226	-3.9	94	-4.7	6	0	967.9	NA	0.0000		9999	4530	0	0	0
2019/10/08 22:45:00	BASE	2.21	204	3.76	226	-3.9	94	-4.7	5	0	967.9	NA	0.0000		9999	4690	0	0	0
2019/10/08 22:46:00	BASE	1.58	187	3.76	226	-4.0	94	-4.7	5	0	967.9	NA	0.0000		9999	4660	0	0	0
2019/10/08 22:47:00	BASE	1.37	166	3.76	226	-4.0	94	-4.8	4	0	968.0	NA	0.0000		9999	4530	0	0	0
2019/10/08 22:48:00	BASE	1.58	157	3.76	226	-4.0	95	-4.8	4	0	967.9	NA	0.0000		9999	4430	0	0	0
2019/10/08 22:49:00	BASE	1.89	162	3.34	224	-4.1	95	-4.8	4	0	967.9	NA	0.0000		9999	4000	4950	0	0
2019/10/08 22:50:00	BASE	2.17	171	2.93	212	-4.1	95	-4.8	3	0	967.9	NA	0.0000		9999	3840	4560	5220	0
2019/10/08 22:51:00	BASE	2.45	175	3.45	181	-4.2	96	-4.8	3	0	967.9	NA	0.0000		9999	4560	0	0	0
2019/10/08 22:52:00	BASE	2.56	174	3.45	181	-4.2	96	-4.7	3	0	967.9	NA	0.0000		9999	4860	0	0	0
2019/10/08 22:53:00	BASE	2.55	176	3.45	181	-4.1	96	-4.6	3	0	967.9	NA	0.0000		9999	4070	4820	0	0
2019/10/08 22:54:00	BASE	2.61	178	3.45	181	-4.1	97	-4.6	2	0	967.9	NA	0.0000	-SN	9999	4170	0	0	0
2019/10/08 22:55:00	BASE	2.31	170	3.45	181	-4.1	97	-4.5	2	0	967.9	NA	0.0000	-SN	9999	4760	0	0	0
2019/10/08 22:56:00	BASE	2.54	159	3.91	162	-4.1	97	-4.5	2	0	967.9	NA	0.0000	-SN	9999	4130	4790	0	0
2019/10/08 22:57:00	BASE	3.31	158	3.91	162	-4.0	97	-4.4	2	0	967.9	NA	0.0000	-SN	9999	4660	0	0	0
2019/10/08 22:58:00	BASE	3.71	171	4.27	171	-4.0	97	-4.4	1	0	967.9	NA	0.0000	-SN	9999	4690	0	0	0
2019/10/08 22:59:00	BASE	3.83	188	4.27	171	-4.0	97	-4.4	1	0	967.9	NA	0.0000	-SN	8000	4660	0	0	0
2019/10/08 23:00:00	BASE	3.39	195	4.27	171	-4.0	97	-4.4	1	0	967.9	NA	0.0000	-SN	7000	4070	0	0	0
2019/10/08 23:01:00	BASE	2.77	192	4.27	171	-4.0	97	-4.4	1	0	967.9	NA	0.0000	-SN	7000	4000	0	0	0
2019/10/08 23:02:00	BASE	2.35	191	4.27	171	-3.9	97	-4.3	1	0	967.9	NA	0.0000	-SN BR	6000	3900	4820	0	0
2019/10/08 23:03:00	BASE	2.14	198	4.27	171	-3.9	97	-4.3	1	0	967.9	NA	0.0000	-SN BR	6000	2990	4790	0	0
2019/10/08 23:04:00	BASE	2.39	208	4.27	171	-3.8	97	-4.3	1	0	967.9	NA	0.0000	-SN BR	9000	4630	0	0	0
2019/10/08 23:05:00	BASE	2.82	210	4.27	171	-3.8	97	-4.3	1	0	967.9	NA	0.0000	-SN BR	9000	4070	0	0	0
2019/10/08 23:06:00	BASE	3.13	206	4.27	171	-3.8	96	-4.3	0	0	967.9	NA	0.0000	-SN BR	9999	4040	0	0	0
2019/10/08 23:07:00	BASE	2.97	209	4.27	171	-3.8	96	-4.3	0	0	967.9	NA	0.0000	-SN BR	9000	4990	0	0	0
2019/10/08 23:08:00	BASE	2.90	209	4.01	195	-3.8	96	-4.4	0	0	967.8	NA	0.0000	-SN BR	9000	4100	0	0	0
2019/10/08 23:09:00	BASE	3.36	206	4.06	199	-3.8	96	-4.4	0	0	967.8	NA	0.0000	-SN BR	9999	4130	0	0	0
2019/10/08 23:10:00	BASE	3.85	205	4.27	208	-3.8	95	-4.4	0	0	967.8	NA	0.0000	-SN BR	9999	4330	0	0	0
2019/10/08 23:11:00	BASE	3.86	204	4.27	208	-3.8	95	-4.4	0	0	967.8	NA	0.0000	-SN BR	9999	4560	0	0	0
2019/10/08 23:12:00	BASE	3.51	202	4.27	208	-3.8	95	-4.4	0	0	967.8	NA	0.0000	-SN	9999	4100	0	0	0
2019/10/08 23:13:00	BASE	3.27	202	4.27	208	-3.8	95	-4.4	0	0	967.8	NA	0.0000	-SN	9999	4100	0	0	0
2019/10/08 23:14:00	BASE	3.17	202	4.27	208	-3.7	95	-4.4	0	0	967.7	NA	0.0000	-SN	9999	4630	0	0	0
2019/10/08 23:15:00	BASE	2.83	189	4.27	208	-3.7	95	-4.4	0	0	967.7	NA	0.0000	-SN	9999	4040	0	0	0
2019/10/08 23:16:00	BASE	1.97	170	4.27	208	-3.7	95	-4.3	0	0	967.7	NA	0.0000	-SN	9999	0	0	0	1280
2019/10/08 23:17:00	BASE	1.95	178	4.27	208	-3.7	95	-4.3	0	0	967.7	NA	0.0000	-SN	9999	4100	0	0	0
2019/10/08 23:18:00	BASE	3.29	200	4.68	191	-3.7	95	-4.4	0	0	967.6	NA	0.0000	-SN	9000	4000	0	0	0
2019/10/08 23:19:00	BASE	4.07	195	4.68	191	-3.7	95	-4.4	0	0	967.6	NA	0.0000	-SN	7000	4070	0	0	0
2019/10/08 23:20:00	BASE	3.41	181	4.68	191	-3.7	95	-4.4	0	0	967.7	NA	0.0000	-SN BR	7000	2850	3670	0	0
2019/10/08 23:21:00	BASE	2.51	175	4.68	191	-3.7	95	-4.4	0	0	967.6	NA	0.0000	-SN BR	7000	3970	0	0	0
2019/10/08 23:22:00	BASE	1.92	166	4.68	191	-3.7	95	-4.4	0	0	967.5	NA	0.0000	-SN BR	8000	0	0	0	1120
2019/10/08 23:23:00	BASE	1.74	137	4.68	191	-3.8	95	-4.4	0	0	967.5	NA	0.0000	-SN BR	9999	0	0	0	1080
2019/10/08 23:24:00	BASE	1.85	115	4.68	191	-3.8	95	-4.4	0	0	967.6	NA	0.0000	-SN BR	9999	3810	0	0	0
2019/10/08 23:25:00	BASE	1.84	124	4.68	191	-3.8	96	-4.4	0	0	967.6	NA	0.0000	-SN BR	9999	3900	0	0	0
2019/10/08 23:26:00	BASE	1.77	137	4.68	191	-3.8	96	-4.4	0	0	967.5	NA	0.0000	-SN BR	9999	0	0	0	1280
2019/10/08 23:27:00	BASE	1.96	142	4.68	191	-3.8	96	-4.4	0	0	967.5	NA	0.0000	-SN BR	9999	4230	0	0	0
2019/10/08 23:28:00	BASE	2.04	146	4.48	181	-3.9	96	-4.4	0	0	967.4	NA	0.0000	-SN BR	9999	3840	0	0	0
2019/10/08 23:29:00	BASE	1.73	144	3.45	181	-3.9	96	-4.5	0	0	967.5	NA	0.0000	-SN BR	9999	4270	0	0	0
2019/10/08 23:30:00	BASE	1.29	133	2.68	151	-4.0	96	-4.5	0	0	967.5	NA	0.0000	-SN	9999	3480	0	0	0
2019/10/08 23:31:00	BASE	0.63	133	2.68	151	-4.0	96	-4.5	0	0	967.4	NA	0.0000	-SN	9999	0	0	0	950
2019/10/08 23:32:00	BASE	0.72	154	2.62	142	-4.0	97	-4.4	0	0	967.4	NA	0.0000	-SN	9999	0	0	0	1310
2019/10/08 23:33:00	BASE	1.40	172	2.62	142	-4.0	97	-4.4	0	0	967.4	NA	0.0000	-SN	9999	4170	0	0	0
2019/10/08 23:34:00	BASE	1.69	176	2.62	142	-4.0	98	-4.3	0	0	967.3	NA	0.0000	-SN	9999	3840	0	0	0
2019/10/08 23:35:00	BASE	1.69	179	2.62	142	-4.0	98	-4.3	0	0	967.3	NA	0.0000	-SN	9999	4130	0	0	0
2019/10/08 23:36:00	BASE	1.57	181	2.62	142	-4.0	98	-4.2	0	0	967.3	NA	0.0000	-SN	9999	4200	0	0	0
2019/10/08 23:37:00	BASE	1.46	184	2.62	142	-4.0	98	-4.2	0	0	967.3	NA	0.0000	-SN	9999	3710	0	0	0
2019/10/08 23:38:00	BASE	1.33	190	1.90	177	-4.0	99	-4.2	0	0	967.3	NA	0.0000	-SN	9999	3770	0	0	0
2019/10/08 23:39:00	BASE	1.11	197	1.90	177	-4.1	99	-4.2	0	0	967.3	NA	0.0000	-SN	9999	3770	0	0	0
2019/10/08 23:40:00	BASE	0.90	200	1.90	177	-4.1	99	-4.1	0	0	967.3	NA	0.0000	-SN	9999	3770	0	0	0
2019/10/08 23:41:00	BASE	1.10	202	1.90	177	-4.1	100	-4.1	0	0	967.3	NA	0.0000	-SN	9999	3580	0	0	0
2019/10/08 23:42:00	BASE	1.46	210	1.90	177	-4.0	100	-4.1	0	0	967.3	NA	0.0000	-SN	9999	4170	0	0	0
2019/10/08 23:43:00	BASE	1.57	218	1.85	180	-4.0	100	-4.0	0	0	967.3	NA	0.0000	-SN	9999	4100	0	0	0
2019/10/08 23:44:00	BASE	1.66	222	1.85	222	-4.0	100	-4.0	0	0	967.3	NA	0.0000	-SN	9999	4000	0	0	0
2019/10/08 23:45:00	BASE	1.63	226	1.85	222	-4.0	100	-4.0	0	0	967.3	NA	0.0000	-SN	9999	3940	0	0	0
2019/10/08 23:46:00	BASE	1.53	228	1.85	222	-4.0	100	-4.0	0	0	967.3	NA	0.0000	-SN	9999	3900	0	0	0
2019/10/08 23:47:00	BASE	1.57	221	1.85	222	-4.0	100	-4.0	0	0	967.3	NA	0.0000		9999	0	0	0	1870
2019/10/08 23:48:00	BASE	1.57	211	1.85	222	-4.0	100	-4.0	0	0	967.3	NA	0.0000		9999	4130	0	0	0
2019/10/08 23:49:00	BASE	1.16	202	1.85	222	-4.0	100	-4.0	0	0	967.3	NA	0.0000		9999	4100	0	0	0
2019/10/08 23:50:00	BASE	0.41	188	1.85	222	-4.0	100	-4.0	0	0	967.3	NA	0.0000		9999	4100	0	0	0
2019/10/08 23:51:00	BASE	0.20	157	1.85	222	-4.1	100	-4.1	0	0	967.3	NA	0.0000		9999	2850	4070	0	0
2019/10/08 23:52:00	BASE	0.94	123	1.85	222	-4.1	100	-4.1	0	0	967.3	NA	0.0000	-SN	9999	2720	0	0	0
2019/10/08 23:53:00	BASE	1.73	112	2.11	115	-4.1	100	-4.1	0	0	967.3	NA	0.0000	-SN	9999	2620	0	0	0
2019/10/08 23:54:00	BASE	2.04	115	2.21	116	-4.1	100	-4.1	0	0	967.3	NA	0.0000	-SN	9999	2300	0	0	0
2019/10/08 23:55:00	BASE	2.10	123	2.21	116	-4.1	100	-4.1	0	0	967.3	NA	0.0000	-SN	9999	2230	0	0	0
2019/10/08 23:56:00	BASE	2.13	138	2.31	150	-4.2	100	-4.2	0	0	967.3	NA	0.0000	-SN	9999	2130	3840	0	0
2019/10/08 23:57:00	BASE	2.23	152	2.42	163	-4.2	100	-4.2	0	0	967.3	NA	0.0000	-SN	9999	0	0	0	5050
2019/10/08 23:58:00	BASE	2.28	160	2.42	163	-4.2	100	-4.2	0	0	967.3	NA	0.0000	-SN	9999	0	0	0	4860
2019/10/08 23:59:00	BASE	2.24	163	2.42	163	-4.2	100	-4.2	0	0	967.3	NA	0.0000	-SN	8000	3180	0	0	0